GFSSE_sfc_dewp_000.txt.gz
Dewpoint
61 66 70 71 71 71 71 71 71 72 71 71 70 70 69 69 69 69 69 68 69 67 66 66 66 66 67 66 66 69 69 70 70 69 70 69 67 68 70 70 70 68 71
62 66 69 70 71 72 72 71 71 71 71 70 70 69 69 68 68 68 66 65 65 64 64 65 66 65 67 67 67 68 68 68 70 71 71 70 70 69 69 70 69 69 70
64 66 67 70 71 71 71 71 71 72 70 70 69 69 68 67 67 68 66 64 63 63 63 64 65 66 68 68 68 68 68 68 68 69 70 68 68 70 68 70 70 71 70
65 66 68 70 70 71 71 71 72 71 70 70 70 69 68 67 67 67 65 63 62 61 63 64 63 65 66 66 66 67 67 68 68 68 69 68 68 69 68 69 69 69 69
64 65 68 69 69 70 70 70 71 71 71 71 70 69 68 67 67 67 65 62 62 62 62 63 65 65 67 65 66 66 66 66 67 66 66 68 68 68 67 69 69 69 70
62 63 67 68 69 69 69 68 69 70 70 70 69 68 68 67 66 66 65 64 64 64 64 64 65 67 67 66 66 66 66 66 65 65 65 67 67 66 68 68 68 69 69
62 63 65 67 68 69 68 68 68 69 69 70 69 69 68 67 66 62 63 64 63 65 64 64 64 63 64 64 64 65 65 65 64 64 64 65 66 67 67 69 68 68 68
63 64 64 66 67 68 68 68 68 68 68 68 68 68 67 67 66 65 64 64 64 64 64 64 64 64 63 63 64 63 63 64 64 64 65 65 66 66 67 68 68 67 68
63 63 63 63 64 65 65 66 66 67 67 67 66 67 66 66 65 64 63 63 62 62 61 62 62 63 63 63 63 63 64 65 63 63 64 64 65 66 66 67 68 67 68
62 62 61 61 61 60 61 64 65 66 66 66 65 64 64 64 63 62 60 61 61 61 61 61 60 60 60 59 59 60 61 62 61 61 62 62 63 65 66 66 68 68 68
62 61 61 60 59 58 58 62 64 65 66 66 64 64 62 59 57 57 60 60 61 60 60 59 59 59 58 57 58 58 58 58 59 60 60 62 62 64 65 66 67 67 67
61 61 61 61 59 58 57 59 60 61 63 63 63 61 59 58 57 58 59 60 59 59 59 59 57 56 53 52 53 55 54 55 57 57 59 60 60 61 63 64 66 66 66
60 61 62 61 60 59 59 59 59 59 60 61 61 60 59 58 57 57 56 56 55 57 54 55 54 54 53 52 53 54 54 55 55 57 58 60 61 61 61 62 63 64 65
58 61 61 61 61 60 60 60 59 59 59 59 59 59 58 56 55 55 55 55 55 55 53 53 54 54 54 54 53 53 54 54 55 57 58 60 60 61 62 62 61 62 64
55 56 56 57 58 57 58 58 58 59 59 59 59 58 57 56 55 55 55 55 55 54 54 53 51 50 49 50 51 53 53 53 55 56 56 57 57 54 54 57 62 62 62
50 50 54 56 57 55 52 52 53 55 57 57 57 57 56 56 55 55 55 55 54 54 52 49 47 46 46 47 48 47 47 48 52 52 50 50 53 53 53 54 56 59 62
45 46 52 54 55 54 52 51 50 50 50 50 52 52 53 55 55 55 54 54 54 52 48 48 45 45 43 43 41 43 44 45 49 46 43 45 47 50 53 55 57 57 59
41 45 51 52 53 53 52 52 51 50 49 48 49 50 52 53 52 50 51 51 52 49 48 47 38 37 39 39 40 39 39 39 40 39 40 41 44 47 52 57 58 59 59
39 43 48 48 51 49 50 51 50 49 48 46 46 49 50 51 50 47 46 47 47 44 43 44 37 39 37 36 36 37 37 37 37 37 37 39 42 45 50 53 55 58 58
38 42 41 44 47 45 42 41 40 39 39 43 43 44 48 49 49 48 46 46 45 42 41 39 38 39 38 37 36 36 36 37 38 37 37 38 41 43 44 46 51 52 52
38 35 34 36 37 37 37 37 37 37 36 37 39 41 43 47 48 48 46 45 46 43 41 40 39 38 37 38 36 35 36 37 36 36 37 40 41 43 44 46 47 48 50
35 35 32 31 32 33 34 34 35 34 35 35 36 37 39 41 45 47 46 43 43 44 41 40 39 38 37 38 34 34 30 32 33 37 38 35 40 41 42 43 44 45 48
31 32 32 32 32 34 35 35 35 35 36 35 35 36 36 39 41 45 45 44 42 43 42 41 39 38 36 38 37 33 33 30 33 34 32 34 35 37 40 39 42 43 43
30 32 33 34 35 35 37 36 36 35 35 36 37 37 37 39 39 40 44 45 42 41 42 42 40 39 36 35 37 38 35 34 24 22 30 35 32 32 35 39 39 40 42
35 35 39 39 38 38 38 38 38 37 39 40 40 40 40 40 39 39 40 41 42 41 41 40 39 38 35 34 30 32 31 34 34 28 24 25 28 32 34 37 39 41 39
38 38 38 37 37 38 38 37 36 35 36 37 36 38 40 40 38 37 39 39 37 36 34 34 34 32 32 33 32 33 32 28 26 27 28 26 26 29 33 34 36 38 40

GFSSE_sfc_dewp_006.txt.gz
Dewpoint
59 65 70 70 70 71 71 71 70 71 71 71 71 71 71 69 69 68 67 66 65 65 65 65 65 66 67 66 67 65 67 68 69 66 68 67 68 69 70 71 70 65 70
62 65 70 71 71 71 71 71 70 70 71 70 69 69 70 69 68 67 66 65 65 65 65 65 65 66 67 68 68 67 67 68 69 69 68 68 69 68 69 69 69 66 69
61 65 66 70 71 71 71 71 71 70 70 70 69 68 67 68 68 68 66 65 64 64 64 65 65 66 67 67 66 67 68 68 67 68 69 58 58 69 69 69 69 70 70
61 65 65 70 71 71 71 71 71 70 70 70 69 68 68 68 69 67 65 64 64 64 65 65 65 67 67 67 66 66 66 67 67 67 60 58 58 68 69 69 69 69 69
60 62 66 70 70 71 71 71 71 71 70 70 69 69 69 68 68 67 65 64 65 65 65 66 66 65 65 67 66 66 66 67 66 65 60 60 59 64 66 68 68 69 68
55 59 66 69 69 69 69 69 69 70 70 69 68 68 68 68 66 64 65 65 65 65 65 65 65 64 64 64 65 66 65 66 66 59 60 62 60 65 64 67 68 68 69
53 56 58 68 68 68 68 67 68 68 69 69 68 68 68 67 66 65 65 65 65 65 64 64 65 66 65 65 64 63 63 65 62 59 59 62 62 64 63 64 67 67 68
54 58 58 66 67 67 67 67 67 68 67 67 67 68 67 66 66 65 65 64 63 63 62 63 63 63 63 63 64 65 65 65 60 61 60 60 65 65 64 65 65 67 67
53 55 58 58 62 66 66 66 67 67 67 66 66 65 66 66 65 64 63 62 62 62 62 61 61 61 61 61 60 61 62 62 61 61 60 59 64 64 63 64 64 65 67
56 55 58 60 58 60 60 65 65 66 66 65 64 63 64 64 62 61 59 60 61 60 60 60 59 59 59 59 59 58 58 59 58 59 59 60 62 63 63 62 64 64 66
56 59 60 58 60 60 58 60 63 64 65 65 64 62 62 60 60 58 60 59 60 59 59 58 57 55 54 57 57 57 58 54 55 55 55 60 61 62 62 63 63 64 65
57 59 60 62 61 61 56 61 61 60 60 62 62 63 60 62 61 59 60 59 58 58 57 57 57 58 56 49 51 56 51 55 52 53 53 62 62 62 62 62 63 63 64
56 58 59 63 63 61 58 58 56 57 59 60 64 64 63 62 61 60 59 57 58 58 54 54 55 52 55 53 50 53 51 52 47 47 53 57 56 56 58 60 62 62 63
55 57 60 61 63 64 58 56 57 56 57 57 59 64 62 60 60 60 56 55 55 54 56 55 54 56 52 49 49 49 48 46 41 44 49 52 51 51 52 54 56 58 61
54 58 61 63 63 61 62 58 59 59 57 59 58 59 61 58 58 56 55 53 53 53 53 54 53 50 45 42 44 44 43 44 46 41 42 49 50 51 53 53 55 56 58
55 58 62 63 63 58 58 60 58 58 55 55 54 55 59 60 57 54 52 49 49 49 50 52 51 48 44 42 42 44 43 42 43 44 38 42 48 52 53 54 56 57 57
53 55 61 61 58 57 55 55 53 51 52 50 50 54 55 56 54 54 50 50 49 50 53 54 53 49 45 40 41 41 42 43 40 42 39 39 43 52 52 52 54 54 54
53 55 58 56 53 54 53 53 51 51 53 50 51 51 54 54 55 54 50 49 50 51 50 50 49 47 45 41 40 38 39 39 40 41 39 39 37 35 49 52 52 51 52
50 54 56 55 47 48 52 51 52 53 49 45 47 45 48 50 51 53 49 49 52 50 49 49 48 48 46 41 38 38 40 38 38 35 38 41 42 38 36 49 50 50 49
50 54 54 49 49 51 51 50 45 45 46 45 43 42 44 44 47 49 48 50 51 50 49 47 49 47 45 44 35 34 38 39 39 38 38 36 37 41 40 41 42 42 47
52 51 48 48 46 44 42 40 40 40 41 42 41 45 46 45 45 47 45 47 48 47 48 51 50 49 48 46 43 40 39 41 43 38 38 37 36 39 41 41 37 35 37
46 46 43 40 42 41 40 42 43 44 42 43 41 43 42 42 41 40 44 43 44 44 46 48 49 48 47 47 44 41 37 37 38 40 38 37 40 37 39 40 37 36 35
43 43 41 42 42 43 42 40 41 42 40 39 39 37 38 40 39 41 42 43 44 44 42 44 46 46 44 46 48 43 38 36 36 37 41 38 40 39 38 37 35 33 34
45 45 43 42 42 41 43 41 43 39 38 40 40 38 38 38 38 39 40 43 44 43 43 42 40 44 44 43 43 43 46 44 39 36 37 40 39 39 40 36 34 35 34
44 45 45 43 42 42 41 43 41 42 40 40 39 38 37 36 38 38 41 42 43 42 43 45 45 45 44 44 42 42 44 43 42 39 36 36 36 36 34 35 37 35 35
44 45 44 41 41 42 42 42 43 44 42 39 37 35 34 35 35 38 39 42 43 42 42 42 43 44 43 43 42 41 40 38 37 37 36 36 36 34 33 35 35 35 36

GFSSE_sfc_dewp_009.txt.gz
Dewpoint
58 65 71 70 71 71 70 70 70 72 72 71 70 70 70 69 68 67 66 66 66 66 67 66 66 67 67 68 68 67 67 68 68 66 65 67 67 68 69 69 70 66 67
61 65 71 71 72 71 71 70 70 70 70 70 70 70 70 69 68 67 66 66 65 65 66 67 66 68 69 69 68 68 68 68 69 69 68 67 68 68 69 68 68 66 69
61 63 66 71 71 71 70 70 70 70 70 69 69 68 68 68 68 67 65 65 64 65 65 66 66 67 67 67 66 67 67 67 69 69 69 57 60 67 69 68 68 68 68
61 62 66 71 72 71 71 71 70 70 70 69 69 68 68 68 68 67 65 65 65 66 66 66 66 66 66 67 67 67 66 66 67 68 60 56 57 68 69 69 68 67 66
59 63 68 70 71 72 72 71 70 70 70 70 69 69 68 68 67 66 65 65 65 66 66 66 65 64 63 64 67 66 66 67 67 64 59 61 61 65 68 68 68 68 68
54 61 67 69 70 70 69 69 70 70 69 68 68 68 68 67 65 64 65 65 66 66 65 65 66 66 66 65 64 64 65 66 67 59 59 64 63 67 65 64 68 67 68
48 53 61 68 68 68 67 67 68 68 68 68 68 68 67 66 66 65 65 65 64 64 63 63 64 64 64 65 65 65 64 64 62 58 59 64 64 66 63 63 64 66 67
49 52 54 65 66 66 66 66 67 67 67 67 67 67 66 66 65 65 64 63 63 63 62 62 62 62 62 62 62 63 64 64 60 59 60 61 65 65 64 64 65 64 66
49 52 53 55 61 66 66 66 66 66 66 66 65 65 66 65 64 63 62 62 62 61 61 60 60 60 60 60 60 60 60 62 61 59 59 62 64 64 63 63 64 65 65
49 52 55 55 54 57 61 65 65 66 66 64 64 63 64 64 63 61 60 61 60 60 60 58 58 58 57 59 58 58 59 60 58 53 55 60 62 63 63 62 63 64 64
50 55 55 55 55 55 53 59 63 65 66 65 64 63 62 59 58 59 61 59 59 58 58 58 57 56 56 57 58 57 59 53 53 50 55 62 62 62 62 62 63 64 65
53 53 57 58 57 55 49 55 55 53 56 58 59 60 57 60 59 58 59 61 60 59 59 59 58 59 59 49 50 57 51 50 48 47 54 61 60 61 61 62 62 63 64
52 51 55 62 60 56 53 53 52 52 54 55 59 60 59 59 58 57 56 55 55 57 52 54 53 51 54 51 48 49 48 48 44 43 53 55 53 54 56 58 59 61 62
50 49 55 61 59 58 54 53 53 52 53 54 56 58 58 56 57 57 53 52 52 50 52 52 51 54 52 47 45 46 46 44 38 39 49 52 48 49 50 53 55 57 59
47 49 54 60 57 54 56 55 56 56 54 56 54 55 55 55 56 53 52 50 49 48 48 50 49 49 48 46 43 44 43 43 44 42 41 52 48 51 52 52 54 56 57
46 50 54 57 56 52 53 55 56 54 51 51 50 51 54 54 55 52 50 48 47 47 47 48 50 50 48 45 43 43 44 42 41 44 39 44 51 52 52 52 54 56 56
46 48 54 56 54 52 52 52 50 47 49 49 48 51 51 52 53 54 51 50 48 50 53 50 49 48 48 46 43 41 42 44 43 43 42 39 45 53 53 52 52 53 52
46 47 51 53 51 51 50 49 48 48 49 48 48 49 50 50 51 53 49 50 51 52 50 49 47 46 46 45 46 42 41 41 41 42 41 41 38 39 50 54 52 52 52
45 47 50 55 46 47 50 48 49 50 47 43 44 43 48 47 48 50 48 50 55 51 52 51 50 50 47 47 45 45 43 41 43 37 40 43 45 40 39 54 54 52 50
44 47 50 52 44 47 48 49 43 43 44 44 43 43 46 45 48 48 47 50 50 47 48 50 53 50 51 50 44 43 47 44 42 44 41 38 40 45 42 43 45 45 51
50 49 49 48 48 45 43 42 40 41 42 43 42 45 46 44 43 44 42 43 46 44 47 50 50 50 49 50 49 48 48 48 48 43 44 42 41 41 45 44 42 38 43
49 49 46 44 42 41 41 43 45 45 43 43 43 43 42 43 42 41 42 41 42 41 47 49 50 47 47 49 47 47 45 45 45 45 44 44 46 41 41 44 45 43 39
45 44 43 43 43 44 43 41 41 41 42 40 41 41 41 42 39 39 40 41 45 44 42 47 46 46 43 45 49 45 42 40 43 43 46 45 46 44 42 42 45 40 40
45 45 44 43 42 42 45 42 44 41 40 41 42 41 39 39 37 36 38 40 43 43 44 44 39 46 45 42 43 40 45 46 42 42 44 45 44 43 47 44 42 39 38
45 46 45 43 42 43 42 43 43 44 43 43 42 41 42 38 38 36 37 41 43 41 43 45 44 43 42 41 40 41 43 43 43 41 41 42 43 43 43 45 43 39 37
45 45 45 42 40 42 44 44 45 45 43 40 39 38 36 37 35 37 36 41 42 42 42 41 42 43 43 42 41 40 40 39 39 38 38 39 41 45 46 43 43 41 39

GFSSE_sfc_dewp_012.txt.gz
Dewpoint
64 66 71 72 72 71 71 71 72 71 71 72 71 70 70 69 68 68 68 68 68 67 67 68 67 69 69 69 69 69 69 70 69 69 69 68 67 69 69 71 69 65 68
64 66 71 72 72 71 71 71 71 71 71 71 71 70 70 69 68 67 66 66 66 66 66 67 68 68 68 68 67 68 68 69 69 69 70 69 69 68 68 70 69 66 67
64 66 68 71 72 71 71 71 71 71 70 70 70 70 69 69 68 66 66 66 66 66 67 67 67 67 67 67 67 68 68 68 68 68 68 64 58 67 67 69 69 69 69
64 66 69 71 71 72 71 71 71 70 69 70 69 69 69 68 68 66 65 66 66 66 66 65 65 64 64 64 67 67 67 68 68 67 63 59 62 67 65 69 70 69 69
65 67 69 70 71 72 72 72 71 71 70 70 70 69 69 68 66 65 65 66 66 66 65 65 66 66 66 65 65 66 67 67 67 66 61 60 65 66 65 66 69 69 69
63 66 68 69 69 70 70 70 70 70 69 69 69 68 68 66 65 66 66 66 64 64 64 64 64 64 65 65 66 66 65 65 65 61 59 64 64 66 66 66 67 68 68
59 62 65 67 68 69 68 68 69 69 69 69 68 67 67 66 66 65 64 64 63 62 62 62 62 63 63 64 63 64 65 65 63 60 61 62 59 58 63 64 66 67 67
55 59 60 67 67 67 68 68 68 68 68 68 67 67 66 65 65 64 63 63 62 62 61 61 60 60 61 62 62 62 62 63 61 59 60 63 62 62 65 64 66 65 66
50 52 56 60 64 66 66 67 67 67 67 66 66 66 65 65 65 63 62 61 61 60 60 59 59 59 59 60 61 61 61 61 59 59 59 63 66 64 64 63 63 65 66
52 53 57 59 60 62 63 65 66 66 66 65 65 65 65 65 64 63 63 61 59 58 58 57 57 57 57 58 60 60 60 60 56 57 59 62 64 63 63 62 63 64 66
51 57 57 55 58 62 61 62 65 66 66 65 64 64 63 62 62 61 61 61 59 59 59 59 58 58 58 59 59 60 60 54 54 51 59 63 62 62 62 62 63 63 64
54 54 59 60 59 57 50 61 63 61 63 63 62 62 62 62 60 59 61 62 62 61 61 61 61 61 60 55 55 59 56 53 50 49 59 61 60 59 60 62 63 63 64
52 54 60 62 61 59 58 56 58 59 59 62 64 61 62 60 63 61 61 61 61 61 60 60 58 58 55 54 51 51 50 48 49 47 55 57 55 54 55 58 59 61 62
51 52 60 61 61 60 59 59 60 59 58 60 59 61 61 60 60 59 57 55 55 54 54 54 54 55 55 50 48 48 48 48 45 46 52 54 53 49 50 54 56 58 59
50 52 57 61 60 62 59 62 61 60 59 59 58 59 59 58 59 58 56 55 54 54 53 53 52 52 52 50 49 46 45 46 47 46 48 52 52 50 50 52 55 57 58
50 53 60 60 60 57 58 58 60 58 58 58 57 56 57 57 57 57 55 55 54 53 53 52 51 52 52 51 49 48 46 45 44 46 45 48 51 54 54 54 54 56 57
48 51 58 60 58 57 57 57 57 53 52 54 55 55 54 55 55 56 55 55 54 55 54 53 53 51 51 50 49 49 48 46 46 46 46 46 47 54 55 55 55 56 56
52 55 61 55 57 56 57 54 54 55 55 54 55 54 54 53 53 55 54 55 56 56 55 53 53 51 50 50 49 49 47 45 45 47 46 45 44 43 53 56 57 55 54
47 51 53 58 56 54 55 53 54 54 53 52 51 53 53 52 54 53 53 54 55 53 53 52 50 52 51 50 48 47 48 47 45 41 43 44 45 44 45 53 56 55 56
51 51 54 58 55 53 55 53 51 50 51 51 52 50 51 51 50 51 49 51 52 49 49 50 50 49 49 49 47 46 48 48 47 47 44 44 44 44 43 47 52 51 54
53 52 53 55 53 51 50 50 49 49 49 50 49 49 48 49 48 48 48 47 47 46 48 48 47 46 46 47 46 45 46 47 49 48 46 45 43 43 44 44 47 44 47
51 52 49 47 49 48 46 49 49 49 48 48 49 49 49 48 47 43 46 46 46 46 46 47 48 45 44 45 44 43 40 41 43 45 45 45 42 42 41 42 43 44 44
50 49 46 46 46 48 49 46 46 47 47 46 45 46 47 47 45 44 45 46 46 46 44 45 45 44 43 43 44 42 38 37 39 42 42 43 47 47 50 46 43 43 43
49 50 47 47 45 46 48 47 46 45 45 47 49 46 45 45 45 42 42 45 45 46 44 45 42 45 44 41 43 43 43 42 40 39 41 43 43 46 48 48 45 43 43
49 50 49 46 45 46 47 47 47 48 48 46 47 46 44 44 43 41 42 43 44 44 44 45 44 44 44 42 41 40 39 38 39 38 36 37 39 42 45 50 50 51 48
49 50 49 46 44 45 47 48 46 45 45 45 45 43 41 40 40 41 41 44 44 44 44 44 44 42 42 42 41 41 39 38 37 35 35 35 36 39 40 43 48 48 48

GFSSE_sfc_dewp_018.txt.gz
Dewpoint
68 70 70 71 71 71 71 71 71 71 71 70 69 69 68 68 68 68 68 68 69 68 68 68 67 66 67 67 67 67 67 67 67 67 67 66 66 66 67 68 68 64 66
69 69 70 71 71 72 71 71 71 71 71 70 69 69 68 67 67 67 67 67 66 66 66 66 66 65 65 65 66 67 67 67 67 67 66 65 64 65 65 68 67 67 67
69 69 69 70 71 71 71 71 71 71 70 70 69 69 68 67 66 66 66 66 66 66 65 65 65 65 65 65 65 65 66 67 66 66 65 62 62 65 63 66 67 67 68
68 69 69 71 71 71 71 71 70 70 69 69 69 68 67 66 66 66 67 66 65 64 63 63 63 63 64 64 65 65 65 64 65 65 62 63 64 65 64 63 66 68 68
69 69 70 70 71 71 71 71 71 70 70 70 69 67 66 66 66 66 65 64 63 62 61 61 61 62 62 63 63 63 63 64 65 61 62 63 63 64 65 64 65 68 68
69 69 69 69 70 71 71 70 70 70 69 69 68 66 66 66 65 64 64 62 62 61 60 59 59 60 61 62 62 61 62 62 62 60 62 64 64 65 61 60 63 66 67
67 68 68 68 69 70 70 69 69 69 69 68 68 67 66 65 64 64 63 62 61 60 59 59 58 59 59 61 61 62 62 62 59 57 61 59 62 62 60 62 63 65 67
65 66 66 68 68 68 68 68 68 68 68 68 68 67 65 65 64 63 62 61 59 58 58 58 59 59 60 60 61 61 61 61 58 55 62 59 61 63 63 63 65 65 66
63 63 64 65 66 66 66 66 66 66 67 67 67 66 66 65 65 64 63 61 59 58 57 58 60 60 60 60 60 60 59 61 55 53 58 61 62 63 64 65 66 66 66
59 61 61 63 63 63 64 65 65 65 65 65 65 64 64 64 64 64 63 62 62 60 59 60 60 60 60 60 60 60 60 58 53 60 61 62 65 65 63 64 64 65 65
55 57 59 60 61 61 62 64 64 65 64 64 64 64 63 62 62 61 62 61 62 61 61 62 62 62 60 60 60 60 58 53 49 54 59 62 65 63 62 63 63 63 64
54 56 57 58 58 59 59 62 62 62 62 62 62 62 62 61 61 61 61 62 62 62 62 62 62 62 61 57 55 53 47 46 47 48 58 61 62 61 59 62 63 63 63
54 56 56 59 59 57 57 60 61 62 62 62 62 61 60 60 61 59 59 59 58 59 58 57 57 55 55 55 53 47 45 44 46 46 57 60 60 58 57 57 58 59 61
54 54 54 56 57 55 55 59 60 60 61 61 59 57 56 55 54 53 52 51 52 51 52 52 51 49 49 51 50 48 46 44 45 45 50 58 58 57 53 53 54 55 57
55 55 55 55 54 55 56 56 56 56 57 57 55 55 55 54 52 53 52 52 52 52 51 51 50 50 50 51 50 50 48 46 44 44 46 55 57 56 54 53 53 53 55
56 57 58 58 57 54 55 54 55 53 56 54 53 54 54 55 52 52 52 52 52 53 52 51 51 51 51 50 50 50 50 48 46 44 44 46 55 56 56 55 54 54 54
57 57 57 58 57 56 54 54 53 48 54 52 51 52 52 53 52 50 49 47 49 50 50 50 50 49 48 48 47 48 49 48 48 46 45 44 46 55 55 57 58 57 56
59 56 59 60 59 57 55 53 51 49 50 51 52 52 51 50 48 46 44 45 48 47 47 47 47 46 45 45 46 45 46 47 47 46 46 45 45 45 50 55 57 58 58
58 58 60 60 57 56 56 51 51 48 48 49 49 49 47 47 46 44 44 45 45 45 45 45 44 44 44 44 42 43 44 45 46 47 48 47 46 46 45 49 55 56 57
58 59 59 59 59 55 50 48 50 48 49 47 47 46 45 45 45 44 45 45 45 44 44 43 42 43 43 43 42 42 44 44 45 45 46 46 46 46 46 45 45 51 55
49 51 52 53 50 49 46 46 47 46 45 45 46 46 45 44 43 43 43 43 44 44 43 42 43 42 42 43 42 40 41 41 42 41 43 44 44 45 43 44 48 46 48
50 51 47 44 45 45 45 49 49 46 46 47 47 44 43 42 41 40 41 42 43 42 41 41 41 42 43 43 41 41 37 37 40 38 39 41 41 42 40 42 45 46 49
44 43 42 42 43 44 45 44 44 44 45 45 44 42 41 41 41 41 41 41 41 42 42 42 43 42 41 42 42 40 37 35 37 37 35 36 38 37 40 43 41 46 48
43 43 43 43 42 43 44 43 43 44 43 44 43 40 39 40 40 40 41 41 41 43 42 43 42 42 41 40 41 41 40 39 35 34 35 35 36 36 37 40 39 46 48
42 42 42 42 43 43 43 43 44 41 43 43 41 39 38 40 40 40 41 41 41 42 41 42 41 40 40 39 40 40 36 36 38 36 32 33 35 35 37 38 39 42 45
44 43 42 43 43 43 44 43 42 42 41 40 38 37 39 39 39 39 39 40 40 39 39 39 39 39 39 39 39 39 38 36 35 35 34 33 33 34 35 37 38 41 43

GFSSE_sfc_dewp_021.txt.gz
Dewpoint
68 70 71 72 72 72 72 71 71 70 70 69 68 68 68 68 67 67 67 67 67 66 66 66 66 65 65 65 67 67 67 67 66 66 66 65 64 65 66 68 67 64 68
69 69 70 71 71 72 71 71 71 71 70 69 68 68 67 67 67 66 66 66 66 65 65 65 65 65 65 65 65 65 66 67 66 66 66 65 64 63 63 68 67 66 66
68 69 70 71 71 72 71 71 71 70 69 69 68 68 67 66 66 67 66 65 64 63 62 62 62 62 62 63 64 65 65 64 65 65 65 62 61 63 62 67 67 68 67
68 69 70 71 71 71 71 71 70 69 69 69 68 67 66 66 66 66 64 63 62 61 60 60 60 60 61 61 62 62 63 64 64 64 62 63 63 64 63 63 66 66 67
68 69 70 70 70 71 71 70 70 70 70 69 67 66 66 66 65 64 63 62 61 59 59 58 58 59 59 60 61 61 61 62 63 62 62 63 63 64 64 62 65 66 68
68 69 69 69 70 71 71 70 70 70 69 68 67 66 66 65 63 63 62 61 60 59 58 58 58 59 59 60 60 61 61 61 60 58 60 63 63 64 63 63 63 65 66
68 69 69 69 70 70 69 69 69 69 68 68 67 66 65 64 63 62 61 61 59 59 58 59 59 59 59 61 61 61 61 61 57 54 59 60 59 64 61 61 63 65 65
67 68 68 69 69 69 69 69 68 68 68 68 67 66 65 64 64 62 61 60 59 58 58 59 60 60 61 61 62 61 60 61 55 53 58 60 60 63 64 62 64 65 65
66 64 65 66 67 67 66 66 66 66 66 66 66 66 66 65 64 64 62 60 59 58 59 60 61 61 61 61 62 61 60 59 51 59 57 61 62 64 63 64 65 65 65
62 63 62 62 63 63 63 65 65 65 65 65 65 65 64 64 64 64 63 62 61 60 61 61 62 62 62 61 61 60 59 55 47 53 59 61 64 63 62 63 64 65 66
59 60 60 61 61 61 61 63 64 64 64 64 64 64 63 61 61 61 62 62 62 61 61 62 62 62 61 60 60 58 54 48 45 47 55 60 63 63 62 63 63 63 64
55 57 59 59 60 61 60 62 62 63 62 62 61 61 61 60 60 61 61 62 63 62 62 62 61 61 59 56 55 54 46 44 45 45 49 59 61 61 59 61 62 63 63
53 55 57 57 57 58 58 61 61 61 61 61 61 61 60 60 59 60 58 58 55 54 55 54 53 51 50 52 52 50 47 46 44 45 49 58 61 59 57 57 58 58 60
53 55 56 57 57 56 58 59 59 60 61 61 61 59 58 54 54 52 51 52 51 52 51 50 50 50 50 51 50 50 49 47 45 45 46 55 58 58 56 55 55 56 59
53 55 55 58 57 55 56 58 59 59 60 60 58 57 56 53 52 52 52 51 51 52 51 50 50 50 49 49 48 49 48 48 47 46 45 52 54 56 57 56 56 55 57
53 54 56 56 55 55 56 56 57 57 58 57 55 54 55 52 52 51 49 48 47 49 49 48 48 47 46 46 45 46 46 48 48 47 46 46 52 54 55 56 56 56 56
54 55 56 57 56 55 54 54 54 53 56 54 52 53 53 52 50 48 45 44 47 46 46 46 45 44 43 44 44 45 46 46 46 46 46 46 47 50 53 54 55 56 57
57 57 60 60 59 57 55 54 49 50 51 51 52 51 49 48 46 44 43 45 46 45 45 44 43 43 42 42 42 43 44 44 44 45 47 47 47 46 48 50 52 53 55
57 60 59 60 59 59 56 54 49 48 48 48 48 46 46 46 45 44 45 45 45 44 44 43 42 42 40 40 42 42 43 43 44 45 44 45 47 46 44 46 48 50 52
58 59 59 59 58 54 51 48 48 46 46 46 45 44 43 44 44 43 43 43 44 43 41 41 40 41 40 42 42 41 41 42 42 41 42 43 43 43 40 41 42 43 48
54 55 57 56 52 46 48 46 46 46 48 49 46 43 42 43 42 41 42 41 42 41 40 41 41 41 42 43 41 40 40 40 39 38 39 41 40 41 39 40 40 41 41
53 51 45 44 44 45 46 48 51 52 50 47 43 41 41 41 40 40 40 40 41 41 41 41 42 42 42 42 40 40 36 36 39 38 37 38 37 39 37 36 40 37 40
43 42 42 43 43 46 49 48 46 45 46 44 41 39 40 41 40 41 41 41 42 42 41 41 41 40 39 40 40 39 35 33 35 36 35 36 37 36 37 37 39 37 43
41 41 41 41 42 43 43 42 42 43 42 43 41 39 39 40 40 41 41 42 41 41 40 41 41 39 39 37 39 40 38 37 32 30 34 34 36 35 36 37 37 38 42
42 42 42 42 43 43 43 43 44 42 43 41 39 38 39 40 40 40 40 39 38 39 38 38 39 38 39 37 37 37 36 35 35 34 31 31 33 35 36 37 37 38 41
43 43 43 43 44 44 44 43 42 41 40 38 37 38 39 41 41 38 39 38 38 38 37 38 37 37 37 37 36 36 37 36 35 35 31 30 31 33 35 36 36 37 39

GFSSE_sfc_dewp_024.txt.gz
Dewpoint
68 69 71 72 72 71 71 71 70 70 70 69 68 68 68 68 67 67 67 67 67 66 65 65 65 65 65 65 65 65 66 67 67 66 66 66 66 65 66 67 66 65 68
69 70 71 71 71 71 71 71 71 70 69 68 68 67 67 67 66 67 66 65 64 63 62 62 62 62 62 63 65 65 65 65 65 66 66 65 64 64 64 68 67 66 67
68 70 70 71 71 71 71 71 71 68 69 68 68 67 66 66 66 65 64 63 62 61 60 60 60 60 60 61 62 62 63 64 64 65 65 63 61 63 63 67 67 68 66
69 69 70 71 71 71 71 71 69 68 68 68 67 66 66 66 64 63 63 63 61 59 59 58 58 58 59 60 60 60 61 62 63 64 62 63 63 64 63 65 66 65 66
68 69 70 70 70 71 70 70 70 70 69 68 66 65 66 64 63 62 62 63 60 58 58 59 58 58 59 60 60 60 60 61 60 59 61 63 63 64 66 64 64 65 66
67 68 69 69 70 70 70 70 70 70 69 68 67 66 65 63 62 61 61 61 59 59 60 60 60 59 60 62 61 60 60 61 58 54 58 61 62 65 65 63 64 65 65
68 69 68 68 69 70 70 69 69 69 68 67 67 66 64 63 62 61 61 60 60 59 60 60 60 61 62 63 61 61 61 61 56 53 57 61 58 62 64 64 63 65 65
67 68 69 69 69 69 69 69 68 68 68 67 67 66 64 64 63 61 61 60 60 60 60 60 61 61 62 63 62 61 60 58 55 59 58 61 62 64 64 64 65 66 65
67 67 68 67 68 68 67 67 66 67 67 67 66 66 65 64 64 63 62 61 61 61 62 62 63 63 62 62 62 61 58 58 47 56 59 61 64 64 61 63 65 66 66
64 64 63 64 65 63 64 65 65 65 65 65 65 65 64 63 63 63 62 62 63 62 62 62 63 63 63 62 61 60 56 52 45 47 54 57 62 63 61 61 62 64 65
61 61 60 61 61 60 61 63 65 65 65 64 64 63 62 60 60 60 62 62 63 63 63 63 62 62 60 58 59 59 53 47 44 45 47 57 60 62 61 61 63 63 63
58 58 59 59 59 60 61 62 61 62 62 62 62 61 61 60 60 60 61 62 60 57 58 57 57 55 53 52 53 54 49 48 46 45 45 56 59 59 57 59 62 62 62
55 56 58 59 59 59 59 61 60 61 61 61 60 60 60 60 59 59 56 53 52 53 51 51 50 50 50 51 51 51 50 50 48 47 46 53 54 56 57 57 60 60 60
53 54 57 57 57 58 58 60 59 60 60 60 60 60 59 56 54 51 52 51 51 51 50 50 50 49 47 47 47 47 48 48 49 48 48 53 55 56 56 56 56 59 60
52 53 55 57 56 56 57 58 58 59 60 60 60 57 56 53 52 51 51 49 49 49 48 47 47 45 45 45 45 45 46 47 48 48 48 51 53 54 55 56 57 57 57
53 54 56 57 57 55 55 57 57 58 58 59 55 54 54 52 51 49 46 46 47 46 46 46 44 43 42 43 42 43 45 45 45 46 47 47 51 52 53 55 56 57 58
54 55 57 58 56 56 54 56 58 54 56 53 53 53 53 51 46 44 44 45 45 45 44 44 43 42 41 41 40 42 44 44 44 45 47 47 48 49 50 51 51 53 55
56 58 59 60 58 58 56 56 52 54 52 51 50 48 47 46 45 45 44 44 45 44 43 43 42 41 40 40 41 42 42 43 43 45 45 46 46 43 43 45 46 47 48
59 58 59 59 57 58 57 53 50 49 49 46 45 45 45 45 45 43 44 44 45 42 42 41 40 41 39 41 42 42 42 41 43 41 43 44 44 42 40 42 43 43 44
58 59 59 59 58 56 53 51 51 47 46 46 45 48 42 44 44 44 43 42 42 40 41 41 40 41 41 42 42 41 41 41 42 40 40 40 41 41 40 40 39 40 41
57 58 58 59 57 48 50 48 48 46 48 51 44 43 43 42 41 40 40 41 42 41 41 42 41 41 42 42 40 39 40 40 39 38 39 40 38 39 40 38 37 40 36
56 56 54 53 50 47 49 50 49 50 48 43 41 41 40 40 40 40 40 40 41 41 40 41 40 40 40 41 39 38 34 36 37 35 38 37 37 37 37 36 37 39 38
44 43 43 44 44 47 48 47 45 45 44 41 39 38 39 40 40 40 40 41 41 41 40 40 39 38 38 39 39 38 33 32 34 35 34 36 36 36 37 36 37 38 38
41 41 42 42 43 44 43 42 42 42 43 42 39 38 38 39 40 40 40 41 40 39 39 39 40 38 38 36 38 39 37 36 32 29 34 34 35 35 36 37 37 38 39
41 42 42 43 43 43 44 44 43 42 41 39 38 37 39 40 40 40 39 38 37 38 37 37 37 36 37 36 35 36 35 36 35 34 29 30 32 33 36 37 38 38 38
42 43 43 44 44 44 43 42 42 40 38 37 37 38 40 39 40 38 38 38 37 37 36 36 36 36 36 36 35 35 35 34 33 33 31 30 32 35 35 38 37 38 38

GFSSE_sfc_dewp_030.txt.gz
Dewpoint
65 65 71 71 71 71 71 70 70 70 70 69 69 69 68 67 67 67 67 66 65 62 61 61 60 60 60 61 62 64 64 65 66 66 66 65 65 65 67 67 67 62 67
66 65 70 71 71 71 71 71 70 70 69 68 68 68 67 67 66 66 65 65 63 60 60 59 59 59 59 60 61 62 63 64 65 65 66 65 67 66 66 66 67 64 66
66 65 66 70 71 71 70 70 70 69 68 68 67 67 66 64 63 63 64 64 62 59 58 59 60 60 61 61 61 62 62 62 63 64 66 57 61 67 67 66 66 65 64
66 65 64 70 71 71 71 71 70 68 67 66 67 66 64 63 62 62 62 63 63 60 59 60 60 60 61 61 61 61 63 62 61 63 58 58 58 66 66 64 63 63 65
66 64 66 70 70 70 70 70 69 69 68 68 67 64 62 62 61 61 63 64 64 61 61 61 61 60 60 61 61 60 60 62 63 59 57 60 59 64 65 65 64 65 65
65 65 68 69 70 70 70 70 69 69 68 68 67 64 61 61 61 61 64 64 62 62 61 61 62 62 62 62 61 60 59 60 61 51 55 60 60 65 64 64 66 66 66
66 66 67 68 69 70 70 69 69 68 68 68 66 65 63 61 61 62 63 64 62 62 62 62 62 63 63 62 60 58 59 59 44 46 50 56 60 64 63 64 64 65 65
65 65 66 69 69 69 70 69 68 68 68 68 67 65 63 63 63 62 62 62 62 63 63 63 63 62 62 62 61 58 58 58 44 40 41 47 61 62 61 62 64 65 64
65 65 67 66 68 69 68 67 67 67 67 67 67 66 65 64 64 63 63 63 63 63 63 62 60 60 60 60 60 58 57 56 47 44 41 42 59 59 59 59 62 63 62
66 67 66 64 64 64 64 66 66 66 66 66 66 64 63 64 64 62 63 63 62 63 62 60 59 59 59 59 59 59 57 58 46 45 43 50 58 58 58 59 59 61 62
66 66 65 62 62 62 59 62 64 65 65 65 64 64 61 58 58 58 62 61 61 60 59 58 57 57 58 57 57 56 58 44 46 44 44 57 57 58 59 59 59 62 62
65 66 63 63 62 60 55 59 59 57 59 60 60 61 60 62 61 59 58 60 58 57 57 57 55 56 51 44 44 50 42 45 43 44 45 55 55 56 57 58 59 59 61
63 60 61 62 61 57 56 56 56 58 60 62 63 63 64 63 63 59 55 54 55 55 49 49 46 45 48 45 43 43 42 41 39 38 45 53 53 55 56 57 58 59 59
55 55 56 58 60 59 56 56 59 59 61 62 63 64 64 62 62 58 54 54 54 50 50 48 46 48 46 44 43 43 43 41 38 37 43 53 53 53 55 56 56 56 56
50 53 54 57 58 59 60 60 61 62 63 64 64 62 61 59 59 55 54 51 51 50 48 48 46 44 44 43 42 43 41 42 42 39 39 52 51 51 52 52 52 52 52
51 54 56 55 58 58 60 61 62 62 63 63 63 62 60 58 58 53 51 49 49 48 47 45 45 43 42 42 42 43 43 42 42 42 38 41 48 46 48 49 49 49 49
51 56 57 59 58 59 60 61 59 57 58 61 60 60 59 56 54 52 51 50 48 47 47 44 44 43 42 41 42 40 39 40 39 41 40 39 42 46 44 45 46 46 46
52 57 59 60 60 60 59 59 59 58 59 59 58 56 53 51 51 51 49 47 46 45 44 44 43 43 40 40 38 34 35 34 34 40 39 41 39 36 43 44 42 43 42
54 58 60 61 60 59 58 58 58 57 55 55 52 50 51 50 49 47 46 46 46 44 45 43 40 39 36 36 34 30 32 31 29 32 38 40 39 38 37 42 43 42 39
57 59 60 60 60 59 57 57 54 54 51 48 48 49 47 46 47 46 45 47 45 42 40 40 40 37 36 35 31 28 32 31 32 37 37 33 36 38 37 37 35 34 41
59 60 60 61 60 58 57 52 50 49 48 49 46 46 46 45 44 46 44 44 42 40 41 41 38 37 34 37 36 30 30 32 40 38 35 33 34 33 36 33 33 32 32
59 59 60 59 59 58 55 52 50 49 49 47 45 46 45 44 44 44 44 42 40 38 40 40 39 35 33 35 36 34 26 27 28 34 31 32 34 33 31 32 33 34 34
58 59 58 58 57 54 52 51 51 50 47 44 44 43 43 44 43 44 43 41 41 39 36 39 38 36 33 33 35 33 30 25 28 28 30 28 33 29 30 30 31 32 35
57 58 57 54 51 50 51 49 48 46 45 47 47 44 42 44 43 40 39 41 42 40 40 38 34 37 35 32 31 30 33 31 26 25 26 26 27 26 28 27 29 29 31
52 54 55 52 48 49 48 47 48 47 46 44 44 42 44 44 42 40 41 42 42 41 40 40 38 39 35 33 31 30 29 27 26 24 21 21 21 21 23 25 25 27 28
47 50 51 48 46 47 48 48 48 47 44 41 40 38 35 36 38 40 42 43 43 42 40 39 39 38 36 34 31 29 27 25 24 23 20 19 18 19 21 23 24 24 25

GFSSE_sfc_dewp_033.txt.gz
Dewpoint
62 63 71 71 71 71 71 70 70 70 70 69 69 68 68 68 67 67 66 65 64 61 60 59 59 59 60 61 62 63 64 65 66 66 65 65 67 67 66 66 67 61 67
63 63 70 71 71 71 70 71 71 70 69 68 68 68 67 66 66 65 65 64 63 59 60 61 61 61 61 62 63 63 63 63 64 65 65 66 67 67 66 65 67 63 66
62 63 65 70 71 71 70 70 70 69 68 68 67 66 65 64 63 63 64 64 62 59 61 61 60 61 61 61 61 63 63 62 63 65 67 64 62 66 65 66 65 65 65
63 63 64 70 71 71 71 70 69 68 67 67 66 64 63 62 62 61 63 64 63 61 61 59 59 59 59 60 60 59 61 63 65 65 55 55 59 66 65 65 65 64 65
64 63 67 70 70 71 70 70 69 68 68 67 66 63 62 61 61 63 64 64 64 62 61 61 60 59 59 61 60 60 61 62 62 57 54 58 59 63 64 64 63 64 65
64 65 68 69 70 70 70 70 68 68 68 67 65 63 61 61 62 63 65 64 63 62 61 61 62 62 62 62 61 60 60 60 60 46 51 59 59 63 64 63 64 64 65
66 67 67 68 69 70 70 69 68 68 68 67 65 64 62 62 62 63 63 63 62 62 62 62 62 62 62 62 60 60 60 60 43 37 43 53 58 62 62 63 63 62 63
67 67 66 68 68 69 70 68 68 68 68 67 66 64 62 63 63 62 63 63 63 63 62 61 61 61 61 61 60 60 59 59 47 43 41 48 61 61 60 60 63 64 62
67 66 66 65 68 68 67 67 67 67 67 67 66 65 64 65 65 64 64 63 63 63 61 60 60 60 59 59 59 60 60 60 51 45 43 50 59 59 59 60 60 62 61
66 67 67 66 63 64 64 66 66 66 66 66 65 64 63 63 63 63 63 61 62 61 60 59 59 59 59 59 57 57 57 58 45 43 48 52 58 59 59 59 59 60 63
65 65 63 59 60 60 60 63 65 66 66 64 63 63 61 56 58 58 61 62 61 60 58 57 56 56 57 58 56 54 57 44 43 41 46 57 56 57 58 59 60 59 60
64 60 58 59 59 57 52 57 57 58 57 59 58 59 59 59 60 56 57 60 59 58 57 55 56 54 53 45 44 50 43 45 41 40 46 55 53 54 56 58 59 60 60
62 55 57 60 59 54 55 54 54 58 58 59 61 62 63 59 60 59 55 54 55 56 51 49 48 46 49 47 45 46 45 44 41 40 46 54 52 51 54 56 56 57 57
55 55 56 57 57 57 53 53 56 57 59 61 62 63 62 61 60 57 52 53 53 50 51 48 47 50 48 47 46 46 46 44 41 41 44 54 52 51 52 52 53 53 53
51 51 53 55 57 58 58 58 60 61 62 63 64 62 59 59 62 57 54 51 51 49 48 49 48 47 48 46 45 45 44 44 44 41 41 52 51 50 49 50 51 51 50
49 51 53 54 57 58 59 62 64 64 62 61 62 63 62 61 61 55 55 50 50 50 49 46 46 45 45 45 44 44 42 40 40 41 39 40 50 48 47 46 47 48 48
50 53 54 57 59 60 61 59 58 57 57 59 61 62 60 60 58 58 55 52 50 50 49 47 47 46 44 41 40 39 37 36 34 34 38 39 41 48 46 45 43 44 44
52 54 57 56 59 60 58 55 57 60 60 59 60 59 56 56 56 54 54 53 48 48 47 47 44 41 40 39 38 37 32 31 34 34 31 37 38 36 42 43 42 41 41
53 56 58 59 60 60 60 60 60 59 57 57 54 55 53 51 51 50 48 48 49 46 46 43 42 41 38 36 31 32 34 30 33 28 32 37 39 36 36 41 46 45 38
54 59 59 60 60 60 60 59 57 56 55 53 50 49 49 48 49 48 48 49 46 44 43 43 43 39 36 33 28 32 35 33 32 35 37 35 35 36 35 36 35 34 44
57 58 59 61 60 58 56 55 54 53 50 50 48 49 49 48 47 48 46 46 45 42 43 43 39 38 34 35 32 32 33 37 36 34 34 34 33 33 35 33 32 32 32
57 59 59 59 59 57 55 54 52 50 50 48 48 49 47 47 46 45 46 43 43 41 40 39 41 37 35 35 32 31 29 28 28 31 32 31 34 30 30 30 32 32 32
57 58 59 59 58 56 54 51 50 51 50 47 46 46 45 46 44 43 43 42 41 39 36 39 39 38 34 34 35 31 27 26 27 28 30 27 33 28 28 27 27 27 29
58 59 58 57 55 53 52 49 50 45 44 46 46 45 45 45 43 41 40 41 41 40 40 39 35 38 37 33 32 28 32 30 25 23 24 26 26 25 30 25 25 25 26
57 56 55 54 50 50 50 49 49 46 48 47 46 46 46 45 44 40 40 42 42 40 40 40 40 38 35 33 31 29 29 27 27 25 24 23 22 20 21 24 24 25 25
54 55 54 49 47 49 48 49 48 49 45 43 42 40 35 35 36 37 37 39 40 40 40 39 39 38 37 37 35 33 29 27 26 27 25 24 22 23 23 25 27 26 27

GFSSE_sfc_dewp_036.txt.gz
Dewpoint
61 67 71 71 71 71 71 71 70 70 70 70 69 69 68 68 67 66 66 65 63 61 62 62 62 62 63 64 64 64 64 65 65 67 67 67 67 66 66 67 67 62 68
62 66 70 71 71 71 71 71 70 70 70 68 68 68 67 67 66 65 65 64 64 62 62 62 62 62 62 62 63 64 64 65 66 67 67 66 67 65 64 67 67 65 67
61 66 67 70 70 70 71 70 70 69 68 67 67 67 66 65 64 65 65 64 64 61 60 60 60 60 60 59 60 61 63 64 65 66 67 63 63 66 65 67 67 67 67
62 63 67 70 70 71 70 70 69 68 67 67 66 65 65 63 63 64 65 65 64 61 60 59 59 58 59 59 61 62 63 63 63 64 62 59 60 65 64 66 65 64 66
61 64 68 70 70 70 70 69 69 68 67 66 65 64 62 63 63 64 65 65 64 61 61 61 61 60 61 62 62 62 62 61 61 59 57 59 59 64 63 62 62 63 65
62 66 68 69 70 70 70 69 69 68 66 65 64 64 63 63 64 64 65 65 63 62 62 62 61 62 63 63 62 61 61 61 60 49 53 59 59 63 63 63 65 64 64
67 67 67 68 69 69 69 69 69 68 66 65 65 65 64 63 63 64 65 65 64 62 61 61 61 61 63 62 61 61 61 60 53 48 52 57 59 61 60 61 63 64 63
66 67 67 68 69 69 69 68 68 67 66 65 65 65 64 64 65 65 65 65 64 63 61 61 61 61 61 60 59 59 59 59 50 48 51 56 61 61 60 61 63 63 63
67 66 67 67 68 67 66 67 67 67 66 66 65 65 65 65 65 65 65 64 63 62 61 60 60 60 60 59 57 57 58 59 53 50 50 55 61 60 60 60 60 62 63
66 67 66 66 66 65 64 66 66 66 65 64 64 64 63 63 64 64 63 64 63 61 59 58 57 57 58 57 56 55 57 54 44 43 51 56 59 58 59 59 60 61 62
65 65 65 63 63 63 64 65 65 66 65 63 63 63 62 59 61 59 62 62 61 60 58 56 56 54 58 57 57 57 55 45 45 43 51 58 55 54 56 59 60 60 61
62 64 62 63 61 60 56 61 61 61 60 59 59 61 62 63 60 57 59 61 60 58 56 55 54 57 54 48 48 52 47 48 45 44 51 56 53 52 53 56 57 57 58
62 62 60 62 61 56 55 57 58 59 61 62 63 64 63 63 62 61 58 55 58 58 55 53 52 50 51 50 49 50 48 46 45 44 52 56 52 51 52 53 54 54 53
55 57 58 59 60 58 57 57 60 62 63 65 63 63 64 63 62 59 58 58 56 55 52 54 52 52 50 50 48 49 48 47 45 45 50 55 52 50 50 51 52 52 52
54 56 57 59 60 60 61 62 63 63 64 65 64 63 64 62 63 60 58 56 55 54 51 49 49 48 50 48 48 47 45 43 41 43 45 53 53 49 49 49 49 49 49
52 54 56 57 61 60 63 63 63 65 65 63 63 63 62 61 61 60 55 53 52 50 51 49 50 50 48 47 43 43 44 41 37 40 40 45 52 50 48 47 46 45 45
50 53 55 58 60 63 62 61 59 58 59 61 62 62 61 60 58 56 54 53 51 50 51 50 49 47 45 43 41 41 41 35 35 39 37 36 48 50 48 43 42 42 43
51 52 57 58 62 60 59 58 58 60 60 60 60 59 57 55 55 55 53 52 51 51 49 49 47 44 43 42 39 38 38 36 34 37 35 39 41 39 48 46 44 41 42
52 55 58 61 61 59 60 60 61 60 58 57 56 55 54 53 53 52 52 52 52 50 49 46 46 45 40 38 33 33 38 37 37 33 37 38 39 39 39 44 47 45 41
55 58 59 61 61 61 60 60 58 57 56 56 54 53 51 51 52 52 52 51 50 47 47 46 45 42 40 39 34 34 36 38 35 37 37 39 37 37 37 38 36 36 43
59 59 60 60 60 59 58 57 56 55 53 53 52 52 52 51 50 50 50 49 47 46 45 43 42 41 40 40 36 34 35 34 32 35 34 34 34 34 35 36 33 33 32
59 59 60 59 59 58 57 57 57 54 53 52 52 52 51 50 49 48 47 46 46 44 43 43 42 41 39 39 36 35 31 31 33 31 33 32 34 33 31 29 31 31 31
59 59 60 59 59 58 58 55 54 53 53 50 50 49 49 49 48 45 45 44 44 43 42 42 41 40 37 37 38 34 30 28 29 31 30 31 32 32 32 30 26 29 29
60 60 60 59 58 58 56 53 52 50 48 49 49 49 48 48 46 44 43 43 44 44 43 43 39 41 38 37 36 35 35 33 28 25 27 29 30 26 28 30 28 28 28
59 60 60 59 58 56 53 53 53 52 52 51 50 50 49 49 48 45 44 44 44 44 43 43 43 42 40 38 36 35 34 33 30 28 25 26 27 27 27 28 30 29 28
58 59 60 58 52 52 52 52 52 52 49 49 48 47 45 42 42 43 41 43 43 42 42 42 41 40 39 39 38 37 35 33 31 29 27 27 27 27 28 27 28 28 29

GFSSE_sfc_dewp_039.txt.gz
Dewpoint
68 70 71 72 71 71 71 71 71 70 70 70 69 68 67 67 66 65 65 65 65 63 63 63 62 62 63 63 64 65 65 66 68 68 67 66 66 65 65 67 67 64 67
69 70 70 71 71 71 71 71 70 69 69 68 68 67 67 66 66 65 66 65 64 61 61 61 60 60 60 60 60 62 63 65 66 67 67 66 66 66 66 66 67 66 67
68 69 69 70 71 71 71 70 70 69 68 67 66 66 66 66 65 66 66 64 64 61 60 59 58 59 59 60 62 63 64 64 64 66 66 63 62 65 64 67 66 67 66
68 68 69 70 70 70 70 69 69 67 67 66 66 65 66 65 65 66 66 65 64 61 60 60 60 60 60 61 63 63 63 64 65 66 61 60 62 64 63 62 62 63 65
66 67 69 69 69 69 69 69 68 67 66 66 65 65 64 64 64 64 65 64 64 61 61 61 60 60 61 61 61 61 62 62 64 60 59 60 60 62 64 62 62 62 63
66 68 68 68 69 69 69 69 67 66 65 65 65 66 64 64 64 64 66 65 62 61 61 60 60 60 61 60 60 60 60 61 58 55 57 60 59 62 61 62 64 63 63
67 68 67 67 68 69 69 68 67 66 65 66 66 66 65 64 64 64 65 65 63 61 60 60 60 61 61 61 60 58 59 60 50 53 56 58 59 61 61 61 62 62 62
66 66 65 66 68 68 68 67 66 66 65 65 66 65 65 65 65 65 65 65 63 61 60 60 61 61 60 60 60 59 59 58 51 53 56 57 62 61 61 61 62 63 64
66 64 66 67 67 67 67 66 65 65 65 65 65 65 65 65 65 65 65 64 62 62 60 59 58 58 58 58 59 58 57 57 46 51 52 57 61 58 59 60 61 62 62
65 65 67 65 64 64 65 65 65 64 64 64 64 64 63 64 64 63 64 64 63 61 57 56 55 56 57 55 59 57 56 53 45 51 53 56 58 55 58 59 60 60 60
64 64 65 64 62 64 64 64 64 64 63 63 63 62 61 60 61 59 61 62 61 59 56 55 53 57 58 56 57 56 54 46 44 50 51 58 55 53 56 57 57 57 57
62 64 64 63 62 61 61 62 62 60 59 59 59 60 60 60 59 56 60 61 60 58 55 56 54 56 54 48 47 52 47 45 44 44 51 57 53 52 53 55 55 54 54
61 62 63 62 60 57 59 60 60 59 59 59 60 60 61 60 59 58 57 57 56 57 52 52 51 50 47 48 47 48 48 46 45 44 53 55 52 51 52 53 52 52 52
61 61 60 60 57 55 58 58 58 60 62 62 62 62 60 62 61 58 55 56 55 54 50 49 48 47 48 48 47 45 44 42 41 42 52 55 53 50 51 51 51 49 48
59 57 56 57 53 54 57 60 61 62 63 63 63 61 59 58 59 57 55 53 51 50 47 47 48 49 47 45 42 42 42 40 35 36 46 54 54 51 49 49 47 46 45
56 55 56 56 56 60 62 62 63 63 62 62 62 61 60 59 56 53 52 50 49 48 49 48 47 45 43 43 41 41 40 36 34 34 37 46 54 52 49 46 44 44 44
54 55 55 56 60 61 60 58 58 58 60 60 61 60 57 57 55 53 51 48 48 49 48 47 44 44 42 41 39 37 38 36 36 36 36 36 50 52 50 44 43 42 42
53 53 55 58 60 58 57 58 59 59 59 59 59 55 53 53 52 51 50 48 49 49 48 46 44 42 40 38 35 33 37 36 37 35 34 36 44 45 50 50 42 42 41
52 54 57 60 58 58 58 59 59 57 58 57 55 53 52 52 51 49 49 49 49 48 46 44 43 41 37 37 34 34 35 36 35 35 34 37 37 38 39 45 44 42 39
55 55 60 58 59 58 58 58 58 56 56 54 54 52 50 50 51 51 50 48 47 45 44 43 41 40 38 38 33 34 35 35 35 35 33 32 33 34 36 34 34 34 41
57 58 59 59 59 58 58 57 56 54 53 52 51 50 49 50 48 49 49 48 45 44 41 41 40 38 38 39 34 35 33 33 31 32 33 32 34 32 31 32 32 33 32
56 59 59 59 59 58 58 57 55 52 51 50 49 50 49 48 48 46 45 44 42 41 41 40 39 39 38 37 34 34 30 30 32 30 32 30 31 31 30 29 28 30 31
56 59 59 59 58 57 58 56 53 51 51 49 49 48 47 48 46 45 44 42 41 41 39 39 39 38 36 36 36 33 30 28 30 30 28 29 30 29 29 29 28 28 27
58 59 60 59 59 57 58 53 50 50 48 47 48 48 47 45 44 43 42 42 42 42 40 41 40 39 38 35 36 35 34 32 29 27 28 28 29 27 28 28 28 28 28
59 60 60 60 59 58 57 51 50 50 49 49 49 47 46 45 44 43 43 42 41 42 41 40 40 41 40 37 35 35 34 33 31 28 27 27 28 28 29 28 28 29 27
60 60 59 58 58 57 52 51 50 49 47 46 47 47 47 45 42 40 39 39 39 38 37 37 37 38 38 38 37 37 35 33 31 31 29 27 27 28 28 28 28 28 29

GFSSE_sfc_dewp_042.txt.gz
Dewpoint
68 71 71 72 71 71 71 70 70 69 69 68 67 67 66 66 66 66 66 66 65 62 62 61 61 61 60 60 62 62 65 67 68 67 67 66 66 66 66 66 67 65 67
68 70 71 71 71 71 71 70 69 69 67 66 66 66 66 66 66 65 65 64 63 60 59 60 60 60 61 61 62 63 63 67 67 67 66 65 65 65 65 65 67 65 66
68 70 70 70 71 71 70 70 69 68 66 65 66 66 66 66 65 65 65 64 63 61 60 60 59 60 60 62 64 67 65 66 67 67 65 62 60 63 62 63 64 64 65
69 69 69 70 70 70 70 69 67 66 65 66 66 66 66 66 64 65 65 64 64 61 60 59 58 59 60 62 62 65 67 67 65 64 60 61 60 64 62 61 60 61 62
68 68 69 69 69 69 69 68 67 66 66 66 66 66 65 64 63 63 65 64 64 60 59 58 58 60 62 61 61 63 63 63 62 60 60 60 58 60 62 62 61 61 61
67 68 68 69 69 69 68 67 66 66 65 66 66 66 65 64 63 64 65 64 63 60 58 58 58 61 61 61 60 61 61 61 58 56 57 60 58 61 62 62 62 61 62
67 68 68 67 68 68 67 67 66 66 66 66 66 66 65 63 63 63 64 64 63 60 59 58 60 60 61 61 60 58 60 59 54 56 58 59 60 61 61 62 62 62 62
65 65 66 66 67 67 66 66 65 66 66 66 66 65 65 65 65 64 64 64 63 62 61 61 61 60 60 60 59 59 57 57 52 53 56 56 61 59 60 61 62 62 62
66 65 65 65 67 66 65 65 65 65 65 65 65 65 65 65 65 65 64 63 62 61 60 60 59 58 59 59 58 58 57 57 50 53 54 55 59 58 58 59 60 60 59
62 63 64 64 65 65 64 64 64 65 65 64 64 64 64 64 64 64 64 63 61 59 58 58 59 60 59 58 58 57 56 53 49 49 51 55 58 56 57 57 58 57 56
61 62 64 63 64 64 63 63 64 64 64 63 63 63 62 60 59 60 61 61 60 58 56 57 59 58 57 57 58 57 52 44 46 48 50 57 54 53 55 56 55 55 55
60 61 64 63 63 63 61 61 60 60 60 59 60 60 59 60 59 58 60 61 60 57 56 58 58 56 52 47 47 51 47 43 44 44 50 56 53 52 54 53 53 53 53
60 61 63 62 62 60 60 61 60 59 58 58 59 59 59 60 58 57 58 56 55 56 50 50 48 48 47 47 45 44 42 41 40 42 51 54 51 49 52 52 51 50 49
60 61 62 60 59 58 59 59 58 58 59 59 60 60 60 59 57 54 54 54 55 51 48 48 49 47 45 43 42 41 41 38 35 38 48 54 53 49 51 51 48 47 47
56 58 61 59 56 56 58 58 59 61 61 62 60 59 61 59 58 56 53 51 49 48 47 48 46 44 43 41 40 38 38 35 34 36 40 51 53 50 50 47 45 44 46
57 59 60 59 54 56 59 60 61 62 62 62 60 59 58 58 55 51 49 48 48 49 48 46 44 42 41 39 37 37 37 35 35 36 37 37 53 53 48 45 43 43 44
58 58 57 56 58 61 61 61 60 60 61 60 59 58 57 54 53 51 49 47 48 48 46 44 43 41 38 37 35 35 36 35 36 35 36 37 50 53 50 44 42 43 42
56 54 55 59 60 59 58 58 58 59 59 58 56 54 54 53 51 50 48 48 49 48 45 44 42 39 37 37 34 34 34 35 34 34 34 36 42 45 48 44 42 39 39
54 54 58 60 58 58 58 58 57 57 57 56 54 52 52 52 50 49 49 49 48 46 45 43 41 39 37 36 33 34 34 33 34 33 31 33 35 37 37 40 40 40 35
55 54 60 58 58 57 57 57 56 56 55 55 53 51 51 50 50 50 48 47 47 45 43 43 39 39 38 37 33 33 34 33 33 32 32 32 32 31 32 31 33 35 40
54 58 58 57 57 57 56 55 55 54 53 53 52 51 49 50 51 49 48 45 44 41 41 41 39 37 37 37 33 35 34 33 32 31 31 31 30 29 30 29 31 31 31
55 58 58 57 57 56 57 56 55 54 53 52 51 49 50 49 48 46 45 43 41 41 40 39 38 38 38 37 33 33 30 31 32 30 29 30 28 29 29 27 27 27 28
56 58 58 58 57 57 57 56 53 51 50 49 49 49 48 48 46 45 44 42 41 40 39 38 38 38 35 36 36 33 30 28 30 30 28 29 28 28 28 27 27 26 27
58 59 58 58 57 57 57 55 52 49 48 49 48 47 47 47 45 44 43 42 42 42 40 41 40 39 38 36 36 35 33 33 30 29 28 28 29 28 28 28 28 27 28
58 59 59 58 58 56 57 55 52 50 49 48 48 47 46 44 44 43 43 42 41 41 39 37 37 37 39 37 36 34 34 33 31 29 28 27 29 29 29 29 28 29 28
59 59 59 59 58 58 57 52 52 49 48 48 47 46 45 45 41 40 39 39 38 37 36 36 35 35 36 37 37 36 35 33 32 31 30 30 28 28 28 29 28 29 29

GFSSE_sfc_dewp_045.txt.gz
Dewpoint
68 70 71 71 71 71 70 70 69 68 67 66 66 66 67 67 66 66 66 65 64 62 62 61 61 62 63 63 64 67 67 67 67 67 66 65 65 65 66 66 66 64 66
69 70 70 71 71 71 70 69 68 67 66 64 65 67 67 66 66 65 65 64 63 61 61 61 61 63 65 64 63 66 67 67 67 66 64 63 63 62 62 62 65 64 66
69 70 70 70 70 70 70 69 67 66 64 64 65 66 66 66 65 65 64 64 64 63 61 60 61 64 66 66 66 67 67 66 66 66 64 61 59 62 61 61 62 61 63
69 69 69 70 70 70 69 68 66 65 64 65 66 65 65 64 65 65 65 64 63 63 61 60 59 61 64 66 67 67 65 65 65 63 60 59 58 61 61 61 61 61 61
68 68 69 69 69 69 68 67 66 66 66 66 66 65 65 64 64 64 65 63 62 62 61 60 59 60 62 64 64 64 64 62 61 59 59 58 58 60 62 62 61 61 61
68 68 68 68 68 68 67 67 66 67 66 66 66 66 65 63 63 64 64 63 63 61 59 59 60 61 60 62 62 61 61 60 59 57 58 60 58 61 61 62 62 62 62
68 68 67 67 68 68 67 66 66 66 66 66 66 65 65 64 63 64 64 63 63 61 60 60 61 61 60 60 60 61 60 59 54 55 56 58 57 60 60 62 62 62 62
67 66 66 66 67 67 66 66 66 67 66 66 66 65 65 64 64 64 63 63 62 62 61 61 60 60 60 60 58 60 59 57 52 53 54 54 60 58 59 60 59 59 59
64 64 64 64 65 66 65 65 66 66 66 66 65 65 65 64 63 63 63 62 62 61 61 61 60 59 59 59 59 58 58 56 49 51 52 54 58 57 57 58 57 57 56
62 62 62 62 63 64 63 65 65 65 65 65 65 65 64 65 64 63 62 61 61 60 61 60 61 59 59 59 59 56 54 53 47 48 50 54 56 56 56 56 56 55 55
60 61 61 61 63 63 62 63 64 65 65 64 64 64 62 61 61 59 60 60 60 60 61 61 59 57 55 57 57 55 49 43 43 47 49 57 54 54 55 55 54 54 53
58 60 61 61 61 63 61 62 61 61 61 60 60 60 60 59 56 59 60 61 59 59 60 58 57 55 49 44 45 47 41 38 39 46 50 56 52 52 53 54 53 51 50
58 60 62 60 63 62 59 60 59 59 58 58 59 59 60 59 57 58 57 54 54 53 48 49 47 46 43 42 42 41 38 36 36 41 50 54 52 48 52 51 50 50 49
57 58 61 61 62 60 60 60 58 57 58 58 58 58 59 58 55 54 53 54 50 49 48 47 46 44 42 40 38 38 35 35 35 37 40 51 53 46 50 49 47 48 47
57 58 62 61 60 58 58 58 58 58 59 61 61 61 60 58 55 54 53 51 48 48 47 45 43 42 40 37 37 36 35 35 35 36 37 44 51 49 49 47 44 47 44
58 60 61 60 58 57 57 58 59 61 61 60 59 59 59 58 55 52 49 48 48 48 45 44 41 39 37 35 36 36 34 35 34 34 36 38 51 53 48 45 44 45 43
55 57 60 60 56 56 57 59 61 61 61 59 58 58 56 54 51 49 48 48 49 46 44 42 39 38 36 35 34 34 34 35 34 33 36 44 48 50 49 43 43 43 40
56 58 59 59 56 59 60 59 59 60 59 58 56 56 54 52 50 48 48 48 48 45 44 42 39 37 37 35 33 33 34 34 33 32 33 36 40 45 44 43 38 35 35
57 57 57 58 58 59 58 58 58 58 57 56 53 53 52 51 50 48 49 50 47 45 44 41 40 38 36 35 33 33 33 33 33 31 32 31 32 33 33 36 40 40 35
57 55 58 59 58 58 57 56 56 56 55 54 52 51 51 50 49 49 48 47 45 44 43 41 39 39 37 36 32 34 34 33 32 31 30 30 29 30 30 30 32 36 36
55 57 58 57 57 57 56 55 54 54 53 53 52 51 50 49 50 48 47 46 43 41 41 39 38 36 37 36 33 34 34 33 31 31 30 29 27 28 28 29 30 29 28
54 57 57 57 57 57 56 55 55 54 53 52 51 50 49 50 49 47 45 43 41 41 39 38 38 38 37 36 34 32 30 31 31 31 29 30 27 28 27 26 26 26 27
53 57 57 57 57 56 56 55 53 52 51 50 49 48 49 49 48 46 44 42 40 40 39 38 38 37 36 36 36 34 31 29 30 31 29 29 28 28 28 27 26 26 27
53 56 57 57 57 56 56 54 52 50 51 51 49 48 48 48 46 44 43 42 41 41 40 41 40 39 37 36 36 36 33 32 30 30 29 28 29 28 28 29 28 28 28
54 57 57 58 57 56 56 56 54 52 50 49 48 47 47 45 44 43 43 42 42 41 38 36 36 36 39 37 36 34 34 33 32 31 29 29 29 30 30 30 29 29 28
56 58 58 58 57 56 56 56 54 52 49 49 47 46 45 43 42 41 40 39 37 37 36 35 34 33 34 35 36 35 35 33 32 31 29 29 29 30 29 29 29 28 29

GFSSE_sfc_dewp_048.txt.gz
Dewpoint
68 70 70 71 70 70 69 68 68 68 67 67 67 67 66 66 67 66 66 65 65 64 63 63 64 64 66 67 66 66 66 66 66 66 64 63 63 63 64 65 65 64 66
69 69 70 70 70 70 69 68 67 66 66 66 67 67 67 66 66 65 65 65 65 63 64 66 66 65 65 66 67 67 66 66 66 65 64 63 62 62 62 61 63 61 65
68 69 69 70 70 69 68 67 66 66 66 65 66 66 66 65 65 65 64 64 64 64 66 66 66 65 66 66 67 66 65 64 65 64 62 59 58 61 61 61 62 61 60
69 69 69 70 69 68 67 66 65 65 65 66 66 65 66 65 65 65 64 64 64 64 63 65 67 67 67 67 66 65 63 63 63 62 59 59 58 61 62 62 61 61 61
68 68 68 69 68 68 67 66 65 66 66 66 66 64 64 65 65 65 64 63 64 63 61 62 64 64 64 64 64 63 62 62 62 59 59 58 58 59 62 62 62 62 62
68 68 68 68 68 67 66 66 66 66 66 66 65 65 65 65 64 65 64 63 64 63 59 59 61 62 62 62 63 61 61 60 59 57 57 58 58 60 61 62 61 62 62
67 67 67 67 67 67 67 67 67 66 66 66 66 65 65 65 64 64 63 63 63 63 62 60 61 61 62 62 61 60 60 59 54 54 55 57 57 59 59 59 59 60 60
66 67 67 67 67 66 66 67 67 66 66 66 65 65 65 65 64 64 63 62 62 62 62 61 61 60 60 61 60 59 58 55 52 52 54 55 58 58 58 57 57 57 57
65 64 64 63 65 66 66 66 66 66 66 66 66 65 65 64 63 63 62 62 62 62 61 60 60 60 60 59 59 59 57 54 48 50 51 55 57 56 56 56 56 56 56
59 61 61 62 63 63 64 65 66 66 66 65 65 65 64 64 63 62 62 62 62 62 61 61 60 60 59 58 57 54 52 48 46 48 50 55 56 55 55 55 55 54 54
58 56 58 60 63 62 63 64 65 66 65 65 64 64 62 61 59 56 60 61 61 61 60 59 57 56 56 55 53 48 44 40 45 48 50 58 54 54 54 54 53 52 51
57 58 59 59 61 62 61 62 62 62 61 61 61 59 59 59 57 59 60 60 61 60 59 57 54 50 46 42 42 42 37 37 39 47 51 55 50 53 53 52 51 50 50
56 55 56 56 57 61 59 60 60 59 59 59 59 59 59 57 58 58 54 53 52 52 47 46 44 42 41 40 38 37 37 37 37 38 45 53 53 50 52 51 50 49 49
55 55 55 56 55 61 60 59 59 58 58 58 58 59 58 55 55 54 53 52 49 49 46 45 44 41 39 39 37 37 37 36 36 37 38 48 52 46 51 48 48 47 47
56 57 56 56 60 61 59 59 58 58 57 58 57 58 59 55 53 53 53 49 48 47 45 43 41 38 37 37 37 36 36 36 36 37 38 47 52 50 50 46 45 46 45
55 57 59 61 61 59 58 58 58 58 59 60 59 59 59 58 55 53 50 48 48 46 44 42 39 37 36 36 36 36 36 34 34 37 41 48 54 54 48 45 43 44 44
55 56 60 61 58 57 57 57 58 59 61 59 59 59 59 57 54 50 48 48 47 44 42 40 38 37 36 35 34 34 35 34 34 35 39 45 46 50 48 45 44 42 40
57 58 60 61 57 56 57 58 59 60 59 58 57 56 55 54 53 48 48 48 46 45 42 40 38 37 36 34 33 34 34 35 33 33 33 38 42 38 42 42 40 36 34
56 57 59 59 56 57 58 58 58 58 58 57 56 54 53 51 49 48 49 48 46 45 43 41 39 38 36 34 33 34 34 34 33 31 31 31 34 34 32 39 42 39 36
56 58 57 58 57 57 57 56 56 56 56 55 54 53 51 50 49 48 49 48 45 44 42 40 39 38 37 35 32 34 35 33 33 32 32 29 30 32 31 33 35 35 35
56 56 57 57 56 57 55 55 54 54 55 54 53 52 51 49 49 48 47 45 44 43 41 39 38 37 37 36 34 35 33 34 33 32 32 30 30 30 31 31 31 29 28
55 56 58 57 57 57 57 54 54 54 53 54 53 51 50 49 49 47 46 44 42 41 40 39 38 38 37 36 34 33 31 32 32 33 31 31 30 30 29 29 29 30 30
55 55 57 57 57 57 57 55 52 53 53 52 50 49 49 50 49 46 44 42 41 40 39 38 38 37 36 37 36 35 31 29 31 33 31 30 30 30 30 29 29 30 30
55 55 57 57 57 57 56 54 52 52 51 52 50 48 49 49 48 46 43 41 41 41 40 40 39 38 38 35 37 36 36 34 31 30 32 30 30 30 30 30 30 30 30
54 55 56 57 57 57 56 55 53 52 53 51 49 49 49 46 45 43 42 42 41 40 38 37 37 37 39 37 37 36 34 34 32 31 30 31 31 31 32 32 31 30 30
54 55 56 56 56 56 56 55 54 53 52 50 50 48 45 44 43 42 41 39 38 37 35 36 37 35 35 36 36 36 35 34 33 32 30 30 30 32 31 31 31 30 28

GFSSE_sfc_dewp_051.txt.gz
Dewpoint
67 68 70 71 71 70 69 69 68 68 68 68 67 67 67 67 67 67 66 66 66 66 65 66 68 68 66 65 65 65 65 66 66 66 64 63 63 62 63 63 64 62 66
68 68 70 70 70 70 69 68 68 67 67 67 68 67 67 67 66 66 66 66 67 66 66 66 67 66 66 64 65 65 64 66 65 64 63 61 62 62 62 62 63 59 63
68 68 68 69 69 69 68 68 67 68 67 66 67 67 66 66 66 66 66 67 69 68 67 66 67 67 66 64 65 64 64 63 64 63 62 54 57 62 62 62 62 62 61
68 67 67 69 68 68 67 67 67 67 66 67 67 66 66 66 66 66 65 66 68 68 68 67 67 67 65 65 64 63 63 63 63 62 55 55 55 61 62 62 62 62 61
68 66 67 68 67 67 66 66 66 67 67 66 66 66 66 66 66 65 64 64 66 68 67 68 67 65 63 64 64 63 62 62 62 57 55 56 56 59 62 61 61 62 62
68 67 68 67 67 66 66 67 67 66 66 65 65 66 66 66 66 65 64 63 64 66 66 66 62 61 63 63 63 61 60 60 59 53 54 57 56 59 60 60 60 60 60
68 68 68 66 66 67 67 67 67 66 66 65 65 66 65 66 65 64 64 63 63 63 63 62 62 62 62 61 60 60 59 59 52 52 53 55 56 58 58 58 58 58 58
67 67 66 67 66 66 66 67 66 66 66 66 66 66 65 65 64 64 64 63 63 62 62 62 63 63 61 60 58 57 57 56 50 51 52 53 57 57 57 57 56 56 56
63 63 66 66 65 66 66 66 66 66 66 66 66 65 65 64 63 63 63 63 62 62 62 61 60 61 61 58 56 55 55 54 49 51 50 51 56 55 55 55 55 55 55
61 61 60 61 61 61 64 66 66 66 66 66 65 64 64 63 63 63 63 63 62 62 61 61 61 59 57 55 52 51 51 52 47 47 49 51 56 54 54 54 53 53 52
58 59 59 58 58 60 63 65 66 66 65 64 63 63 60 55 55 55 60 62 62 61 60 59 57 56 55 53 49 47 48 45 46 46 46 58 55 55 54 52 52 52 52
55 56 57 58 59 60 62 63 64 64 62 61 61 61 60 59 57 54 59 62 61 60 58 55 52 50 46 38 38 43 37 40 39 41 45 55 52 53 53 51 51 51 50
55 56 57 57 56 58 59 63 63 61 60 60 61 60 60 58 59 55 57 55 55 54 46 45 43 40 42 39 39 40 39 37 35 35 40 50 53 53 52 50 49 49 49
55 56 57 57 59 61 61 62 60 59 60 60 59 60 59 58 59 55 53 52 51 48 48 45 43 44 42 41 41 40 39 36 35 35 38 50 53 49 51 49 49 47 47
54 54 55 55 54 57 61 60 59 61 59 59 59 60 57 56 57 55 54 51 49 48 46 43 42 40 40 39 38 37 37 38 40 39 41 54 54 50 51 46 50 46 46
53 54 55 54 55 59 60 60 60 60 60 60 60 61 60 57 57 55 52 51 48 47 45 43 41 39 37 37 38 38 37 37 41 46 47 48 54 54 49 46 45 44 43
54 54 54 54 58 61 61 59 59 58 58 59 61 61 61 59 57 55 51 50 48 47 46 43 41 41 37 35 37 37 36 37 37 44 46 45 46 51 50 46 44 40 40
55 55 56 57 59 60 60 59 58 60 61 62 62 62 62 61 58 56 51 50 48 47 45 44 41 39 38 37 37 37 36 35 36 38 45 45 41 41 42 40 38 36 33
54 55 57 60 61 61 60 60 60 60 61 62 61 61 59 59 57 55 52 49 49 46 45 43 42 42 39 37 35 38 37 34 35 30 34 37 37 37 34 40 41 38 36
55 57 59 60 61 60 60 59 59 60 61 61 60 58 56 55 54 53 52 50 48 46 45 44 43 42 40 39 32 36 39 35 34 35 33 30 34 35 33 34 35 34 37
55 57 58 60 61 59 58 58 57 59 60 60 58 57 56 52 52 52 51 49 48 46 45 45 43 43 41 41 39 37 37 38 36 34 33 32 34 33 34 33 32 30 28
55 57 57 58 60 59 57 58 58 59 59 59 58 55 55 53 51 51 51 48 48 46 45 44 44 41 41 41 39 37 34 33 35 35 34 33 36 32 29 30 31 30 30
55 56 56 57 59 59 58 57 56 58 58 57 56 55 54 52 50 50 51 49 47 46 43 44 44 43 40 40 41 37 32 28 32 35 37 34 36 33 32 33 32 31 32
57 57 56 58 58 59 59 56 56 56 56 57 56 55 52 52 50 49 48 48 46 45 44 44 43 43 41 37 40 38 40 37 27 25 34 35 34 33 36 36 33 34 33
58 59 58 58 58 59 58 57 58 57 58 56 55 54 53 51 50 47 47 46 45 44 45 45 43 42 40 37 36 36 37 36 37 33 25 28 34 34 35 36 36 34 32
59 59 59 58 58 59 58 58 57 56 56 55 54 54 52 50 49 48 45 46 46 44 42 41 43 42 39 39 36 36 34 31 29 31 29 30 32 33 34 33 34 34 31

GFSSE_sfc_dewp_054.txt.gz
Dewpoint
66 66 70 71 71 71 71 70 70 69 69 68 68 68 68 68 68 68 68 68 69 70 69 67 67 65 65 65 66 66 65 65 66 65 64 63 63 63 63 64 64 62 66
67 65 70 70 71 70 70 69 68 68 68 68 68 68 68 68 67 67 67 68 68 69 68 67 65 64 64 64 64 64 63 64 64 64 64 62 63 63 63 63 64 60 63
66 66 67 70 70 69 69 68 68 68 68 68 68 67 67 67 67 68 68 68 68 69 68 67 64 64 64 64 64 63 63 63 64 62 62 52 57 62 62 62 63 62 62
66 65 64 69 69 68 68 68 68 68 68 68 67 67 67 67 67 69 69 69 68 69 68 66 64 64 64 64 64 63 63 62 62 62 51 52 54 61 62 62 63 63 62
67 65 66 68 68 68 68 68 67 67 67 67 67 67 67 67 67 68 69 68 68 69 67 65 64 63 64 65 64 62 61 62 61 55 51 53 54 59 61 62 61 61 62
67 67 67 67 67 67 67 67 67 67 66 66 66 67 67 66 66 66 67 68 69 68 66 63 62 62 63 63 62 61 61 60 58 49 52 56 54 58 59 59 58 58 59
67 68 67 66 67 67 67 67 67 66 66 66 66 66 66 66 66 65 66 67 67 66 63 61 61 61 62 61 59 59 59 57 47 48 51 53 56 57 58 58 58 58 57
67 68 67 67 67 67 67 66 66 65 65 66 66 66 66 66 65 65 64 64 64 64 64 63 62 61 60 58 57 57 57 57 47 46 50 52 56 56 57 57 56 56 56
65 66 65 65 66 66 66 66 66 66 66 65 65 65 65 65 64 64 63 63 62 63 63 62 61 60 58 55 55 55 56 54 45 46 46 50 56 55 55 55 54 54 55
62 64 64 63 65 65 65 66 66 66 66 65 65 64 64 64 64 63 62 63 62 62 61 60 60 59 54 53 53 53 54 53 42 42 46 52 55 54 53 53 53 53 53
60 60 59 59 57 60 61 64 65 66 65 64 63 62 59 54 54 55 60 62 62 62 60 58 56 55 54 51 50 50 49 38 38 39 43 57 55 54 53 52 52 52 52
57 58 58 56 54 57 61 61 63 62 58 58 57 56 52 55 53 55 60 62 61 60 58 55 53 53 51 40 38 46 35 36 33 34 42 54 54 54 52 51 51 50 50
56 56 57 57 59 59 59 59 61 64 60 58 60 56 56 54 55 55 56 53 53 54 45 45 46 43 45 41 40 39 36 33 31 29 41 51 53 54 53 51 50 49 49
54 55 57 58 58 58 59 59 59 55 58 57 56 58 57 55 54 55 52 53 52 49 49 48 46 47 44 43 41 40 38 33 32 31 41 51 53 53 52 51 49 47 46
54 55 55 56 55 59 59 59 59 59 56 54 56 56 55 54 55 53 54 52 51 50 48 47 46 43 43 42 39 37 37 38 39 35 41 55 52 52 50 48 48 47 46
55 55 54 54 55 55 56 55 57 59 57 57 55 56 58 56 57 54 53 52 50 49 48 47 46 44 42 41 39 38 37 35 38 42 40 46 54 54 49 46 46 44 44
51 50 49 52 55 57 57 57 57 54 53 53 55 61 59 57 57 56 54 52 50 50 50 48 46 44 41 38 38 37 34 36 37 40 40 42 46 50 51 47 45 41 40
50 51 52 51 55 56 58 57 55 53 54 53 58 62 62 60 58 57 53 53 52 51 48 46 45 45 42 40 39 37 36 35 37 38 42 42 42 39 44 41 39 36 34
52 52 53 53 54 56 59 59 56 58 55 55 58 60 61 62 61 57 54 54 54 48 47 46 47 46 43 40 36 39 40 36 35 28 36 40 40 35 31 41 39 38 36
53 52 52 54 57 59 59 60 56 54 55 57 60 62 61 61 62 59 56 55 50 47 47 47 47 45 43 41 31 36 42 38 35 35 33 30 33 36 34 32 33 34 38
54 55 55 56 58 59 58 56 55 53 55 57 59 61 60 59 60 59 56 54 51 48 49 51 47 46 42 43 41 41 41 41 39 34 34 32 32 34 34 32 32 29 30
53 55 55 55 57 58 57 56 54 52 54 57 60 60 60 58 57 56 55 53 51 49 49 50 48 44 43 43 42 41 40 38 37 36 35 34 36 34 31 32 34 34 33
53 55 56 57 58 59 58 57 54 55 56 57 59 60 59 58 55 54 55 53 53 50 48 49 48 46 42 43 42 41 38 36 34 35 37 36 36 35 33 32 35 35 34
53 54 54 54 55 58 59 56 55 51 52 55 58 60 58 57 55 53 53 53 52 50 49 48 46 46 44 41 42 39 39 36 33 32 33 35 36 35 36 34 35 35 35
55 55 55 55 55 57 59 59 56 54 52 55 60 59 57 57 56 53 52 52 52 50 49 48 47 47 44 43 39 40 39 37 37 34 28 26 27 31 32 35 35 34 34
57 58 58 56 55 57 59 60 60 58 57 57 58 58 57 56 55 53 50 50 51 49 49 48 48 44 44 42 39 37 37 34 30 27 27 28 28 29 31 33 33 32 32

GFSSE_sfc_dewp_060.txt.gz
Dewpoint
64 68 71 71 71 71 71 71 71 70 70 70 70 70 70 70 70 70 70 70 69 68 66 66 65 64 64 64 64 65 67 66 66 66 65 63 64 64 64 65 65 61 66
66 68 71 71 71 71 71 71 70 70 70 70 70 69 69 70 70 70 70 69 68 66 65 64 64 63 62 62 63 64 64 66 66 65 64 63 63 64 64 63 64 61 63
66 68 70 71 71 71 71 70 70 70 70 70 69 69 69 69 70 70 69 68 67 66 64 64 63 63 62 62 63 64 64 64 64 65 62 58 60 62 64 64 64 64 63
67 67 69 70 71 71 70 70 69 69 69 69 69 69 69 69 70 70 69 67 67 66 64 64 64 63 62 62 63 63 64 64 64 63 53 54 56 62 60 62 62 62 61
65 66 70 70 70 70 69 69 68 68 68 68 68 69 69 69 70 70 69 66 66 65 64 63 63 62 62 63 63 62 61 62 62 55 53 54 55 58 60 59 60 60 60
66 68 69 69 69 69 69 69 68 68 67 67 68 69 70 70 70 69 68 66 66 65 63 62 61 61 61 62 61 61 61 60 58 51 52 55 55 58 59 58 58 59 58
67 68 68 68 68 68 69 69 68 67 67 67 69 69 70 70 69 69 68 66 65 64 61 60 59 59 59 60 59 59 59 60 50 51 52 53 54 57 58 57 57 57 57
67 67 67 68 68 67 68 67 67 67 67 67 68 68 69 69 68 68 66 65 64 63 62 60 59 58 57 57 56 55 57 59 51 50 51 53 55 56 57 56 56 55 55
66 64 65 65 66 66 66 66 66 66 66 66 66 67 67 67 67 66 65 65 64 63 61 59 58 58 56 56 55 55 56 57 50 51 50 52 55 55 55 55 55 55 55
64 64 64 63 64 64 63 62 64 65 66 66 65 65 64 65 65 65 64 64 63 62 60 57 57 57 55 53 52 51 53 55 47 50 52 53 55 55 55 55 54 54 54
63 63 63 63 63 62 62 63 63 63 65 64 63 63 61 60 60 59 63 63 62 62 60 57 56 56 52 50 52 50 52 40 44 50 53 58 55 54 54 53 53 53 53
57 61 62 62 60 60 57 57 59 62 62 60 58 57 55 58 57 60 62 62 61 61 59 58 56 55 52 42 42 49 39 40 42 52 55 59 55 54 53 52 52 52 51
56 57 59 60 59 59 60 60 59 59 60 59 60 58 59 57 58 58 56 56 56 56 48 51 52 49 50 47 46 44 42 38 40 44 55 58 56 53 53 52 51 51 50
55 56 58 59 58 59 58 58 59 59 58 58 59 60 60 58 56 55 55 55 53 52 49 51 53 51 48 46 44 42 41 41 41 40 53 56 57 54 53 52 50 49 48
55 57 57 57 56 56 56 58 57 58 58 59 59 59 59 59 59 56 56 54 53 54 54 53 52 50 48 45 43 40 40 40 40 44 48 55 54 55 53 51 50 48 46
54 55 56 56 55 55 55 56 56 58 55 56 59 59 59 59 61 57 58 56 56 55 54 53 51 50 49 45 42 39 39 40 40 43 46 53 55 57 53 52 50 49 48
54 55 55 56 55 55 55 55 55 56 54 56 59 59 59 59 60 58 58 58 56 55 54 53 52 50 48 46 43 41 40 38 39 39 44 47 51 53 52 51 49 46 43
52 52 55 56 55 55 55 54 55 53 56 55 58 59 59 60 60 59 57 57 56 56 55 53 51 50 50 47 43 41 39 39 37 37 41 44 46 47 52 52 47 44 39
52 52 53 55 54 53 55 54 54 57 56 55 55 58 60 59 60 59 58 57 58 56 54 53 51 52 50 47 43 42 42 41 38 35 36 40 41 41 46 51 48 46 41
52 53 54 54 54 54 53 52 55 58 55 56 56 59 61 60 59 59 58 59 58 56 54 52 52 52 51 48 39 39 45 43 42 41 38 36 39 36 36 41 42 41 45
52 53 53 54 55 54 53 53 54 54 55 56 56 57 61 61 61 61 59 60 59 56 53 53 52 50 50 47 44 44 46 46 45 42 41 40 38 38 38 38 37 36 40
51 52 52 53 54 54 54 54 55 53 54 55 55 57 61 62 61 61 61 60 59 57 54 53 52 50 50 50 45 45 42 45 45 44 42 41 40 39 38 38 37 35 35
50 51 52 53 53 54 55 53 53 53 53 52 54 55 60 61 61 60 61 60 59 58 55 54 52 50 48 50 47 45 43 41 41 44 43 42 42 41 39 38 37 36 37
52 53 53 53 53 53 53 51 51 50 49 51 54 55 59 61 60 59 59 59 59 58 57 55 52 51 50 47 48 46 43 41 38 38 42 42 43 40 39 40 37 38 37
53 53 52 52 52 53 53 55 55 53 52 53 55 56 60 60 59 59 59 58 58 59 57 54 53 52 51 50 47 42 40 42 42 41 39 38 39 40 39 42 40 39 37
53 54 54 54 54 54 54 55 57 57 56 53 54 56 59 59 59 59 59 58 58 57 54 54 54 53 52 48 44 42 41 40 40 38 37 36 34 35 35 36 40 37 36

GFSSE_sfc_dewp_066.txt.gz
Dewpoint
69 70 71 72 72 71 71 70 70 70 70 70 71 71 71 70 70 69 69 68 68 67 64 65 67 66 65 65 65 66 66 66 65 65 64 63 64 64 63 63 64 63 66
69 70 70 71 72 71 70 70 70 70 70 70 70 71 70 70 69 69 68 67 67 65 63 65 65 65 65 65 66 66 65 65 64 65 65 64 64 63 63 63 63 61 65
65 70 70 71 71 71 71 70 70 70 70 70 71 70 70 69 69 68 67 67 66 64 63 64 64 64 65 65 65 66 65 65 64 63 61 58 58 62 62 63 63 63 64
60 61 67 70 70 70 69 70 70 70 70 70 70 70 69 69 68 67 67 66 65 64 62 64 64 63 61 62 63 65 63 62 62 59 56 55 56 60 60 60 60 62 62
60 60 61 69 69 70 70 69 69 69 69 69 70 70 69 68 68 67 66 65 65 64 62 63 62 60 60 63 63 63 62 61 60 56 55 55 55 58 59 59 60 61 60
62 63 66 68 69 69 66 69 69 69 68 69 69 69 69 68 68 67 66 65 64 62 61 61 60 59 61 63 63 62 61 60 57 54 54 56 54 59 59 58 60 60 59
67 68 67 67 66 68 70 70 69 68 68 69 69 69 68 68 68 67 65 64 63 62 58 57 58 60 60 62 62 61 60 59 53 53 53 54 54 58 58 58 57 57 56
64 63 63 63 62 63 68 68 67 67 68 69 69 68 68 67 67 66 65 64 63 61 59 58 59 60 59 61 61 60 59 58 53 53 53 53 56 57 57 57 56 56 55
64 62 63 62 62 62 62 67 67 67 68 68 67 67 67 66 65 65 64 63 62 61 59 58 58 58 58 58 60 59 58 57 52 52 52 53 57 57 57 56 56 55 55
62 63 63 62 61 61 61 62 62 64 67 67 66 66 65 65 65 64 63 62 62 60 58 58 57 57 56 58 59 59 58 56 51 52 52 53 56 56 56 56 55 55 54
62 62 62 61 60 60 61 60 60 61 65 66 65 65 63 63 61 60 61 61 61 60 58 57 57 56 53 56 59 58 56 52 52 53 54 58 55 55 55 55 54 54 53
60 60 60 60 60 60 61 60 59 63 62 63 62 62 62 60 59 59 61 61 60 59 57 56 55 54 49 41 45 52 51 52 53 53 55 58 55 55 54 54 54 52 51
59 60 60 59 59 59 58 58 60 61 61 60 60 60 60 60 59 58 57 56 55 54 49 48 48 46 43 40 40 44 50 53 54 54 56 58 56 54 54 53 53 52 50
57 60 59 58 58 58 58 58 58 59 58 58 58 59 58 57 56 55 53 51 49 48 48 48 48 45 42 40 39 41 44 49 52 54 57 58 57 54 54 53 52 51 50
56 58 57 57 57 57 56 55 58 59 59 58 58 57 56 54 53 53 51 49 48 47 49 49 47 44 43 40 39 39 40 45 50 53 54 58 57 55 53 53 52 51 48
55 56 58 57 57 58 57 57 58 59 58 58 57 56 55 54 53 51 50 50 49 49 51 49 47 45 42 38 37 38 39 39 44 49 52 55 57 57 55 53 52 50 49
55 55 56 57 57 57 57 57 57 57 56 56 58 57 56 54 54 53 51 51 51 52 51 49 48 48 44 41 38 37 39 41 43 44 49 51 54 57 57 56 53 51 50
54 54 56 57 56 56 55 55 55 52 54 56 58 58 57 56 55 54 54 54 54 53 52 51 50 48 45 43 40 39 37 38 41 43 46 48 51 52 54 57 55 52 49
54 54 55 54 53 53 53 53 53 52 51 51 58 57 56 57 57 56 56 56 55 54 52 51 49 49 47 45 41 39 39 37 36 38 44 46 49 49 50 54 54 53 51
54 54 55 54 53 53 53 52 51 54 54 54 54 56 56 56 58 57 56 56 54 54 52 51 49 50 50 48 42 40 40 39 37 38 41 44 47 48 48 48 49 48 51
53 54 53 53 52 51 50 50 49 47 51 53 53 54 57 57 59 57 56 57 55 53 52 51 50 49 49 49 44 42 42 42 39 39 37 38 41 43 47 46 46 43 44
52 53 53 52 52 51 50 49 48 47 51 53 53 54 56 58 58 58 58 57 56 55 53 51 50 49 49 49 45 44 40 43 45 42 40 38 37 38 41 44 43 40 37
51 52 52 52 52 51 51 49 50 51 53 53 53 53 55 58 58 57 57 58 58 57 54 53 52 49 48 50 46 45 44 43 43 44 43 42 39 39 39 38 38 38 37
50 51 52 52 51 51 51 49 48 48 48 49 49 51 54 58 58 59 59 58 58 58 56 54 53 51 50 49 51 49 46 44 42 42 43 43 42 40 40 39 39 38 36
50 51 52 51 51 50 49 49 48 49 50 52 53 53 53 57 58 59 59 59 59 58 57 56 53 52 52 51 51 48 46 47 46 44 42 42 40 42 42 41 40 39 37
51 51 51 51 50 50 49 49 49 50 52 53 52 52 53 56 58 59 59 58 57 57 55 55 54 53 51 52 51 48 47 46 45 44 43 42 38 38 37 38 40 41 40

GFSSE_sfc_dewp_069.txt.gz
Dewpoint
69 70 71 71 71 71 71 71 70 70 70 70 70 70 70 70 70 70 69 68 68 67 66 66 66 65 64 65 65 65 66 65 65 65 64 64 64 64 63 65 66 63 66
69 70 71 71 71 71 71 71 70 70 71 71 70 70 70 69 69 69 68 67 67 67 66 66 65 65 65 64 64 64 64 66 66 66 65 64 62 62 62 63 66 64 65
70 70 70 71 71 70 70 70 70 70 71 71 70 70 69 69 68 68 67 66 67 67 66 65 64 65 64 64 65 63 62 62 63 63 62 55 58 63 63 63 64 64 63
64 69 70 70 70 70 69 70 70 70 71 70 70 69 69 68 68 67 66 66 67 67 65 65 64 64 65 66 65 63 62 61 61 60 56 56 57 62 62 63 62 61 61
62 61 69 70 69 69 68 68 68 68 70 70 69 69 68 68 68 67 65 65 66 66 64 62 61 62 64 65 64 62 61 60 59 56 55 55 55 59 61 61 60 61 60
62 61 63 68 68 68 67 68 68 68 69 69 69 69 68 68 68 66 65 65 66 65 62 59 61 64 64 63 63 61 60 59 57 54 55 56 55 58 60 59 59 58 57
63 64 65 64 62 62 63 66 69 68 69 69 68 68 68 68 67 66 64 64 64 63 60 61 64 64 63 62 61 60 60 58 53 53 53 54 54 58 59 58 57 56 56
64 65 63 62 61 62 61 64 67 66 68 68 68 67 67 67 66 65 64 63 62 61 61 61 63 63 62 61 61 60 59 57 53 53 53 53 56 58 58 57 57 55 55
63 62 62 61 61 61 61 62 66 64 67 67 67 67 66 66 65 64 63 62 61 59 59 59 61 62 62 61 60 59 59 57 52 52 53 53 57 57 57 56 55 55 55
62 62 61 61 60 60 60 61 64 64 67 66 66 66 65 64 64 63 62 61 59 58 59 59 60 60 61 60 60 59 58 56 52 52 53 53 57 57 56 56 55 54 54
61 62 61 60 60 60 60 61 60 61 66 66 66 65 63 62 60 58 60 60 59 59 58 58 58 61 60 60 59 58 55 52 52 53 54 58 56 56 56 55 54 53 53
59 60 61 60 60 60 60 60 58 60 62 64 63 62 61 59 58 58 60 59 58 58 58 58 55 56 56 54 56 55 52 52 53 53 55 58 56 56 55 54 53 53 52
59 59 59 59 59 59 58 59 59 61 62 62 62 61 59 59 59 57 55 55 52 51 46 47 44 41 41 46 49 51 52 53 53 53 57 58 56 55 55 54 52 52 51
59 58 59 59 59 59 57 56 57 61 61 61 61 59 58 57 56 55 52 50 47 48 47 46 44 42 40 44 47 49 51 52 53 54 57 58 57 55 54 54 53 51 50
57 58 58 59 59 58 57 56 59 59 59 60 61 58 56 55 53 52 50 48 47 49 48 46 44 42 40 39 42 46 49 51 53 54 55 58 57 55 54 53 53 51 50
56 57 58 58 58 58 57 57 59 59 59 59 59 56 55 53 52 50 48 47 48 49 49 47 44 43 39 38 39 40 43 49 51 53 53 55 57 57 55 53 52 52 50
55 57 57 57 58 57 56 57 58 59 59 58 57 55 54 53 50 49 49 49 49 50 49 48 46 44 41 38 37 39 40 42 46 50 52 53 55 57 57 56 53 52 51
55 56 57 58 57 57 57 57 57 56 58 57 56 55 54 53 52 50 50 50 52 52 50 49 48 46 43 40 38 38 40 41 41 43 48 50 52 54 56 57 57 54 52
54 56 56 57 57 56 55 55 54 53 55 56 57 55 55 54 54 51 52 52 53 53 51 50 49 48 45 43 40 39 38 39 42 42 43 46 49 52 51 55 56 55 54
54 55 55 56 56 55 54 54 53 54 52 54 56 56 56 55 56 55 55 55 54 53 52 51 49 49 47 46 41 39 39 39 37 40 43 44 47 50 50 50 52 51 53
54 54 54 54 54 53 53 54 52 50 50 53 54 55 56 56 57 56 56 56 54 53 51 51 49 48 49 48 43 41 41 40 39 37 38 43 45 47 48 48 48 47 48
54 53 53 52 52 52 52 51 51 48 50 53 53 53 55 56 57 57 56 56 55 54 53 51 50 49 49 49 45 42 39 41 44 41 40 37 41 42 46 46 46 45 42
52 53 52 52 51 51 50 50 49 49 50 50 51 52 53 55 57 57 57 57 56 55 53 52 51 50 49 50 46 45 44 41 43 44 43 41 39 39 40 43 44 43 41
51 52 52 52 52 51 50 49 48 47 44 44 47 48 50 55 57 57 57 57 57 57 55 54 53 51 51 50 50 49 48 46 43 42 44 44 44 41 40 39 39 40 40
50 51 52 52 52 51 51 50 48 47 47 47 48 50 51 53 56 57 58 57 57 57 57 55 52 52 52 50 51 48 47 47 47 45 44 45 44 44 44 41 41 41 39
50 50 52 52 51 51 51 50 49 48 48 49 51 52 52 53 55 57 57 58 57 57 56 56 54 52 51 50 50 48 47 46 46 46 44 44 42 40 39 39 41 41 41

GFSSE_sfc_dewp_072.txt.gz
Dewpoint
67 70 71 71 71 71 71 70 70 71 71 71 71 71 71 71 71 70 70 69 69 69 68 66 68 66 66 66 65 65 66 65 65 66 65 65 64 66 66 66 66 64 66
68 70 70 70 71 71 70 70 70 70 71 71 71 71 70 70 70 69 69 68 68 67 65 65 65 65 66 65 65 66 65 66 66 65 64 63 63 64 66 65 65 63 64
69 70 70 70 71 71 71 71 71 71 71 71 71 70 70 70 69 68 68 68 67 67 65 65 64 64 64 64 65 64 63 64 63 62 62 60 60 64 64 64 63 62 62
66 68 69 70 70 70 70 70 71 71 71 70 70 70 69 69 68 68 67 67 67 67 65 64 65 64 64 64 64 63 62 62 61 60 58 58 59 64 63 62 62 61 61
63 63 68 70 69 69 70 70 70 70 70 70 69 69 69 68 68 67 67 66 67 67 66 66 66 65 64 64 63 62 61 61 60 57 55 56 59 61 62 61 59 59 57
65 63 65 66 66 67 67 66 68 70 69 69 69 69 68 68 67 67 67 66 66 66 64 64 65 66 64 63 62 61 61 60 58 55 56 57 57 60 59 57 57 57 57
64 63 64 64 63 64 64 64 64 67 68 68 68 68 68 67 66 66 66 66 64 63 62 65 65 64 64 62 61 61 60 58 54 53 54 55 58 60 58 58 56 56 55
64 64 61 63 63 63 63 61 64 66 68 68 68 68 67 66 65 66 66 64 63 64 65 65 64 63 62 61 60 60 60 58 54 53 53 56 56 58 58 57 55 55 55
63 61 60 62 62 62 61 61 64 66 66 67 66 67 66 65 65 64 64 63 62 65 65 64 63 62 62 61 60 60 59 57 53 53 53 53 57 57 57 56 56 55 55
61 61 61 62 60 60 61 61 63 65 66 66 66 66 65 65 64 63 62 61 61 63 64 63 62 62 61 60 60 59 59 56 52 53 53 55 58 57 57 56 55 55 54
60 60 61 60 60 59 60 60 62 65 66 65 65 65 63 62 60 58 58 59 59 61 62 63 62 61 60 60 59 59 55 52 53 54 54 58 57 57 56 55 54 53 53
60 60 61 60 60 59 60 58 62 64 63 63 63 62 61 59 57 58 58 59 59 59 61 62 62 60 58 56 56 55 52 53 53 54 55 58 57 56 56 55 54 53 52
59 60 60 59 59 59 58 58 60 62 63 63 61 61 58 58 58 56 53 53 53 53 51 56 54 51 53 53 52 52 52 53 53 55 57 58 56 56 55 54 53 53 51
59 59 59 59 59 59 58 57 59 61 62 61 61 58 57 56 54 52 49 48 48 47 44 45 47 46 48 50 51 52 52 53 53 55 57 58 57 55 55 54 53 52 51
58 58 59 59 59 58 57 57 59 61 61 61 60 57 55 53 52 50 48 48 48 48 44 42 43 45 47 48 50 51 52 52 53 54 55 58 57 56 55 55 53 52 50
58 58 59 59 59 58 56 57 59 60 61 61 59 56 53 52 51 48 48 48 49 47 46 42 40 42 42 44 47 50 51 52 53 54 54 56 57 57 56 54 53 52 51
57 58 58 58 58 58 56 58 58 59 60 60 58 55 54 51 50 48 48 48 49 49 47 44 43 40 39 39 41 45 48 51 52 53 53 54 56 57 57 56 54 52 52
55 57 57 58 58 57 57 58 59 59 59 59 57 55 54 52 50 49 48 49 50 51 48 46 44 42 40 39 39 41 43 46 49 51 52 53 54 54 57 57 56 54 53
55 57 57 58 57 57 57 57 57 58 58 59 57 54 53 52 51 49 49 51 52 52 50 48 48 46 43 41 39 39 41 41 43 42 48 50 52 54 54 57 57 57 56
55 56 57 57 57 57 56 55 56 57 58 58 57 53 52 52 52 52 51 52 53 52 51 50 48 49 46 44 40 39 40 40 41 43 43 44 48 51 52 52 55 54 55
54 55 56 56 56 56 55 52 54 55 56 57 56 54 53 53 53 54 53 55 54 52 51 50 50 49 49 47 44 43 42 41 40 39 40 44 45 47 50 51 51 50 51
52 54 54 54 54 55 55 54 55 53 53 54 55 56 56 55 55 55 55 56 55 54 52 51 50 49 49 48 45 43 41 41 43 41 39 39 43 46 48 49 49 49 47
52 53 53 53 53 53 54 53 52 52 53 52 53 53 55 56 57 57 56 56 55 54 53 52 50 50 49 50 48 46 43 41 43 45 43 41 40 43 44 47 47 46 47
53 53 53 52 52 51 50 50 49 49 49 49 50 51 52 55 56 56 56 56 56 55 53 53 52 52 52 49 50 50 49 47 45 44 44 44 43 39 40 41 42 44 44
50 52 52 52 51 50 50 50 49 48 48 46 48 48 49 52 54 55 56 56 57 56 55 55 53 52 52 51 51 48 48 48 47 47 46 47 46 46 45 43 43 41 41
51 51 52 51 51 51 50 49 49 48 48 47 47 48 50 51 52 54 55 56 56 56 56 56 56 54 53 52 51 48 48 48 46 46 46 45 45 45 41 43 43 42 42

GFSSE_sfc_dewp_075.txt.gz
Dewpoint
68 68 71 72 72 71 71 71 71 71 71 71 71 71 71 71 71 71 71 71 70 69 68 68 68 68 67 67 67 67 67 68 67 67 67 67 67 67 66 66 66 63 66
68 69 70 71 71 71 71 71 71 71 71 71 71 71 71 71 71 70 70 70 69 69 67 67 67 66 65 65 66 66 66 65 65 66 66 66 66 66 65 65 65 62 64
69 69 69 71 71 71 71 71 71 71 71 71 71 71 71 71 70 70 69 68 68 68 66 66 66 66 65 65 66 66 66 65 65 65 64 59 62 64 64 63 62 62 62
69 69 68 70 71 71 71 71 71 71 71 71 71 71 70 70 69 69 68 68 67 67 64 64 64 65 65 65 64 63 63 63 63 63 59 58 59 63 62 62 61 62 61
64 68 68 70 69 69 69 70 70 70 70 70 70 70 70 69 69 68 67 67 67 66 65 64 64 64 64 65 64 63 62 61 61 58 58 58 57 59 61 59 59 58 59
64 66 67 67 67 67 67 68 69 70 69 69 69 70 69 69 69 68 67 66 66 66 66 64 64 64 64 64 63 63 62 61 59 55 56 59 57 59 58 58 59 57 57
65 66 66 66 66 66 65 64 64 68 68 68 69 68 68 68 68 67 67 66 67 67 67 66 64 63 63 63 62 61 61 60 54 54 56 58 57 58 57 59 56 57 57
65 65 65 66 66 65 64 63 64 66 67 68 67 68 67 67 67 67 66 65 65 66 66 66 64 63 62 62 61 61 60 58 54 55 55 55 58 58 58 56 56 56 56
64 64 64 65 65 64 64 64 64 66 66 67 67 66 66 66 66 66 65 64 65 66 66 65 64 62 62 61 61 60 59 59 54 54 51 54 57 57 57 56 56 55 55
62 62 63 63 63 62 63 62 63 65 66 66 66 66 65 65 66 64 63 65 66 66 65 64 62 62 62 61 60 59 59 58 54 53 52 54 58 57 57 56 56 55 55
61 61 62 62 61 62 62 62 63 66 65 66 66 65 63 63 62 60 61 64 65 64 63 62 62 61 61 60 60 59 57 53 53 53 52 59 58 57 57 56 55 54 54
59 60 61 62 61 61 60 62 63 63 65 65 64 63 61 61 59 57 60 62 64 63 62 62 62 61 57 54 55 56 53 54 53 53 53 59 57 57 56 55 54 53 53
60 61 61 60 60 60 59 60 63 64 63 64 63 62 59 58 58 57 57 58 61 62 58 58 57 53 55 53 52 53 54 54 53 53 55 59 57 57 56 55 53 53 52
60 60 61 60 60 60 58 59 62 61 62 62 61 59 58 56 55 54 53 54 56 59 59 57 55 55 55 53 53 54 54 53 53 52 55 59 58 56 56 55 54 52 51
59 60 60 60 59 59 58 59 61 61 60 60 60 57 55 53 52 51 51 50 49 53 55 53 53 52 52 52 53 53 53 53 54 53 53 58 58 57 55 55 54 52 51
59 59 60 59 59 58 57 59 61 61 60 60 59 56 55 51 50 49 50 49 48 49 50 52 52 52 51 51 52 52 53 53 53 54 52 54 58 58 57 55 53 52 50
58 59 59 60 59 58 58 59 60 61 60 59 58 57 54 51 50 51 51 50 49 47 48 48 51 51 50 49 50 52 52 53 53 54 53 53 54 57 57 57 54 53 51
56 58 59 59 59 58 58 59 60 61 61 59 56 55 54 51 51 52 51 51 51 50 48 46 47 46 46 47 48 49 50 52 53 54 53 54 53 51 56 58 57 55 53
54 57 58 59 58 57 58 60 59 59 59 58 57 53 53 52 52 52 52 53 54 53 51 46 45 44 43 42 42 44 46 49 51 51 53 54 55 54 52 56 57 57 57
55 57 57 58 57 58 58 58 58 59 59 58 56 53 52 51 52 52 52 53 54 52 50 49 48 48 44 43 35 40 43 44 45 46 49 51 53 55 55 54 53 53 57
55 56 57 57 57 57 57 57 57 57 58 58 57 54 53 51 53 52 52 54 55 53 52 53 52 51 49 48 44 44 43 44 44 43 45 45 47 51 54 54 54 53 52
53 54 56 56 56 56 56 56 57 57 58 58 57 55 54 53 53 53 54 56 55 56 54 54 53 53 53 50 47 47 46 46 44 43 42 43 46 45 48 51 52 53 53
51 52 53 55 56 55 55 55 55 55 56 56 56 56 54 54 53 54 55 57 57 57 56 55 54 53 51 51 51 50 46 45 46 47 47 43 43 44 45 48 50 51 51
52 53 55 55 55 55 55 54 54 53 53 55 55 55 55 54 55 54 57 57 58 58 57 57 54 54 54 52 53 52 52 50 49 48 47 47 48 46 45 45 46 48 49
52 53 53 54 54 54 55 54 53 54 54 56 55 55 55 55 54 56 57 58 58 58 59 58 56 56 56 55 53 51 50 50 50 50 49 50 48 47 46 45 44 44 44
51 53 53 53 53 53 54 54 53 53 53 51 52 52 52 54 55 56 56 58 58 59 59 59 58 57 57 54 56 54 53 52 51 50 50 50 49 49 48 47 47 46 45

GFSSE_sfc_dewp_078.txt.gz
Dewpoint
66 64 70 72 72 72 72 72 71 71 72 72 71 71 70 71 71 71 71 71 70 70 69 69 68 68 68 68 68 68 68 68 68 68 68 67 67 67 67 67 66 64 66
65 65 71 72 72 72 72 72 71 71 72 72 71 70 71 71 71 71 71 70 69 69 68 68 68 68 67 66 67 67 67 67 67 67 67 67 66 66 66 65 66 63 65
67 67 68 71 71 72 72 72 72 72 72 71 71 71 71 71 71 71 70 70 69 69 68 67 67 66 66 66 67 66 66 66 66 67 66 61 62 65 64 63 63 63 63
68 67 66 71 71 71 72 72 71 72 71 71 71 71 71 71 71 70 70 69 69 68 67 67 66 66 65 65 65 65 65 65 64 65 59 59 60 63 63 62 62 61 62
67 68 67 70 70 70 70 71 71 71 70 70 71 71 71 70 70 69 68 68 67 68 66 66 66 65 65 65 65 64 63 63 63 59 56 58 58 59 61 60 60 60 60
65 69 68 69 69 69 69 70 68 70 70 70 70 70 70 70 69 69 67 67 67 67 66 65 65 65 65 64 64 63 62 61 62 56 55 57 55 60 60 59 58 58 58
67 68 68 67 67 67 68 68 68 68 69 69 69 69 69 69 69 68 67 66 66 66 66 64 65 64 64 63 63 62 61 61 52 54 54 54 56 60 58 58 58 58 57
66 68 68 67 67 67 68 67 67 67 67 69 67 68 69 68 68 67 66 66 67 66 65 65 64 63 63 63 61 61 60 59 54 54 52 54 58 58 58 58 57 57 56
67 67 68 68 66 65 64 65 66 66 67 67 67 66 67 67 67 67 66 67 67 67 65 64 64 63 62 62 61 60 60 61 52 52 51 54 58 57 58 57 56 56 56
64 65 65 67 66 65 65 62 64 66 65 66 66 66 66 66 66 65 65 66 67 66 65 63 63 62 62 61 60 60 59 60 51 51 51 54 58 58 57 57 56 56 56
62 62 63 63 65 65 64 63 63 64 65 65 66 66 65 65 63 62 63 66 66 65 64 63 63 62 61 60 60 59 59 50 50 49 51 59 58 58 57 56 56 55 55
61 61 61 62 62 63 62 63 64 64 64 65 65 65 64 63 62 61 65 65 65 63 63 63 62 61 57 52 54 57 49 51 50 50 53 59 58 57 57 56 55 54 54
61 61 62 62 62 62 62 62 64 65 65 65 64 63 63 63 62 63 64 62 61 60 54 56 56 51 51 50 50 50 52 52 51 51 56 59 58 57 56 55 54 54 53
60 61 62 61 61 61 60 61 63 64 64 65 63 62 61 61 60 61 61 59 58 55 55 54 51 53 52 51 51 52 52 50 50 51 56 59 58 56 56 55 54 53 52
60 61 62 62 61 61 61 61 62 62 63 61 61 60 59 57 56 57 60 59 58 56 55 54 53 52 52 51 51 51 51 51 52 50 53 59 58 57 56 55 54 52 51
58 59 61 61 61 60 59 61 62 61 60 60 59 58 57 55 55 54 54 55 58 58 55 54 53 49 47 48 50 51 51 52 52 52 51 55 58 58 57 55 54 53 52
56 58 60 61 60 59 59 61 61 61 60 58 57 56 55 55 55 53 51 52 54 55 55 54 52 49 47 46 48 50 50 51 51 53 51 52 54 58 58 57 54 53 51
55 57 59 60 60 59 59 61 61 60 60 58 56 53 54 53 53 52 50 51 52 53 53 52 51 49 48 46 47 47 48 50 52 52 52 51 51 50 56 58 57 55 53
53 57 58 59 59 58 59 60 60 59 58 58 56 52 52 52 53 51 50 51 51 49 50 50 49 48 46 45 45 46 47 48 51 49 51 53 53 52 51 57 58 57 57
54 55 58 59 58 58 59 60 60 58 58 58 55 51 49 48 53 51 48 51 49 47 47 45 47 45 44 43 37 42 45 46 47 49 50 50 52 53 53 52 53 53 57
54 55 57 58 58 58 58 58 58 57 57 56 55 52 51 49 51 54 54 53 51 50 51 51 48 49 46 46 42 43 44 46 47 45 47 48 50 51 53 52 52 52 53
54 55 57 57 57 57 57 56 58 58 58 56 55 52 52 52 53 55 54 54 54 55 54 54 52 51 52 49 47 48 46 46 44 44 44 44 49 47 50 52 55 54 54
53 54 55 57 57 57 57 56 58 58 58 56 56 54 53 53 53 54 55 55 56 55 54 55 54 53 51 54 53 50 49 48 50 49 47 48 46 47 47 45 47 52 54
53 54 55 56 56 56 57 56 57 56 55 56 54 54 54 53 53 53 55 56 57 56 55 56 54 55 54 52 52 51 55 53 51 51 50 49 47 44 47 45 48 49 51
53 53 55 56 56 56 56 56 55 55 56 57 56 55 54 54 54 54 55 55 55 56 56 57 57 57 55 54 54 54 54 52 51 49 50 52 50 48 48 48 46 45 48
53 55 54 54 55 56 56 55 56 55 55 56 55 54 54 53 53 54 53 57 56 58 57 58 60 59 58 57 58 56 53 52 52 52 51 52 52 51 52 51 51 49 46

GFSSE_sfc_dewp_081.txt.gz
Dewpoint
63 66 71 71 71 72 72 72 71 72 72 72 72 71 71 71 72 71 71 70 70 70 68 68 69 69 69 69 68 69 69 69 68 68 68 67 67 67 67 68 66 63 66
64 66 71 72 72 72 73 72 72 72 72 72 71 71 71 71 72 71 71 70 70 70 69 69 69 68 68 68 68 69 69 68 68 68 68 67 66 66 66 66 66 63 65
66 68 67 71 72 72 73 72 72 72 72 72 71 71 71 71 72 71 70 70 69 69 69 68 68 67 67 66 68 68 68 68 67 66 66 62 62 65 65 65 65 64 64
67 65 66 71 71 72 72 72 72 72 72 71 71 71 71 71 72 71 70 69 69 68 68 68 67 67 66 67 67 66 66 67 67 65 60 60 60 64 64 63 63 63 62
66 68 68 70 70 71 72 72 72 71 71 71 70 71 71 72 71 70 69 68 68 68 67 67 66 66 66 66 65 65 64 64 64 60 57 59 59 61 62 61 61 61 62
67 68 69 69 70 71 71 70 70 69 69 70 70 71 71 71 71 70 69 68 68 68 67 66 66 65 65 64 64 63 62 63 63 54 54 58 57 61 61 60 60 59 59
66 68 69 68 69 69 69 67 67 68 68 69 70 70 70 70 70 68 68 67 67 67 67 66 64 64 64 63 63 62 62 61 53 51 52 55 57 60 59 59 59 58 58
66 68 69 68 68 67 66 65 66 66 62 68 68 68 69 69 68 68 67 67 66 66 66 66 65 64 64 63 62 60 60 61 52 50 52 55 59 59 59 59 58 57 57
66 68 69 68 66 66 64 64 66 65 63 67 66 67 67 67 67 67 66 66 66 66 65 65 64 64 63 62 61 60 59 61 51 51 51 54 58 59 58 58 57 57 57
65 67 68 67 67 66 66 65 65 66 66 65 66 67 67 66 66 66 65 66 66 65 65 64 64 63 62 61 60 59 59 58 50 50 50 54 59 58 58 57 57 56 56
63 64 65 66 66 66 66 63 63 63 66 66 66 66 65 66 64 64 63 65 65 65 64 64 63 62 61 60 60 59 60 48 49 49 52 59 58 58 57 57 56 56 56
61 63 63 64 64 64 64 63 63 63 64 65 66 66 65 65 64 63 65 65 65 64 63 63 62 61 57 52 53 57 51 50 48 50 53 60 58 57 57 56 56 56 55
60 62 63 62 63 64 63 63 63 66 67 68 66 66 64 65 65 62 66 65 63 61 56 57 57 50 50 48 51 52 51 51 49 51 56 59 58 57 57 56 55 55 54
59 61 61 62 62 63 63 62 62 63 65 65 66 64 64 63 63 63 63 62 60 54 54 53 51 54 52 49 51 52 52 50 49 52 56 59 59 57 56 56 55 54 54
57 61 62 62 61 61 62 61 61 63 63 65 65 64 63 62 62 61 61 61 56 54 54 52 51 50 51 50 50 51 50 51 51 51 53 59 59 57 56 55 55 54 53
56 57 62 62 62 60 61 62 63 63 64 65 63 63 62 61 61 60 61 59 56 55 54 52 52 50 50 50 51 51 50 51 51 53 52 55 58 58 57 55 54 53 52
55 55 59 61 61 60 59 61 61 61 60 59 59 60 59 59 60 60 60 59 60 57 57 57 54 50 48 48 50 50 50 52 51 52 52 53 55 58 58 57 55 54 52
54 53 58 60 60 60 59 61 60 59 58 58 58 57 57 56 56 56 58 59 60 58 56 55 53 50 47 47 48 49 50 51 52 52 51 52 52 52 56 58 57 56 53
54 53 57 60 60 60 60 61 60 58 57 57 57 56 56 56 56 55 55 56 58 55 57 56 55 54 48 47 46 47 49 49 51 50 51 52 53 51 52 57 58 57 56
53 54 56 59 59 60 60 60 59 58 57 57 55 54 55 55 55 53 52 54 53 52 53 53 54 53 51 47 41 45 48 48 49 50 50 50 52 53 52 55 54 54 57
54 54 56 58 59 59 58 58 57 56 56 55 52 52 53 52 52 51 51 52 51 50 51 54 52 52 48 48 42 44 46 48 49 48 50 50 50 52 53 52 54 52 53
54 54 55 57 58 58 58 58 57 56 56 55 52 49 50 51 49 50 53 54 51 50 53 53 52 51 49 50 45 45 45 45 46 47 47 49 53 50 50 53 54 54 53
54 54 54 57 57 57 57 58 57 56 56 54 54 48 49 53 53 54 56 55 54 55 54 56 56 54 51 51 53 53 52 51 50 49 50 47 50 49 49 51 53 52 54
54 54 55 56 57 57 58 58 56 54 52 53 52 52 50 53 55 55 56 56 57 57 57 57 55 56 55 53 52 52 54 54 52 51 52 51 50 47 49 48 46 49 51
54 54 55 56 56 56 57 57 57 55 54 54 54 51 50 52 52 53 55 57 56 56 58 58 56 56 56 57 55 54 54 54 55 51 48 54 51 49 48 48 47 48 50
54 54 55 56 56 56 57 57 57 56 56 55 53 52 52 51 53 55 54 56 56 56 58 58 59 58 58 58 58 58 55 52 52 51 50 51 54 54 52 54 52 50 50

GFSSE_sfc_dewp_084.txt.gz
Dewpoint
66 68 71 72 72 73 72 72 72 72 72 72 71 71 71 72 71 71 70 70 70 70 69 68 70 70 69 69 69 70 69 69 68 69 69 68 67 67 67 67 66 64 68
66 67 71 71 72 73 72 72 72 72 72 72 71 71 71 72 71 71 70 70 70 70 69 69 69 69 68 69 70 69 69 68 68 68 68 68 67 67 66 67 66 64 65
68 68 68 71 72 72 72 72 72 72 72 72 71 71 71 72 71 71 70 70 70 70 69 69 68 68 68 69 69 69 68 68 67 66 66 63 63 66 66 65 66 65 64
66 68 68 71 72 73 72 72 72 72 72 71 71 71 71 72 71 71 70 69 69 70 69 68 68 67 68 68 68 68 67 67 66 65 61 61 61 65 65 65 64 64 63
65 67 69 70 71 72 72 72 71 71 71 71 70 71 72 72 71 70 70 69 69 70 68 68 67 67 67 67 67 67 67 66 65 61 60 60 61 62 63 63 61 61 62
66 68 69 69 70 71 71 72 71 70 70 70 70 71 71 71 71 70 69 68 68 69 68 68 66 66 66 65 65 64 64 64 62 57 58 60 59 62 62 61 61 60 61
67 69 69 68 69 70 70 70 68 67 66 64 67 70 71 71 70 69 68 68 68 68 68 66 65 65 64 64 64 62 60 61 54 54 56 57 58 61 60 59 59 59 59
68 70 70 68 68 68 67 66 64 64 65 63 62 66 70 70 69 68 68 68 67 67 66 66 65 64 64 63 62 59 59 62 52 53 55 55 59 59 59 59 59 58 58
68 68 68 69 67 65 65 65 65 65 63 63 62 62 68 68 68 67 67 67 67 67 66 65 64 64 63 62 60 59 59 62 52 53 54 55 59 58 59 59 58 58 57
65 67 68 68 68 66 65 64 66 65 64 64 64 66 66 66 66 66 66 66 66 66 65 64 64 63 62 61 59 58 58 60 50 52 54 56 58 59 58 58 58 57 57
62 64 66 66 66 66 66 64 64 66 66 65 64 65 65 65 66 64 65 65 65 65 65 64 63 62 61 60 59 59 61 52 51 53 55 59 58 58 58 57 57 57 56
61 62 64 66 65 66 66 64 64 64 66 65 63 65 65 65 64 63 65 65 65 64 64 63 62 61 58 54 55 58 54 52 52 53 55 60 58 58 58 57 56 56 56
60 62 62 63 65 64 63 65 66 65 66 66 65 65 64 65 65 64 64 64 63 63 61 60 59 53 51 51 53 53 54 52 52 53 57 59 58 57 57 57 56 56 55
59 59 62 62 63 65 65 63 65 65 65 65 65 64 64 64 63 63 63 63 60 58 57 56 54 53 52 51 53 55 52 52 53 55 57 59 59 57 57 56 56 55 54
58 61 61 62 62 62 63 64 63 64 65 64 65 64 64 63 62 63 63 62 58 54 54 52 52 50 51 50 53 52 53 52 53 54 56 59 59 58 56 56 55 55 54
57 61 62 62 62 62 62 62 63 63 64 64 64 64 64 63 61 62 62 61 54 53 51 51 53 52 51 51 53 53 52 52 52 54 55 56 58 58 57 56 55 55 54
55 61 62 63 62 61 62 62 62 62 63 64 64 64 63 62 61 61 61 60 55 54 52 55 54 53 52 51 52 52 53 53 52 53 53 54 56 58 57 57 55 54 53
54 57 61 61 60 61 61 61 60 59 59 59 60 63 61 61 60 59 59 59 60 59 56 54 52 52 52 52 51 51 52 53 53 52 53 53 54 53 57 57 57 56 53
54 56 59 61 60 60 61 60 58 58 58 58 58 58 59 59 58 58 59 59 60 59 57 54 54 52 50 51 50 52 52 53 53 52 52 52 53 53 53 57 57 57 57
54 56 60 60 60 61 61 59 58 57 57 57 56 56 56 57 58 57 57 58 57 57 55 54 52 52 50 50 45 48 52 53 52 53 53 52 53 53 53 53 55 54 56
56 55 58 59 59 59 59 57 56 55 56 55 55 55 55 55 55 56 57 57 56 54 54 53 52 50 48 49 50 50 50 51 52 52 52 52 52 53 54 53 53 53 54
55 55 58 57 58 58 58 58 57 55 55 54 54 53 54 53 54 54 54 53 53 52 53 53 51 51 50 52 48 47 45 47 48 50 52 52 52 52 53 54 54 53 52
55 55 57 57 58 58 58 57 56 55 54 53 52 52 53 53 52 51 52 50 51 51 51 52 52 51 50 51 51 51 49 48 47 49 49 50 50 52 52 52 54 54 54
55 56 55 56 57 57 58 56 55 53 51 50 49 50 51 52 52 49 50 51 53 52 53 52 54 52 54 50 52 53 54 54 51 49 51 49 50 50 50 49 51 52 51
56 55 55 55 57 57 58 56 55 53 50 51 49 48 49 52 53 54 53 54 53 57 56 55 55 55 57 56 51 53 52 55 55 52 50 53 51 48 48 49 49 48 46
55 55 55 55 56 57 58 56 55 53 51 52 49 47 48 51 53 53 55 56 56 57 56 57 56 56 56 56 57 56 53 52 53 52 51 51 52 52 50 49 49 47 47

GFSSE_sfc_dewp_087.txt.gz
Dewpoint
68 70 72 72 72 71 72 72 72 72 72 72 72 72 72 71 71 71 71 71 70 70 69 70 71 70 70 70 71 70 70 69 69 69 68 68 67 67 67 68 67 65 68
68 70 71 72 72 72 72 72 72 72 72 71 72 72 72 71 71 71 70 70 70 70 69 70 70 68 69 70 70 69 69 69 69 69 69 68 67 67 66 66 66 65 67
68 69 70 71 72 72 72 72 72 72 72 71 72 72 72 71 71 70 70 70 70 70 69 69 67 68 68 70 69 69 68 68 67 67 67 64 64 66 65 65 65 64 65
67 68 69 70 71 72 72 72 72 72 72 71 72 72 72 71 71 71 70 70 70 70 69 69 69 68 69 68 68 68 67 67 66 65 63 63 63 66 65 64 64 63 62
67 67 69 70 71 72 72 71 71 71 71 71 71 72 72 71 71 71 70 69 69 70 68 69 68 69 68 67 67 67 66 65 64 62 61 62 62 64 64 63 60 61 60
67 68 68 69 70 72 72 72 71 71 71 69 67 70 72 71 71 70 69 69 69 69 69 68 68 68 68 67 67 67 65 64 62 59 60 61 61 63 62 61 62 61 59
67 68 68 68 69 71 72 72 71 70 66 63 62 62 67 70 70 70 69 69 68 69 69 68 67 66 66 66 65 63 61 62 57 57 58 59 60 62 61 59 60 59 59
67 68 68 69 69 69 70 69 68 66 65 66 64 62 64 68 69 69 68 68 68 68 67 67 66 66 65 64 62 60 60 60 56 56 57 58 61 61 60 59 58 59 59
65 65 68 68 67 67 66 66 65 65 65 64 63 62 62 64 67 68 68 68 68 67 66 66 65 65 63 62 61 59 60 59 54 55 55 57 60 59 59 58 58 58 58
62 65 67 67 64 62 63 65 65 65 64 64 64 63 63 63 66 66 66 67 67 66 66 65 64 64 62 61 59 60 59 58 54 54 56 57 59 58 58 58 58 58 58
61 61 65 66 65 63 63 64 66 65 64 64 64 64 63 66 66 65 66 66 66 65 65 64 64 62 61 60 59 60 58 53 55 55 56 60 59 58 58 58 58 57 57
59 60 64 65 64 64 65 63 63 64 65 64 62 64 63 65 65 66 65 65 65 65 64 63 62 61 57 53 54 56 53 53 54 55 55 60 59 58 58 57 57 57 57
60 61 63 64 64 64 64 62 63 63 64 64 62 64 65 65 64 64 64 64 63 63 61 60 59 55 52 53 53 52 53 53 54 55 57 59 59 58 58 57 57 57 56
60 61 61 62 62 63 63 63 63 63 64 65 62 64 64 64 63 64 63 62 61 60 59 57 54 52 51 52 52 53 53 53 54 55 58 59 57 58 58 57 57 56 55
59 60 61 61 61 63 62 61 62 62 63 64 64 64 64 63 62 62 63 62 60 58 57 54 53 50 50 51 52 53 53 54 54 55 56 59 59 59 57 57 56 56 55
59 60 60 61 61 60 60 60 61 62 62 63 64 63 63 62 62 61 62 61 58 55 54 52 52 49 50 49 51 52 53 53 54 55 56 57 58 58 58 57 56 56 55
60 61 61 61 61 60 61 61 61 60 61 62 63 63 63 62 62 61 62 60 55 53 51 51 52 52 50 51 51 52 53 53 54 54 55 55 56 57 58 58 56 56 55
60 61 61 62 60 61 60 59 58 58 58 61 62 64 63 62 61 62 61 59 55 53 49 52 52 51 51 51 51 52 52 53 53 53 54 54 55 54 57 58 57 56 55
59 61 60 59 59 59 60 59 58 58 58 59 59 63 62 62 61 61 61 59 57 55 53 53 52 51 50 51 50 51 52 53 53 52 53 53 54 54 54 57 57 57 57
59 60 60 59 59 60 59 58 58 57 57 57 57 60 61 61 61 61 59 59 59 57 54 52 51 51 51 50 48 51 51 53 53 53 53 53 53 53 54 54 55 54 56
56 59 59 58 58 59 58 56 56 55 55 55 56 57 59 59 59 58 58 57 57 55 53 51 50 49 49 49 49 49 50 52 51 52 53 52 52 53 53 53 54 53 54
57 58 58 58 58 58 57 56 56 55 55 55 55 56 57 58 58 58 57 57 56 54 52 50 49 50 48 50 48 47 45 46 49 51 52 52 52 53 52 53 53 53 53
55 57 57 57 57 57 58 56 56 55 54 53 53 53 55 57 58 57 57 57 55 54 52 50 49 48 46 50 49 48 46 45 46 48 49 51 51 52 53 53 53 53 53
54 57 57 57 57 57 58 56 54 52 52 52 52 52 52 54 55 55 54 54 53 53 51 51 51 50 51 47 52 54 53 52 47 46 50 48 49 50 51 52 53 53 53
54 55 56 57 57 57 57 56 54 52 52 51 51 51 52 52 51 51 52 51 51 52 53 51 53 53 53 52 50 51 51 54 53 50 47 50 51 49 50 50 51 53 53
54 54 55 56 56 57 57 55 54 52 51 50 49 50 50 51 52 51 50 49 53 53 54 53 53 53 55 55 54 53 51 51 52 53 51 50 49 50 49 48 49 49 49

GFSSE_sfc_dewp_090.txt.gz
Dewpoint
68 71 72 72 72 72 72 71 71 71 71 72 72 72 72 72 72 71 71 71 71 72 70 70 71 71 71 70 71 70 70 69 69 69 69 68 68 68 68 67 67 65 67
68 71 71 72 72 72 72 72 72 72 72 72 72 71 71 71 71 71 71 71 71 71 70 70 69 69 69 70 70 70 69 69 68 68 68 67 67 67 67 67 67 66 67
69 70 71 71 72 72 72 72 72 72 71 72 72 71 71 71 71 71 71 70 70 71 69 69 69 69 69 70 69 69 69 68 68 67 67 64 63 65 65 66 67 66 65
68 69 70 71 71 72 72 72 72 72 71 72 72 71 71 71 71 71 70 70 70 70 69 67 69 69 69 69 68 68 68 67 67 66 64 63 62 64 64 62 63 64 63
67 68 69 70 71 71 71 71 72 72 71 71 71 71 71 71 71 70 70 70 70 70 69 68 68 69 68 68 67 67 66 66 65 63 63 63 62 64 63 63 62 63 62
67 68 68 69 71 71 71 71 71 71 71 71 71 71 71 71 70 70 70 69 70 69 69 69 69 68 67 67 66 66 65 64 62 61 62 62 61 63 61 61 61 61 60
67 68 68 68 70 71 72 71 71 71 69 68 67 67 66 66 68 69 69 69 69 69 69 68 68 67 67 66 65 64 63 62 59 60 60 60 60 62 61 59 59 59 59
67 67 67 68 69 70 71 71 70 68 66 66 64 64 64 65 67 67 68 68 68 68 68 67 67 67 66 64 63 63 62 61 58 59 59 60 62 61 61 58 59 58 59
67 67 68 68 68 68 68 68 67 67 65 65 65 64 64 64 63 66 67 67 67 67 67 67 66 66 64 63 62 62 60 60 56 57 58 59 62 61 59 60 58 58 58
63 64 65 66 66 64 64 66 66 66 65 65 65 64 63 63 62 61 66 67 67 67 66 66 65 64 63 62 61 60 60 59 55 56 57 58 61 60 60 58 58 58 57
60 62 65 64 64 63 63 64 65 65 65 64 64 63 63 62 62 62 65 66 66 66 65 65 64 62 61 61 61 60 58 55 55 55 56 60 58 58 59 58 57 58 58
58 59 63 64 64 62 63 62 63 64 63 63 63 63 62 62 62 64 64 65 66 65 65 64 62 61 58 56 57 58 54 54 54 54 55 60 57 58 58 58 57 57 57
59 60 62 63 64 64 63 62 61 62 64 62 63 63 64 63 65 65 64 64 64 63 61 60 59 55 52 53 53 54 54 54 54 54 57 59 60 59 58 57 58 57 57
58 59 60 63 64 64 64 62 61 62 64 62 63 63 64 64 64 64 64 63 62 60 59 57 55 53 51 53 53 53 54 54 54 54 57 57 59 58 58 58 58 57 57
59 59 60 61 62 62 63 63 62 61 63 62 63 63 64 64 62 63 63 62 61 60 57 55 53 51 50 52 53 53 53 54 55 55 56 58 59 59 58 58 58 57 57
59 60 60 60 60 61 60 60 60 61 62 63 63 63 64 63 62 62 62 61 60 58 56 54 52 50 50 51 53 53 53 54 55 55 55 56 58 59 58 57 57 57 56
59 60 60 60 60 60 60 59 59 59 62 63 63 64 63 63 62 62 61 60 58 56 54 52 52 50 49 51 52 53 54 54 55 55 55 55 56 58 58 58 57 56 55
59 59 60 60 59 58 59 60 60 58 59 62 63 63 63 62 61 62 61 58 56 54 52 51 51 49 49 51 52 53 53 54 54 54 55 55 55 55 57 58 58 57 56
60 60 60 60 59 58 59 59 58 58 57 59 62 63 62 62 61 62 61 58 56 53 50 52 51 49 49 51 52 53 53 53 54 53 54 54 54 54 54 58 58 58 57
60 60 60 59 58 59 58 58 58 57 57 57 57 61 63 62 62 61 61 58 55 52 50 53 51 51 51 51 51 52 53 53 53 53 53 53 53 54 54 54 55 55 57
60 60 59 58 58 58 57 56 56 55 55 56 56 58 61 62 61 61 60 58 56 49 51 52 51 50 51 51 51 51 52 53 52 53 53 53 53 53 54 54 54 53 54
59 59 58 58 58 57 56 57 56 55 55 55 56 57 60 60 61 61 59 58 58 51 53 51 50 50 50 50 49 48 48 48 50 52 53 53 53 53 53 53 53 53 53
58 58 57 57 57 57 57 56 56 55 54 54 54 55 58 59 59 59 58 58 57 54 52 50 49 49 48 49 49 49 46 46 47 49 52 52 52 53 53 53 53 53 53
57 57 57 57 57 57 57 55 54 53 52 53 53 54 57 58 58 58 58 57 56 55 52 49 49 49 50 48 50 53 51 50 47 46 49 51 52 52 53 53 53 53 53
57 57 57 57 56 57 56 55 54 53 53 53 52 52 53 56 57 58 57 57 56 56 53 51 50 51 51 51 49 51 51 52 51 47 44 48 49 50 52 53 53 53 53
56 56 56 56 55 57 56 55 53 53 51 51 51 52 52 52 53 55 55 55 56 55 54 54 52 52 53 52 52 52 51 51 52 51 49 48 48 49 49 50 51 52 53

GFSSE_sfc_dewp_093.txt.gz
Dewpoint
68 70 71 72 72 72 71 71 71 71 72 72 73 72 72 72 72 72 71 71 71 71 70 71 71 71 70 70 70 70 70 69 69 69 69 69 69 68 68 68 68 66 69
69 70 71 72 72 71 71 71 71 72 72 72 72 72 72 72 72 72 71 72 71 71 69 70 72 71 69 70 70 69 69 69 68 68 69 68 67 67 67 67 67 66 67
69 71 71 71 72 72 71 71 71 72 72 72 71 72 72 72 72 71 71 71 71 69 69 70 71 70 70 70 70 69 69 69 68 67 67 63 64 66 66 66 67 66 66
69 71 70 71 71 72 71 72 72 71 71 72 71 71 71 71 71 71 71 71 70 70 70 69 69 69 69 69 69 69 68 68 67 66 63 62 61 65 66 65 65 65 65
68 70 71 70 71 71 71 71 71 71 71 71 71 71 71 71 71 71 70 70 70 70 70 69 69 69 69 68 68 67 67 67 66 64 62 62 62 63 64 64 64 64 64
67 68 69 70 70 71 71 71 71 71 71 71 71 71 71 71 71 70 70 70 70 69 69 70 69 68 67 67 66 66 66 65 64 62 62 63 60 63 62 61 62 63 63
66 67 68 69 70 71 71 71 71 71 71 71 71 70 70 70 70 70 69 69 69 69 69 69 68 68 67 66 66 65 64 64 61 60 60 60 60 62 61 61 61 60 60
66 66 67 69 70 71 71 71 70 70 69 69 68 67 67 67 67 66 67 68 68 68 67 67 67 67 66 66 64 64 63 62 60 60 60 60 63 61 60 60 59 60 59
66 66 66 67 68 69 69 69 69 68 67 66 66 66 67 66 66 66 66 67 67 67 67 67 66 66 65 64 64 62 62 62 59 59 60 60 62 61 61 60 60 59 58
65 65 65 66 66 66 66 68 67 66 65 65 65 65 66 66 66 67 66 66 66 66 67 66 66 64 63 64 62 61 61 60 58 58 59 60 62 61 61 60 58 58 58
61 63 63 63 63 63 65 67 66 66 66 66 66 65 64 63 62 64 65 66 66 66 66 66 65 62 62 62 61 61 59 56 56 56 58 62 61 61 60 60 59 59 58
59 60 64 62 61 62 64 64 63 64 64 63 63 63 62 62 62 62 63 64 66 66 65 64 63 62 61 59 59 58 55 55 55 56 57 61 61 61 60 59 58 57 58
58 59 62 62 61 61 61 62 63 62 61 61 62 62 62 62 62 62 63 64 65 65 63 62 58 57 57 57 55 54 54 54 55 55 58 60 60 60 59 58 57 58 58
57 58 60 62 62 62 63 60 60 61 62 61 62 62 63 61 62 63 63 64 63 62 61 59 55 54 53 54 54 54 54 53 54 55 57 60 58 57 59 58 58 58 57
57 58 60 61 61 62 63 61 60 60 62 62 62 62 64 63 61 63 63 63 62 60 58 57 53 52 53 53 54 54 54 54 54 55 56 59 60 60 58 58 58 57 57
58 58 59 60 60 60 60 62 62 62 63 62 62 63 63 63 62 62 63 62 61 59 57 55 52 51 52 53 53 53 54 54 55 55 55 55 59 59 58 57 57 57 57
58 59 59 60 60 60 59 59 61 61 63 62 61 62 63 63 62 62 62 62 60 58 56 54 51 50 52 53 53 53 54 55 55 55 55 56 56 58 59 59 57 56 56
59 59 59 61 59 59 59 58 59 60 62 63 62 63 63 63 62 62 61 60 58 57 55 53 51 49 51 53 53 53 54 55 55 55 55 55 55 55 57 58 58 57 56
59 59 59 59 59 58 58 58 58 59 60 61 63 63 63 62 62 62 61 59 57 56 54 52 50 49 51 52 53 53 53 54 54 54 54 54 54 55 55 57 57 57 57
58 59 59 59 58 58 58 57 56 56 58 58 59 62 62 62 62 62 61 58 56 54 51 51 49 50 51 52 52 52 53 53 54 54 54 54 54 54 54 55 56 55 57
59 59 59 58 59 59 57 56 56 56 56 56 55 56 60 62 61 62 60 58 56 51 51 52 49 50 51 52 52 52 53 52 53 53 53 53 53 53 54 54 55 54 55
59 59 59 58 58 57 57 55 55 55 55 55 56 56 57 61 62 61 61 58 56 50 51 52 49 50 50 53 51 51 50 50 52 52 53 53 53 53 53 53 53 53 53
58 58 58 58 57 57 56 55 54 54 54 54 54 56 57 60 61 61 60 58 57 52 53 52 49 48 49 49 52 51 48 48 49 50 52 52 53 53 53 53 53 53 53
58 58 58 58 57 56 55 54 54 53 51 53 53 54 57 59 60 60 60 58 57 53 53 53 51 49 51 49 50 51 51 50 48 45 49 52 52 52 53 53 53 53 53
58 58 57 57 56 55 55 54 53 53 52 53 53 54 56 57 58 59 59 58 57 53 55 54 52 52 52 51 50 51 51 51 49 47 46 49 51 52 52 53 53 53 53
57 57 57 55 55 55 55 54 53 53 52 52 52 53 53 55 56 57 58 57 56 54 55 54 52 53 53 52 52 52 51 50 50 49 47 47 49 50 51 53 53 53 53

GFSSE_sfc_dewp_096.txt.gz
Dewpoint
67 69 71 72 72 72 71 71 72 72 73 73 72 72 72 72 72 72 72 71 71 71 72 72 72 72 71 70 71 70 70 70 69 69 70 69 69 69 69 69 69 67 69
68 70 71 72 72 72 71 71 71 72 73 73 72 72 72 72 72 72 72 71 71 72 72 72 72 71 70 70 70 70 70 69 69 69 69 68 68 68 68 68 68 67 69
68 69 71 71 72 71 71 71 71 72 73 73 73 72 72 72 72 72 72 71 71 71 71 71 71 70 70 70 70 70 69 69 68 68 68 65 65 67 67 67 68 68 67
68 69 70 71 71 71 71 71 72 72 72 72 72 72 72 72 72 72 71 71 70 71 71 70 70 70 70 70 69 69 68 68 67 66 63 63 63 66 66 66 66 66 66
69 69 70 70 71 71 71 71 71 71 71 71 71 72 72 72 72 71 71 70 69 70 71 70 69 70 70 69 68 68 67 66 66 63 61 62 63 65 66 66 65 66 65
67 69 69 69 70 71 71 71 71 71 71 71 71 71 71 71 71 71 70 70 70 70 70 69 70 69 68 68 67 67 66 66 64 62 62 63 62 64 64 64 64 64 64
66 67 68 69 70 71 71 71 71 71 71 71 71 70 70 68 67 69 69 68 68 69 69 69 69 68 68 67 67 66 65 64 62 61 60 61 61 62 62 63 63 63 63
65 66 67 70 70 70 71 71 70 69 70 70 70 70 69 67 67 67 68 67 67 67 68 68 68 68 67 66 65 64 64 63 61 60 60 60 63 62 61 61 62 62 61
65 65 66 67 69 70 69 69 69 69 69 69 68 68 68 67 66 66 66 66 66 67 67 68 67 67 66 65 64 63 63 62 60 60 59 59 63 61 61 61 61 59 58
64 64 65 65 66 67 67 68 68 68 67 67 67 67 65 64 65 64 64 65 66 67 67 67 67 66 65 64 63 62 62 62 60 60 60 60 62 61 61 60 60 59 57
63 63 63 64 64 64 65 67 67 67 66 66 66 66 64 64 64 64 64 64 66 65 65 67 66 64 64 63 62 62 60 58 58 59 60 63 62 61 61 58 57 59 60
62 62 64 62 62 62 64 66 66 65 65 65 64 64 64 63 62 64 64 65 64 65 65 65 64 63 62 60 60 59 56 56 57 58 60 62 62 61 61 60 60 60 60
61 60 64 62 61 61 62 64 64 65 64 64 63 63 63 62 62 62 62 64 64 64 64 64 61 60 59 58 56 55 55 56 56 57 60 62 62 61 61 59 60 60 60
57 59 62 62 60 60 60 61 63 63 62 62 61 62 62 62 62 61 62 62 63 64 64 60 59 58 57 56 55 55 55 55 55 56 59 61 61 61 60 59 60 60 59
56 58 60 62 62 61 60 60 61 62 62 61 61 61 62 61 61 61 62 63 62 64 63 58 56 56 55 54 55 54 54 54 55 56 57 59 60 61 59 60 60 59 59
57 57 59 62 62 62 61 60 60 60 62 62 62 62 62 62 62 62 62 62 61 62 61 57 55 54 54 54 54 54 54 54 55 56 56 57 59 60 60 59 59 60 58
57 58 58 60 60 61 59 60 61 61 62 62 62 62 63 63 62 62 61 61 61 61 60 56 54 53 53 53 53 54 54 55 55 55 55 56 58 58 59 60 59 58 57
58 58 59 61 60 59 59 58 59 62 63 62 62 62 63 62 62 62 62 61 61 59 57 54 52 53 53 53 53 54 54 55 55 55 55 56 56 56 58 59 59 58 57
58 58 58 60 60 59 58 57 57 58 62 63 62 62 62 63 61 61 62 61 59 58 56 54 51 52 53 53 53 53 54 55 55 55 55 55 55 55 56 57 58 58 58
59 59 58 60 59 57 58 57 57 57 57 59 62 62 62 63 62 62 61 59 59 56 54 53 50 52 53 53 52 53 53 54 54 54 54 55 55 55 55 56 56 56 57
58 58 58 59 59 59 58 57 57 57 57 55 56 59 62 62 62 62 61 58 58 56 54 52 50 51 53 53 52 52 52 53 53 54 54 54 54 54 55 55 55 55 55
57 58 58 58 59 59 59 57 56 56 56 54 54 56 57 60 62 62 60 58 57 55 54 51 50 51 52 53 51 51 50 51 52 53 53 53 54 54 54 54 55 55 55
57 58 58 58 58 58 57 56 55 55 54 53 54 53 54 57 60 62 60 58 57 55 54 52 50 50 51 53 53 51 49 48 50 52 52 53 53 53 53 53 54 54 54
57 58 58 58 58 57 56 55 53 53 52 52 52 53 56 56 59 60 60 58 57 56 55 53 50 50 51 51 52 51 52 51 49 47 50 52 53 52 53 53 53 53 53
58 58 58 57 57 57 55 55 53 51 53 53 52 54 56 57 58 61 60 58 57 54 55 54 51 50 52 52 52 51 51 51 50 48 47 50 52 52 53 53 53 53 53
58 57 57 57 57 56 55 53 52 51 52 52 53 53 55 57 58 59 59 59 57 55 54 54 53 51 53 52 53 52 51 50 50 48 47 49 50 52 53 53 53 53 54

GFSSE_sfc_dewp_099.txt.gz
Dewpoint
67 68 69 70 72 71 72 72 72 72 72 72 73 73 73 73 73 73 72 72 72 72 72 72 72 72 70 70 71 71 71 70 70 70 70 70 69 69 69 70 68 66 70
67 69 69 69 72 71 71 72 72 73 73 73 73 73 73 73 72 72 72 72 72 72 71 71 72 71 71 71 71 70 70 70 69 69 69 69 69 69 69 69 68 67 69
68 69 70 70 71 72 71 72 72 73 73 73 73 73 73 72 72 72 72 72 71 72 72 71 71 71 70 71 70 70 70 69 69 69 69 65 66 68 68 69 69 69 69
68 69 69 71 71 71 71 71 72 73 73 73 73 73 73 72 72 72 72 71 71 71 72 71 70 70 70 70 70 69 69 69 68 67 64 64 64 67 67 67 67 67 67
67 69 69 71 71 71 71 71 72 72 71 72 72 73 73 72 72 72 71 70 71 71 71 71 70 71 70 69 69 68 68 67 66 64 63 63 63 65 66 66 67 66 66
68 68 70 70 70 71 71 71 71 71 71 70 72 72 72 72 72 71 69 68 70 70 70 70 70 70 69 68 68 67 66 65 64 61 62 64 63 66 66 66 66 66 65
69 69 69 69 70 71 71 71 71 71 71 71 71 71 71 68 69 68 67 67 68 69 69 69 69 69 68 67 67 66 65 64 60 60 60 61 62 65 65 65 65 65 64
69 70 70 69 70 70 70 70 70 70 70 70 70 69 69 69 68 68 68 68 68 67 68 68 68 68 67 67 66 65 64 63 60 59 60 60 63 64 64 64 64 64 62
69 69 70 71 70 69 69 69 69 69 69 69 69 68 68 68 67 67 67 67 67 67 67 67 68 67 67 66 65 64 63 63 60 60 59 59 64 62 62 62 62 61 61
68 68 68 71 71 71 71 68 68 68 68 68 68 67 67 66 67 67 67 67 66 67 67 67 67 66 66 65 64 63 63 63 60 60 59 59 64 62 61 60 60 60 60
67 68 68 69 69 71 71 70 69 68 68 67 67 67 66 66 65 66 65 66 66 66 66 67 66 65 64 64 63 63 62 60 60 59 58 63 63 62 62 60 60 60 60
66 66 67 68 68 68 68 68 69 68 67 66 67 67 68 66 66 64 64 64 65 65 66 66 65 64 63 62 62 61 60 60 60 59 58 63 63 62 61 60 60 60 61
64 65 66 66 67 67 66 66 67 67 66 66 66 66 65 64 65 65 66 65 66 65 65 65 64 64 63 62 60 60 60 60 59 58 59 62 63 62 59 60 61 61 60
63 64 64 65 66 66 66 64 65 66 66 65 65 64 64 64 64 64 65 65 66 66 64 63 64 64 62 61 60 59 59 58 58 58 59 62 62 62 60 61 61 61 60
62 63 64 64 65 65 65 65 65 65 65 64 64 64 64 64 64 64 64 64 64 65 63 61 61 61 60 59 59 58 58 58 58 57 57 61 61 62 60 60 61 60 59
60 62 64 63 64 64 64 64 64 65 64 63 63 63 64 63 63 62 63 62 63 64 62 60 60 60 58 58 58 57 57 57 57 58 56 58 60 60 61 60 59 59 59
59 60 62 63 63 63 63 64 63 63 64 62 62 63 63 63 63 62 62 61 62 63 60 59 59 59 57 57 57 56 56 57 56 57 56 57 58 59 60 60 60 59 58
58 58 60 62 62 62 62 63 63 63 63 63 63 64 63 64 63 63 62 62 62 60 58 58 57 57 57 56 56 55 55 55 56 56 55 55 56 55 59 60 60 60 59
58 58 59 62 62 62 64 64 64 62 62 62 64 63 63 63 64 63 62 61 61 58 57 57 57 57 55 55 55 55 55 54 55 54 55 56 57 56 56 59 59 58 59
58 59 59 61 61 61 63 63 63 62 62 63 63 63 63 63 63 63 62 61 60 58 56 56 56 57 56 55 53 54 55 55 55 55 55 54 55 57 56 56 56 55 57
58 59 59 60 60 60 61 60 60 60 61 61 61 62 63 63 62 62 61 60 60 58 57 56 56 55 56 56 54 54 54 55 56 55 55 54 55 55 56 55 54 54 55
56 58 59 60 59 60 60 60 59 59 59 59 60 59 62 63 63 62 60 59 59 58 56 55 55 54 55 55 52 52 51 53 54 55 55 55 56 55 55 56 55 55 54
54 58 58 59 59 60 60 59 57 57 56 56 57 58 58 59 61 62 61 60 59 58 56 54 54 54 53 55 55 52 51 50 51 54 55 54 55 55 55 55 56 55 55
55 58 58 59 59 60 59 57 57 55 55 55 56 57 57 58 60 61 61 60 58 58 56 55 53 54 54 53 54 53 55 53 50 51 53 54 55 54 55 54 54 55 55
55 58 59 59 58 59 58 58 56 55 55 56 56 56 57 58 58 59 60 59 58 57 57 55 54 54 54 54 53 52 52 55 54 51 49 51 53 53 53 55 54 54 55
57 58 59 59 58 58 57 57 56 55 55 54 54 54 55 56 57 58 60 60 58 58 57 56 55 53 53 54 55 53 52 51 51 51 50 51 51 52 53 54 55 55 54

GFSSE_sfc_dewp_102.txt.gz
Dewpoint
64 65 70 71 72 72 73 73 73 73 73 73 73 73 73 73 73 73 73 73 73 73 72 71 72 71 71 70 71 71 71 71 70 70 71 70 70 70 69 70 69 66 70
64 66 70 71 72 72 72 73 73 73 73 73 73 73 73 73 73 73 73 73 72 72 71 71 72 71 71 71 71 71 71 70 70 70 70 70 70 69 69 69 69 68 69
66 67 68 69 72 72 72 72 73 73 73 73 73 73 73 73 73 72 72 72 72 72 71 71 71 71 71 71 71 70 70 70 70 70 69 66 66 69 69 70 69 69 69
64 67 68 69 71 71 72 73 73 73 73 73 73 73 73 73 72 72 72 72 72 72 72 71 71 71 71 71 70 70 70 69 69 68 66 64 65 68 68 68 69 68 68
64 65 68 70 71 71 71 72 73 73 73 73 73 73 73 73 72 72 71 71 71 71 71 70 70 70 71 70 69 69 69 68 68 66 63 64 64 66 68 67 67 68 67
64 65 70 70 71 71 71 71 72 72 71 72 72 73 73 72 71 70 69 69 68 69 70 70 70 71 69 69 68 68 67 66 66 62 63 64 63 67 67 67 67 67 66
66 67 70 69 70 71 71 71 71 71 71 71 72 72 72 71 70 68 68 68 68 68 69 69 69 69 69 68 67 66 65 65 61 59 60 62 64 67 66 66 66 66 66
69 69 70 70 70 70 71 71 70 70 70 70 71 71 69 69 69 68 68 68 67 67 68 68 67 68 68 67 66 65 64 64 59 58 58 61 66 66 66 65 65 65 64
70 71 71 71 70 69 69 69 69 70 70 70 70 69 68 68 68 68 68 68 66 67 67 69 68 68 67 66 65 64 64 64 59 57 56 59 65 65 65 64 63 63 62
70 70 70 70 70 71 71 68 68 69 69 69 69 68 67 67 68 68 67 67 68 67 66 67 67 67 67 65 64 64 63 63 59 58 57 60 64 64 63 63 62 62 61
67 68 70 69 69 69 69 69 69 69 68 68 68 67 66 67 67 66 65 67 67 67 67 67 67 65 65 64 64 63 63 59 58 57 58 63 64 62 61 62 61 61 61
66 67 67 68 68 69 67 70 70 70 70 69 68 68 66 66 65 62 64 66 66 66 66 64 64 65 65 64 62 62 59 60 58 57 59 64 64 62 62 61 61 61 61
62 65 66 68 68 68 66 68 69 70 70 70 68 69 69 68 66 64 64 63 64 65 66 64 64 65 64 66 63 63 61 60 56 57 60 63 64 62 62 60 60 61 61
61 64 66 67 68 68 65 67 67 68 68 68 68 68 68 67 66 66 65 63 65 64 65 64 64 64 64 64 62 62 60 57 55 57 60 62 63 62 61 61 61 61 61
60 63 66 67 67 66 66 65 66 66 67 66 67 66 67 65 65 64 64 65 64 67 65 64 64 63 64 63 61 60 58 57 56 55 58 62 62 62 61 61 61 61 60
58 61 65 66 67 66 65 65 64 65 66 66 66 66 66 65 65 65 65 64 66 66 66 64 63 63 64 63 60 59 58 57 57 56 57 59 61 61 62 61 61 60 60
55 59 64 66 66 66 65 65 63 61 65 65 65 65 65 65 65 64 64 64 65 66 62 62 62 62 62 61 59 58 57 57 55 54 56 58 59 60 60 61 61 60 59
51 57 62 64 65 65 65 64 62 61 63 64 64 64 65 65 64 64 64 64 64 64 62 61 60 60 61 61 58 57 56 55 55 54 52 56 56 55 59 60 61 61 60
50 55 60 64 64 64 64 64 63 64 63 64 63 64 64 64 63 63 63 63 63 60 61 60 59 59 60 60 57 56 55 54 55 53 53 53 56 56 56 59 59 59 60
50 56 59 61 64 64 64 64 62 63 63 63 63 63 64 63 63 63 63 61 60 58 58 59 58 59 59 58 55 55 55 54 54 54 53 51 55 56 56 57 57 56 59
47 55 58 61 63 62 63 62 62 62 62 63 63 63 63 64 63 63 62 61 59 58 57 57 57 57 58 59 55 55 56 55 55 55 55 52 52 54 55 55 55 54 55
44 53 57 58 61 62 62 61 61 61 61 61 62 63 63 64 64 63 62 61 60 58 57 57 57 56 57 58 55 53 52 54 55 55 54 54 53 52 53 53 54 53 52
44 51 55 57 60 61 61 60 60 61 61 61 61 61 62 63 63 62 62 61 59 59 57 58 58 58 56 57 58 53 51 50 52 54 55 54 54 52 52 53 54 53 53
43 49 53 56 59 61 61 60 60 57 57 58 59 59 60 62 62 62 62 61 60 59 57 58 58 57 56 54 56 54 54 52 50 51 53 54 55 54 54 52 52 53 53
39 49 54 56 57 60 61 60 59 58 57 57 58 58 59 59 61 61 61 61 61 59 58 57 58 58 57 55 55 55 55 54 53 49 49 52 54 54 52 53 52 52 53
38 48 56 56 57 59 60 60 60 59 58 56 57 57 57 57 57 58 60 61 60 60 59 57 56 57 57 57 57 57 54 53 53 51 48 51 52 52 52 52 54 53 53

GFSSE_sfc_dewp_105.txt.gz
Dewpoint
58 65 71 72 72 72 73 73 73 73 73 73 73 73 73 73 73 73 74 74 73 73 73 72 72 72 71 70 70 72 72 71 71 71 71 71 70 69 69 70 69 67 70
59 65 70 72 72 72 72 73 73 73 73 73 73 73 73 73 73 73 73 73 73 73 72 71 71 71 71 71 72 72 71 71 71 70 71 70 70 69 69 69 69 68 70
62 66 68 71 72 72 72 73 73 73 73 73 73 73 73 73 73 73 73 73 72 73 72 71 71 71 71 71 71 71 71 70 70 70 69 65 66 69 70 70 70 70 69
58 66 67 71 72 72 72 73 73 73 73 73 73 73 72 73 73 73 72 72 71 71 71 71 71 71 71 71 70 70 70 70 69 69 66 66 65 69 69 69 69 69 68
56 62 67 70 71 72 72 73 73 73 73 73 73 73 73 73 72 71 72 71 70 71 70 70 70 71 71 70 70 70 69 69 69 67 66 66 65 67 69 68 68 68 67
56 59 69 69 71 71 72 72 73 73 72 72 72 72 73 72 71 71 70 71 71 70 71 71 70 70 70 69 69 69 68 68 68 63 65 65 65 67 67 68 67 67 67
59 62 70 69 70 71 71 72 72 72 72 72 72 72 72 71 71 70 70 69 70 70 70 70 70 70 69 69 67 67 67 67 64 65 62 64 65 67 67 67 67 66 66
63 66 70 70 70 71 71 71 71 71 70 71 72 71 71 70 70 69 69 69 69 69 69 69 69 69 69 67 67 66 65 65 63 62 63 64 67 67 66 66 66 65 65
67 69 71 70 70 70 70 69 69 70 70 70 71 70 69 69 68 69 68 68 68 68 69 69 68 68 68 67 66 65 64 64 62 60 61 62 67 66 66 65 64 64 64
68 70 70 70 70 70 70 69 69 69 69 69 69 69 68 68 68 68 67 67 67 67 68 68 67 67 66 66 65 64 63 64 59 59 60 61 66 65 65 64 63 62 62
66 68 69 68 68 69 69 69 69 69 69 69 69 67 67 68 68 67 65 66 67 67 67 67 66 66 65 65 64 63 63 58 59 60 59 65 65 65 64 63 62 62 61
63 65 66 67 67 67 67 69 69 68 68 68 67 68 68 66 67 65 65 67 67 67 66 66 65 65 65 65 65 63 61 62 61 60 59 64 65 63 63 62 62 61 61
58 61 63 66 67 67 67 67 67 68 69 69 69 69 69 67 69 66 68 63 64 66 64 63 63 64 63 63 64 62 63 63 60 59 61 64 64 63 62 62 61 61 61
55 59 62 64 67 68 63 66 67 67 68 67 68 69 69 69 69 68 66 65 65 66 64 66 65 64 63 63 63 63 61 60 59 59 61 63 63 63 62 62 61 61 62
52 57 62 63 66 66 67 65 65 65 67 67 67 67 68 67 67 67 66 65 64 66 65 65 65 63 63 62 63 62 61 60 60 59 60 62 63 63 61 61 61 62 62
49 55 62 64 66 66 65 66 65 65 65 67 66 66 67 67 67 65 65 64 64 67 67 66 65 63 63 62 63 63 59 56 58 60 58 60 61 62 62 62 62 61 61
42 50 62 66 66 66 65 65 64 63 63 66 66 66 66 66 66 65 65 64 65 67 66 66 65 63 63 64 63 62 57 55 55 58 58 58 60 60 61 62 62 61 60
38 47 58 63 66 66 65 64 63 61 62 64 65 66 66 66 65 66 65 65 65 66 65 64 63 61 62 62 61 60 56 55 54 57 56 57 58 56 60 61 62 62 61
35 44 54 63 65 66 65 64 64 63 61 60 63 63 65 65 65 65 64 64 65 64 63 62 62 61 61 61 61 57 56 54 54 49 57 57 57 57 55 60 60 60 61
36 45 52 60 65 66 64 64 62 62 63 62 62 62 63 64 65 64 64 63 64 63 62 61 60 61 61 61 61 57 56 57 53 53 51 54 57 58 55 57 58 57 59
38 46 52 59 64 64 63 62 61 62 62 63 63 63 63 62 63 64 64 62 61 60 60 60 60 59 60 60 59 58 59 58 56 56 54 50 52 55 54 58 57 55 56
40 44 52 55 60 63 63 61 60 62 62 62 63 62 62 61 63 63 63 61 60 58 58 58 58 58 58 60 56 55 53 54 56 56 55 53 56 53 54 57 57 56 55
39 44 46 53 57 62 62 61 61 62 61 60 61 61 62 62 63 63 63 61 60 59 57 58 58 58 57 58 57 54 51 51 53 56 56 54 55 53 53 54 55 53 54
42 45 44 51 54 59 62 60 61 58 59 60 60 60 61 62 62 63 63 61 60 59 58 58 58 58 58 56 57 59 56 55 52 51 54 55 55 53 55 53 53 53 52
38 44 49 48 52 57 61 61 61 59 59 59 59 60 60 61 61 62 62 62 60 60 59 59 59 60 59 57 56 57 57 55 55 50 49 53 55 54 52 53 52 53 53
38 42 48 49 51 56 60 62 62 60 58 57 58 58 59 60 60 60 62 62 61 60 59 59 59 59 58 58 57 56 54 53 53 51 50 53 53 54 54 54 54 54 54

GFSSE_sfc_dewp_108.txt.gz
Dewpoint
63 68 72 73 73 73 73 73 73 73 73 73 73 73 73 73 74 74 74 74 73 74 73 72 73 72 71 71 71 72 72 72 71 71 71 71 70 70 70 70 70 68 70
64 67 71 72 73 73 73 73 73 73 73 73 73 73 73 73 74 74 74 74 74 73 73 72 73 72 71 71 72 71 71 71 71 71 71 71 70 70 70 70 70 69 70
65 68 69 71 72 73 73 73 73 73 73 73 73 73 73 73 73 74 73 73 73 72 72 71 71 71 71 72 71 71 71 70 70 69 69 66 68 70 70 70 70 70 70
64 66 69 71 72 72 73 73 74 74 73 73 73 73 73 73 73 73 73 72 72 72 71 70 71 71 71 71 71 70 70 70 69 69 67 67 67 70 69 70 70 69 69
63 64 69 71 71 72 73 73 73 73 73 73 73 73 73 73 72 73 72 72 71 72 72 70 70 71 71 70 70 70 69 69 68 68 66 67 67 68 69 69 69 69 68
60 65 69 70 71 72 72 73 73 73 72 72 73 73 73 72 72 72 71 71 71 71 71 71 71 71 70 69 69 69 68 68 68 64 65 67 66 68 68 68 68 68 67
66 70 69 69 70 71 72 73 73 72 72 72 72 72 72 72 72 71 71 71 70 71 71 71 71 70 69 69 69 68 68 67 65 65 64 65 66 68 68 67 67 67 66
70 71 69 70 70 70 71 72 71 71 71 71 70 71 72 71 71 70 70 70 70 70 70 70 70 69 69 68 68 67 67 67 66 65 65 65 67 68 67 66 66 66 66
70 72 71 70 70 70 69 70 70 70 70 69 70 71 71 70 70 70 69 69 69 69 69 69 69 68 68 67 67 66 65 65 64 65 66 65 68 67 67 66 65 65 64
71 72 71 70 70 70 70 69 69 69 69 69 70 70 68 68 68 68 68 68 68 68 68 68 68 67 67 66 65 64 64 64 62 64 65 64 67 67 66 65 64 64 64
69 70 71 70 69 70 69 69 69 69 69 69 69 68 67 69 68 67 66 67 67 66 67 68 67 66 65 65 65 64 64 62 62 60 62 66 67 66 65 64 64 63 62
66 68 69 69 69 69 66 69 69 69 69 69 69 69 69 69 68 66 65 67 66 66 67 67 66 65 64 65 65 64 63 62 62 60 62 65 66 65 65 64 63 62 62
64 65 66 69 69 69 67 69 68 68 68 68 68 69 69 68 68 67 68 65 66 66 66 65 64 63 63 64 64 64 63 63 63 60 63 65 65 64 64 63 62 61 62
59 62 64 67 69 69 67 68 68 67 69 69 69 69 68 68 67 67 67 66 65 65 65 63 63 64 62 62 62 62 63 63 61 59 62 63 64 64 63 63 62 61 62
55 60 63 66 68 68 69 67 68 68 68 68 68 68 68 68 67 67 66 66 65 66 65 64 63 63 62 62 62 62 62 62 61 60 61 62 63 64 62 62 62 62 62
52 58 63 64 68 68 67 68 67 67 68 68 67 67 68 68 67 66 66 65 65 66 65 65 64 63 62 62 61 62 62 62 59 60 61 61 62 62 62 62 62 62 62
44 54 64 65 68 67 67 68 66 66 66 66 66 66 67 67 66 65 65 65 65 66 65 64 64 63 62 62 61 62 62 61 60 59 59 61 61 61 61 62 62 62 61
38 45 64 64 66 68 67 66 65 66 65 65 66 67 65 66 66 66 65 64 64 65 64 64 63 63 62 61 60 61 62 60 59 58 58 59 59 59 61 62 62 62 62
34 45 63 66 66 67 67 66 66 66 65 65 65 65 65 65 66 65 64 64 64 64 64 63 63 62 61 61 62 61 62 58 58 57 57 58 58 58 59 61 61 61 61
34 45 62 65 66 67 66 66 65 65 64 64 63 64 65 64 65 65 64 64 64 64 63 62 61 62 61 61 62 62 61 56 54 56 57 58 58 57 57 59 59 59 59
41 46 57 64 66 66 65 64 63 63 64 64 63 63 63 63 64 65 64 63 63 62 62 61 61 61 60 61 60 59 58 58 55 56 57 57 57 56 57 58 58 57 59
42 48 54 62 66 65 64 64 63 63 64 63 63 63 63 64 64 64 63 62 61 60 60 60 60 59 59 61 58 56 53 54 56 54 54 55 55 54 56 57 57 56 56
47 51 49 55 64 64 64 63 62 63 63 62 62 62 62 63 63 63 63 61 60 59 58 59 59 58 57 59 59 55 52 51 53 56 55 54 55 54 54 55 57 56 55
48 52 48 51 59 63 64 62 61 61 60 60 61 60 61 62 62 63 63 61 59 59 58 58 58 58 58 57 58 59 56 54 52 51 55 55 55 55 54 54 55 55 54
46 48 53 49 53 60 63 61 61 61 61 60 61 60 60 62 62 63 62 61 59 58 58 58 58 58 59 57 56 56 56 56 54 52 51 53 55 55 55 54 53 55 53
48 48 50 52 51 56 63 62 61 61 60 60 60 60 60 60 61 62 62 61 59 58 58 58 58 58 58 58 57 57 55 53 52 51 50 52 52 53 54 55 54 54 54

GFSSE_sfc_dewp_111.txt.gz
Dewpoint
68 70 71 72 73 73 73 72 72 73 73 73 73 73 73 73 73 73 73 74 74 74 73 72 73 73 71 71 72 73 72 72 70 71 71 72 71 70 71 71 70 69 71
68 71 71 72 72 73 73 73 72 73 73 73 73 73 73 73 73 73 73 73 74 74 73 72 72 71 71 71 72 72 72 71 70 70 70 71 71 70 70 71 70 70 70
68 70 71 71 72 72 73 73 73 73 73 73 73 73 73 73 73 73 73 73 73 73 72 71 71 71 71 71 71 71 71 70 70 70 70 68 68 70 70 71 70 70 70
68 69 70 71 71 72 72 73 73 73 73 73 73 73 73 73 73 73 73 72 72 73 72 71 71 71 71 71 71 71 70 70 69 69 68 68 68 70 70 70 70 70 69
66 69 70 70 71 72 72 73 73 73 73 73 73 73 73 73 73 73 72 72 72 72 72 71 71 71 71 70 70 70 70 69 68 67 67 67 67 68 69 69 69 69 68
65 68 69 70 70 72 72 73 73 71 72 72 72 73 73 73 73 72 71 71 71 72 72 72 71 71 70 69 69 69 68 68 66 66 66 67 67 69 69 68 69 68 68
67 68 69 69 70 71 73 73 72 71 71 72 72 73 73 72 72 71 71 71 71 71 71 72 71 70 69 69 69 68 67 67 66 65 65 67 67 69 68 68 68 67 67
67 68 69 70 70 71 72 72 71 71 71 71 72 72 72 71 71 71 70 70 70 70 70 70 70 69 69 68 67 67 66 66 65 65 66 67 68 68 68 67 67 66 66
69 68 68 69 69 69 70 70 70 70 70 69 69 71 71 70 70 70 70 70 70 69 69 70 69 68 68 68 67 66 65 65 64 65 66 66 68 68 67 66 66 65 65
69 68 68 68 68 68 68 69 69 69 69 68 68 69 69 69 69 69 69 69 69 69 69 69 68 68 67 67 66 65 64 64 63 64 66 67 68 67 67 66 65 64 64
70 68 68 68 68 68 67 68 69 69 69 68 69 68 67 68 68 68 67 67 68 68 68 68 68 66 66 65 65 64 64 64 63 65 65 66 68 67 66 65 65 64 62
68 69 68 68 68 68 68 67 67 68 68 67 68 67 68 67 67 67 66 66 66 66 67 67 66 65 64 63 64 64 63 63 63 64 64 65 67 66 66 64 64 63 63
67 69 68 68 68 68 67 67 68 67 67 67 67 67 67 67 67 66 65 66 65 65 66 66 65 63 62 63 63 64 63 64 63 64 64 65 66 66 65 64 63 62 62
66 66 68 68 68 68 67 67 67 67 67 67 67 67 67 66 65 66 65 64 64 65 64 63 63 62 61 62 63 63 62 64 63 63 63 64 64 66 64 64 63 62 61
63 65 66 67 67 66 66 68 67 67 67 67 67 67 66 65 64 65 65 64 64 64 64 63 62 62 60 61 61 61 62 62 63 63 64 63 64 65 64 63 63 62 62
61 63 64 65 67 66 66 67 66 66 67 67 67 67 66 65 64 64 64 64 63 64 63 63 62 61 60 61 61 62 62 63 62 62 62 62 62 63 63 63 62 62 62
52 61 62 65 67 66 66 67 66 66 66 65 65 66 67 66 65 64 63 63 63 64 63 63 61 61 60 61 61 62 62 62 62 61 61 61 61 61 62 63 63 63 62
35 58 62 64 66 66 65 66 65 65 64 64 64 64 66 66 65 64 63 63 63 63 63 62 62 61 61 61 61 61 61 63 63 61 61 61 60 59 61 62 62 62 62
27 45 61 64 65 66 65 65 64 65 64 64 64 64 64 66 65 64 64 63 64 63 62 62 61 62 60 61 61 60 61 62 62 60 59 60 59 59 59 61 61 61 62
26 42 61 63 65 65 65 65 64 64 64 64 64 64 64 64 64 64 63 62 63 62 63 62 61 61 61 61 61 60 60 62 62 59 58 59 58 58 59 60 60 60 60
28 42 62 63 65 65 65 64 63 63 64 64 64 63 63 63 64 63 63 62 62 62 62 62 61 61 60 60 60 60 60 60 60 59 58 58 57 57 58 59 59 59 59
32 36 63 63 65 64 64 63 63 62 62 62 62 63 63 63 63 63 62 61 62 61 61 61 61 59 60 61 58 58 53 55 58 58 58 58 57 57 57 58 58 58 58
37 36 61 64 65 64 64 63 63 63 62 61 60 60 62 62 63 63 62 61 61 60 60 60 60 58 57 60 60 56 52 51 54 56 56 56 56 55 57 57 57 57 57
41 44 50 64 64 64 64 62 62 61 61 61 60 60 61 62 62 62 61 60 59 58 58 59 59 59 58 58 58 58 56 53 51 51 55 54 55 55 55 57 56 56 56
52 53 53 50 64 64 63 62 61 61 61 60 60 60 61 61 61 62 60 59 58 58 58 58 58 59 59 58 57 56 55 55 55 53 50 53 55 55 54 55 56 56 56
48 49 51 53 52 63 63 62 61 61 61 59 60 59 60 61 61 62 61 59 58 58 58 57 58 58 58 58 57 56 55 53 53 53 52 53 52 53 54 55 55 55 55

GFSSE_sfc_dewp_114.txt.gz
Dewpoint
67 70 72 73 72 72 72 72 72 72 73 73 73 73 73 74 73 74 74 74 74 74 72 72 73 73 72 72 72 72 72 71 71 72 72 71 71 71 71 71 71 69 71
68 70 71 72 73 72 72 72 72 72 73 73 73 73 73 73 73 73 74 74 74 73 72 72 72 72 72 72 72 72 71 71 71 70 71 71 71 70 70 71 70 70 71
68 70 71 71 72 73 72 72 73 73 73 73 73 73 73 73 73 73 73 73 73 73 72 72 72 72 71 72 71 71 71 71 70 70 70 68 69 70 70 70 70 70 70
69 70 70 71 71 72 72 72 73 73 73 73 73 73 73 73 73 73 73 73 73 73 72 72 72 71 71 71 70 70 70 70 69 69 68 68 68 69 70 70 70 70 69
69 70 70 70 71 72 72 72 73 73 73 73 73 73 73 73 73 73 72 71 72 73 72 72 72 71 71 70 70 70 69 69 69 68 67 68 67 69 70 70 69 69 69
68 68 69 70 70 71 72 72 73 72 72 72 72 73 73 73 73 72 71 71 72 73 72 72 72 71 69 69 69 69 68 68 67 66 67 68 67 69 69 69 69 68 68
67 68 69 69 70 71 72 72 72 70 71 72 72 72 72 73 73 72 71 71 71 72 72 72 71 70 69 69 68 68 67 67 66 65 65 66 67 69 69 68 68 68 68
67 68 68 69 70 71 72 72 70 70 70 71 72 72 72 72 71 71 71 70 70 71 71 70 70 69 69 68 68 66 66 66 66 65 66 66 68 68 68 67 67 67 67
67 67 68 68 70 70 70 70 69 70 70 70 71 71 71 70 70 70 70 70 70 70 70 70 69 68 68 68 67 66 65 65 65 65 65 67 68 68 67 67 66 66 65
66 67 67 67 68 69 70 69 69 69 68 68 70 70 69 69 69 69 69 69 69 69 69 69 68 68 68 67 65 65 65 64 64 65 66 66 68 68 67 66 66 65 65
66 66 67 67 67 66 67 69 69 69 68 67 68 68 67 68 68 68 68 68 68 68 68 68 68 67 66 65 65 64 65 64 65 65 65 65 67 67 67 66 65 64 64
66 66 67 67 66 66 67 68 67 69 68 68 67 67 67 67 67 68 67 67 67 67 67 67 67 66 65 63 63 64 63 63 64 64 64 65 67 67 66 65 65 64 63
67 67 67 67 67 66 66 66 67 67 67 67 67 67 66 66 66 66 65 66 65 66 66 66 65 63 62 62 62 62 62 63 63 65 65 65 66 66 66 64 63 63 63
68 67 67 67 67 67 67 66 66 66 66 67 67 66 66 66 65 64 64 64 64 63 65 65 64 61 61 61 62 62 62 63 63 64 64 64 65 66 65 64 63 62 62
66 68 68 67 67 67 67 66 66 66 66 66 66 66 67 66 65 65 64 64 63 63 63 63 61 61 60 61 61 61 61 62 63 63 64 63 64 65 65 64 63 62 61
65 67 68 67 67 67 67 67 66 66 66 66 66 66 66 66 65 65 64 63 63 63 63 62 62 61 60 59 60 60 61 62 62 63 64 64 63 64 64 64 63 62 61
64 65 67 67 67 67 66 67 67 67 67 67 66 66 66 65 64 64 64 63 64 63 62 62 60 59 59 59 59 60 61 62 62 62 63 63 63 62 63 63 63 63 62
61 63 65 67 67 66 65 66 66 66 67 66 66 66 66 65 65 63 63 63 63 63 63 61 61 61 60 60 58 59 60 62 62 62 63 63 62 62 61 62 62 62 63
39 60 63 65 66 66 65 66 66 65 66 65 65 66 66 65 65 64 63 62 63 62 62 62 62 61 60 60 60 60 61 61 62 63 62 61 61 60 60 61 61 61 62
27 50 61 64 65 66 65 66 65 64 64 65 64 64 64 65 65 64 63 62 63 63 62 62 61 61 61 60 60 60 60 61 62 62 61 60 60 59 59 60 61 60 60
29 41 60 62 64 65 65 64 64 63 63 63 64 64 63 64 64 64 63 62 62 63 62 62 62 61 60 61 60 60 59 60 61 61 61 60 59 58 59 59 60 60 60
33 42 58 61 64 65 65 64 64 63 62 63 63 63 63 63 63 63 62 62 62 62 62 62 61 60 60 61 58 57 54 56 59 60 60 59 58 58 58 59 59 59 59
52 52 58 61 64 64 64 64 63 61 61 60 61 62 62 63 63 63 62 62 61 61 61 61 61 60 58 60 59 56 52 51 55 58 59 58 57 57 57 58 59 58 58
48 50 52 57 64 64 64 63 63 62 61 61 62 62 62 63 63 63 62 61 61 61 61 60 61 60 58 57 59 59 57 55 52 52 57 58 57 56 56 57 58 57 58
45 47 48 51 55 64 64 63 63 62 62 60 61 60 61 62 62 62 61 60 59 58 58 58 59 59 59 58 58 56 57 55 55 54 52 54 55 56 56 57 57 56 56
42 43 45 47 49 54 58 63 63 62 61 60 60 60 60 61 60 61 61 60 58 57 56 57 58 58 58 58 58 57 55 54 53 54 53 53 54 55 55 56 56 56 56

GFSSE_sfc_dewp_117.txt.gz
Dewpoint
67 71 72 73 73 72 72 72 72 72 72 73 73 73 73 73 73 73 73 74 73 73 72 72 73 73 71 71 71 71 71 71 72 72 72 71 71 71 71 71 71 69 71
68 71 71 72 73 72 72 72 72 72 72 73 73 73 73 73 73 73 73 74 73 73 72 72 72 71 71 71 72 71 71 71 71 71 71 71 71 70 70 71 71 69 70
68 71 71 71 72 72 72 72 72 73 73 73 73 73 73 73 73 73 73 73 73 73 72 72 72 71 71 71 71 71 71 71 70 71 71 69 68 70 70 70 70 70 70
69 70 71 71 72 72 72 72 72 73 73 73 73 73 73 73 73 73 73 73 73 73 72 72 72 71 71 71 71 71 71 70 70 70 68 68 68 70 70 70 70 70 70
68 70 70 71 71 72 72 72 72 72 72 72 72 73 73 73 73 73 73 73 73 73 72 71 71 71 71 70 70 70 70 69 69 68 67 67 68 68 70 70 70 70 69
68 69 69 70 71 72 72 72 72 72 71 71 72 73 73 73 73 73 71 72 73 72 72 71 71 70 70 69 69 69 69 68 68 66 67 68 67 69 70 69 69 69 69
68 69 69 69 70 71 72 72 72 71 71 71 72 72 72 73 73 72 71 71 71 72 72 72 71 70 69 69 69 68 67 67 66 65 66 66 67 69 69 68 68 68 68
67 68 69 70 70 70 71 71 71 70 71 71 71 71 72 72 71 71 71 70 71 71 71 71 70 69 68 68 68 67 66 66 66 65 66 66 67 68 68 68 68 68 67
67 68 68 69 70 70 70 70 69 69 70 70 70 70 71 70 70 70 70 70 70 70 70 70 69 68 68 68 67 66 65 66 65 65 66 66 68 67 68 67 67 67 67
66 67 67 68 69 69 70 68 68 68 69 69 70 70 69 69 69 70 69 69 70 70 70 69 68 68 68 67 66 65 64 65 64 64 65 66 67 68 68 67 66 66 65
65 66 66 67 68 68 69 69 69 69 69 69 69 69 68 68 68 69 68 68 69 69 69 69 68 67 66 65 65 65 64 63 64 64 65 66 67 67 68 66 66 65 65
64 65 66 66 66 66 68 69 69 69 68 67 68 68 68 67 67 68 68 68 68 68 68 68 67 67 65 63 63 64 63 63 64 64 64 66 67 67 68 66 65 65 64
63 64 65 66 66 66 67 68 67 68 68 66 66 66 67 66 66 66 65 67 66 67 66 66 66 64 62 62 61 61 61 62 63 64 65 65 67 67 67 65 64 64 63
64 63 65 66 66 66 66 66 66 66 67 67 67 66 67 66 65 64 64 64 64 64 64 64 64 62 61 61 61 61 61 62 62 64 64 64 66 67 66 65 64 63 62
64 64 65 65 65 65 65 65 66 66 66 66 67 66 67 66 66 64 63 63 62 62 65 64 63 61 60 60 61 61 61 61 61 62 63 63 64 66 66 65 64 62 61
65 66 65 65 65 65 65 64 65 65 65 65 65 66 66 66 66 64 63 63 62 62 62 63 62 61 60 60 60 61 60 61 61 61 62 64 63 64 65 65 64 62 61
65 66 66 65 65 65 65 65 64 65 65 65 65 64 66 65 64 64 64 63 63 62 61 60 59 59 58 59 59 60 60 60 61 61 62 63 63 62 63 64 64 63 62
63 65 67 67 66 66 65 66 66 65 65 65 65 65 65 65 64 64 64 63 63 62 62 61 61 60 58 58 57 58 59 60 61 61 62 63 63 63 62 63 63 63 63
61 63 66 67 67 66 66 66 66 66 66 66 66 66 65 65 64 63 63 63 62 63 62 62 62 61 60 60 59 57 59 59 60 62 62 62 63 63 63 62 62 61 62
49 61 64 66 66 67 66 65 65 64 65 66 66 66 65 65 64 63 63 62 62 62 62 62 61 61 61 60 59 60 60 61 61 62 62 62 62 61 61 61 61 60 60
28 40 62 64 66 66 65 65 65 64 64 64 65 65 65 65 64 63 63 62 62 63 62 62 62 61 60 61 59 59 59 60 61 61 62 62 61 60 60 60 60 59 60
51 44 52 62 64 65 65 65 65 65 63 64 62 63 64 64 64 63 63 62 62 63 62 62 61 60 61 60 58 57 54 57 59 61 61 61 60 60 59 59 59 59 59
47 49 53 60 62 64 65 65 62 62 62 61 62 63 63 63 63 63 62 62 62 62 62 62 62 60 59 60 59 57 52 52 55 59 59 60 59 59 59 59 59 59 59
43 45 48 51 59 64 64 64 62 62 62 62 62 63 62 63 62 62 62 62 61 62 61 62 61 61 60 58 59 59 57 55 54 52 57 58 59 58 57 58 59 59 59
41 43 45 47 50 53 59 64 63 62 62 60 61 62 62 62 62 62 62 61 61 62 62 61 60 60 59 58 58 57 57 56 55 54 53 54 57 58 57 57 58 58 58
39 41 43 45 47 50 53 55 63 63 61 60 60 61 61 61 61 62 62 61 61 61 59 59 59 60 59 58 58 57 56 54 55 54 53 54 54 56 57 57 57 57 57

GFSSE_sfc_dewp_120.txt.gz
Dewpoint
66 70 72 73 72 72 72 72 72 72 72 73 73 73 73 73 73 73 74 74 73 73 72 72 73 73 72 71 72 72 72 72 71 71 72 72 71 71 71 71 71 69 71
67 70 71 72 72 72 72 72 72 72 73 73 73 73 73 73 73 73 74 73 73 73 72 72 73 72 71 72 72 72 71 71 70 71 71 71 71 70 71 71 70 70 71
68 70 71 72 72 72 72 72 72 73 73 73 73 73 73 73 73 73 73 73 73 73 72 72 72 71 71 72 71 71 72 71 70 70 71 69 69 70 71 71 71 71 70
69 70 70 72 72 72 72 72 72 72 73 73 73 73 73 73 73 73 73 73 73 73 72 72 72 71 71 71 71 71 71 71 70 70 69 69 69 70 70 70 70 70 70
69 70 70 71 71 72 72 72 72 72 72 72 72 73 73 73 73 73 73 72 73 73 72 70 71 71 71 70 70 70 70 70 69 68 68 68 69 69 70 70 70 70 70
69 70 70 70 71 72 72 72 72 72 71 71 72 73 73 73 73 73 72 72 72 72 71 70 70 71 70 69 69 69 69 68 68 67 67 68 68 69 69 69 69 69 69
68 69 70 69 70 71 72 72 72 71 71 71 72 72 72 73 73 72 72 72 72 72 72 71 71 70 69 69 69 68 68 67 67 66 67 67 67 69 69 69 69 69 69
67 68 69 70 70 70 71 71 70 70 70 71 71 72 72 72 72 71 71 71 71 71 71 71 69 69 68 68 68 67 66 66 66 66 66 66 67 68 69 68 68 68 68
67 67 68 69 70 69 69 70 69 69 70 70 70 70 71 70 70 70 70 70 71 71 71 70 69 68 68 68 67 66 65 66 65 66 66 66 67 67 68 67 67 68 68
66 67 67 68 68 68 70 68 68 69 69 69 70 69 69 69 69 70 69 70 70 70 70 69 68 68 68 67 66 65 65 66 65 65 66 66 66 66 67 67 67 66 66
65 66 67 68 68 69 69 69 68 69 69 68 69 69 68 69 69 69 69 68 69 69 69 68 68 67 66 66 66 64 64 64 64 64 65 66 66 67 66 67 66 66 66
63 65 66 67 67 67 67 68 69 69 69 69 69 68 67 66 67 68 68 68 68 68 68 68 67 66 65 65 64 65 63 63 63 64 64 66 67 67 68 67 66 66 65
62 64 66 66 66 66 66 67 68 67 68 67 67 67 67 66 66 66 66 67 66 67 66 66 66 65 63 62 62 63 63 62 63 64 65 65 66 67 67 67 66 65 65
62 63 65 66 66 66 66 66 66 66 67 67 66 66 68 67 66 64 65 65 65 65 64 64 65 63 62 62 61 61 61 62 62 63 64 64 65 67 67 67 65 64 64
61 62 64 65 65 66 65 65 65 65 67 66 66 66 68 67 66 64 63 64 64 63 64 64 64 61 61 61 61 61 61 61 61 63 63 63 64 65 67 66 64 64 63
63 62 63 64 64 65 65 65 64 65 65 65 66 66 67 66 66 65 63 63 62 64 65 64 63 61 60 60 60 60 60 61 61 62 62 63 63 64 65 66 64 63 62
64 63 64 64 64 64 64 64 64 65 65 64 64 65 65 66 65 65 64 63 62 62 63 63 61 59 59 59 59 60 61 61 61 61 62 62 63 62 63 65 66 64 63
63 65 65 64 64 64 64 64 64 64 64 64 64 65 65 65 65 64 64 63 62 62 61 61 61 60 58 58 58 59 59 60 60 60 61 62 63 63 63 63 64 64 63
62 64 66 65 64 64 64 64 64 63 64 64 64 64 65 65 64 64 64 63 62 62 62 61 61 61 60 59 58 57 58 59 60 61 61 61 62 63 63 63 63 62 62
57 63 65 66 66 65 64 64 64 64 64 64 64 64 64 65 64 64 63 62 63 63 62 62 61 61 61 60 60 59 59 59 60 60 61 62 63 63 63 63 63 62 60
38 33 61 65 66 66 65 64 64 63 64 65 65 64 64 64 64 63 63 62 63 63 62 61 62 61 60 61 59 59 59 60 60 61 61 62 62 62 62 62 62 61 61
46 47 49 59 65 66 66 65 64 64 65 65 65 65 65 65 64 64 63 62 63 63 63 62 62 60 60 61 58 57 55 57 59 60 61 61 61 62 61 61 61 60 60
43 44 46 50 61 65 66 66 63 63 62 63 63 64 64 65 64 64 63 63 63 63 63 62 62 61 59 60 60 57 53 52 55 59 59 61 61 60 60 61 60 60 60
40 42 44 47 52 60 65 65 63 63 62 63 63 64 64 64 64 64 63 63 63 63 63 62 62 62 60 58 59 59 57 56 53 52 58 59 60 59 59 60 60 59 59
39 40 43 46 50 52 55 64 63 63 63 61 62 63 64 63 63 63 63 62 62 62 62 61 62 61 61 59 59 58 57 56 56 54 52 55 58 59 59 59 59 59 59
38 39 41 43 45 49 52 54 58 62 60 60 61 62 62 62 62 62 62 62 62 62 62 62 61 61 60 60 59 58 57 56 55 54 54 54 55 57 58 59 59 59 59

GFSSE_sfc_dewp_123.txt.gz
Dewpoint
65 69 72 73 72 72 72 72 72 73 73 74 73 73 73 73 73 73 74 74 73 73 73 72 73 73 72 72 73 72 72 72 71 72 72 72 71 71 71 72 71 68 71
66 69 71 72 72 72 72 72 72 73 73 74 73 73 73 73 73 73 74 73 73 73 72 72 73 73 71 72 72 71 71 71 71 71 72 71 71 71 71 71 70 69 71
68 69 71 71 72 72 72 72 72 73 73 73 73 73 73 73 74 74 73 73 73 73 72 71 72 71 71 72 71 71 71 71 71 71 71 67 68 70 71 71 70 71 71
68 69 70 71 72 72 72 72 72 73 73 73 73 73 73 73 73 73 73 73 73 73 72 72 71 71 71 71 71 71 71 70 70 70 69 68 67 70 70 70 71 71 70
67 68 70 71 71 72 72 72 72 72 72 72 73 73 73 73 73 73 72 72 73 73 72 71 71 71 71 70 70 71 71 70 69 68 67 69 68 69 70 70 70 70 69
68 68 70 70 71 71 72 72 72 71 71 71 72 73 73 73 73 73 72 72 72 73 71 70 71 71 70 70 70 70 70 69 68 67 67 68 68 69 70 70 70 70 69
68 69 71 69 70 71 72 72 71 71 71 71 72 72 73 73 73 72 72 71 72 71 71 71 71 70 69 69 69 69 68 68 68 68 67 67 68 69 69 69 69 69 69
69 70 71 70 70 71 71 71 70 70 70 71 71 72 72 72 72 72 71 71 71 71 71 71 70 69 69 69 68 68 67 67 67 68 68 68 67 66 67 68 67 68 68
69 70 71 71 71 70 70 70 69 69 70 70 71 71 71 71 70 71 71 71 71 71 70 69 69 68 68 68 67 66 66 66 67 68 67 67 68 67 67 66 66 67 68
69 70 70 71 71 71 72 69 68 68 69 69 70 70 69 69 70 70 70 70 70 71 70 69 68 68 68 67 66 65 65 66 66 66 66 67 67 67 67 67 66 66 66
67 68 70 70 70 71 70 70 69 69 68 68 69 69 68 70 70 70 68 69 70 70 69 68 68 67 67 66 66 65 65 66 66 65 67 66 67 66 65 66 66 66 66
65 67 68 69 69 69 68 69 70 70 70 70 70 70 70 70 70 69 68 68 68 68 68 68 67 66 66 68 67 65 65 66 65 66 64 66 66 67 66 66 66 66 66
63 65 66 68 68 68 67 67 69 69 69 69 70 71 71 70 71 70 71 69 69 68 68 67 67 67 67 66 67 67 65 65 64 65 65 65 66 66 66 67 67 66 66
60 63 65 67 67 67 67 66 67 67 67 68 68 69 69 69 70 70 70 70 69 68 69 67 67 67 67 66 66 66 66 65 64 64 64 64 65 66 67 67 66 66 65
60 61 64 66 66 65 66 66 66 66 67 67 67 68 68 68 68 69 69 70 69 70 68 67 66 67 66 66 65 64 64 64 64 64 64 64 64 65 67 68 67 65 65
61 61 64 65 66 66 66 66 65 66 67 67 67 68 68 68 67 68 68 69 68 69 68 67 66 66 66 65 64 63 63 63 63 64 64 64 63 64 65 67 67 66 64
58 62 63 65 66 66 66 66 65 65 65 65 66 67 68 68 67 67 66 67 68 68 68 67 65 65 65 64 63 63 63 63 62 62 63 64 64 61 63 64 65 66 64
52 63 63 63 65 66 66 66 65 65 65 64 65 65 66 66 67 66 65 66 67 66 66 64 63 63 65 64 64 63 63 63 62 62 62 62 63 63 63 63 63 65 65
52 61 64 64 64 65 66 65 66 66 64 64 65 65 65 66 66 65 65 65 66 66 65 63 63 63 62 62 63 63 63 62 62 61 61 61 62 63 63 62 62 62 64
43 61 64 65 65 65 64 65 65 65 65 66 65 65 66 64 65 66 65 65 65 64 64 64 63 63 62 62 61 62 62 62 62 62 62 61 62 62 63 63 65 63 61
47 54 63 66 66 64 63 64 63 63 64 65 64 65 65 66 65 66 65 64 64 64 64 64 63 62 62 62 61 60 61 62 61 62 62 62 62 62 63 63 64 63 62
47 48 50 60 66 66 64 64 64 64 64 66 65 64 65 65 66 66 65 64 64 64 64 64 62 61 62 62 60 59 57 59 60 62 62 62 62 63 62 63 63 63 63
44 46 48 51 56 66 66 66 66 66 66 65 65 64 64 65 66 66 65 64 64 64 63 62 62 62 60 62 62 60 56 55 57 60 60 62 61 62 62 62 62 62 62
42 44 47 52 55 58 65 66 65 64 63 64 64 64 64 65 65 66 65 64 64 64 64 63 64 64 63 60 62 62 61 58 55 55 59 60 61 61 61 62 62 61 62
40 42 46 50 51 53 58 62 65 64 66 65 65 64 65 65 66 66 65 65 65 64 64 63 63 64 63 61 60 60 60 59 59 56 54 57 59 60 60 61 62 61 61
39 41 44 46 46 49 51 53 56 63 64 64 65 64 63 65 65 65 64 64 64 64 64 63 64 64 63 62 61 60 59 57 56 57 55 56 56 58 60 60 60 61 61

GFSSE_sfc_dewp_126.txt.gz
Dewpoint
61 67 72 72 73 73 72 73 73 73 73 73 73 73 73 73 73 73 74 74 74 74 73 72 73 73 71 72 73 72 73 72 72 72 73 72 71 71 71 72 70 67 71
61 68 71 72 72 72 72 73 73 73 74 73 73 73 73 73 73 74 74 74 74 74 72 72 72 72 71 73 72 72 72 72 72 72 72 71 72 71 71 71 70 69 71
63 68 71 71 72 72 72 73 73 74 74 73 73 73 73 73 74 74 74 73 73 73 72 72 71 71 71 72 72 72 71 71 71 72 72 65 67 71 70 70 70 71 71
63 68 68 71 72 72 72 72 73 74 74 73 73 73 73 74 74 74 73 73 73 73 72 72 71 71 71 72 71 71 71 71 71 71 67 67 67 70 70 70 71 71 70
64 67 68 71 71 71 72 72 73 73 73 73 73 73 74 74 74 74 73 72 73 73 72 72 71 71 71 71 71 71 71 70 70 69 65 67 68 69 70 70 70 69 69
64 65 70 70 71 71 72 72 72 72 72 72 72 73 74 74 74 73 72 72 73 73 73 72 72 71 70 70 70 70 70 69 69 65 64 67 66 70 70 70 69 69 69
66 67 71 69 70 71 72 72 72 71 71 72 72 73 73 73 73 72 72 72 72 72 71 72 71 70 70 70 70 69 69 69 66 64 65 66 67 69 68 68 68 68 69
68 69 70 70 70 71 71 71 70 70 70 71 72 72 73 73 72 72 71 71 72 71 70 71 70 70 69 69 69 68 68 68 65 65 65 67 68 67 67 66 67 67 68
70 71 72 71 70 70 70 69 69 69 70 70 71 71 72 71 71 71 71 71 71 70 70 70 69 69 69 69 68 67 67 67 66 67 65 67 68 66 66 67 66 66 67
70 71 71 71 71 71 71 69 68 69 69 70 70 70 70 70 70 71 70 71 71 70 70 69 69 68 68 67 67 66 66 67 64 63 67 67 66 64 64 67 67 67 67
68 69 71 70 70 70 70 70 69 69 69 69 70 69 69 69 70 71 69 69 70 70 69 69 68 68 67 67 66 66 66 62 63 62 67 66 66 66 66 67 66 67 67
65 67 68 69 69 69 67 70 70 69 68 68 69 70 69 68 69 67 68 69 69 69 68 68 67 67 66 65 65 65 63 63 63 63 67 66 68 67 66 66 66 66 67
62 64 66 69 69 69 67 67 68 67 67 68 69 69 69 68 69 67 68 68 68 68 67 67 67 65 65 65 63 63 62 64 61 61 66 66 67 66 66 65 65 66 66
52 62 64 66 68 69 65 66 68 67 69 68 68 70 69 68 69 68 67 67 67 66 66 65 64 65 67 66 65 64 64 62 60 60 65 65 66 66 66 65 66 66 66
39 58 63 65 67 67 68 65 66 66 67 68 68 69 70 67 68 68 68 67 67 67 66 65 64 66 65 65 64 64 63 63 62 60 61 64 64 65 66 65 66 67 65
35 52 62 64 66 67 67 67 66 66 66 67 67 68 70 68 68 67 68 68 67 67 66 65 64 65 63 63 63 63 62 61 61 61 60 64 63 64 65 66 66 66 65
30 41 57 64 66 67 66 66 66 64 65 66 67 68 69 69 69 68 68 67 68 67 67 67 65 65 64 64 63 62 61 62 61 61 61 60 63 61 63 65 66 65 65
30 33 43 59 64 66 66 65 63 64 65 65 67 67 68 68 68 68 67 67 68 69 68 67 66 65 63 63 63 62 61 61 62 61 61 60 60 62 62 63 64 65 65
29 34 38 57 63 65 65 65 65 65 65 64 65 65 67 67 68 67 66 66 69 67 67 66 65 65 63 63 63 63 63 62 62 60 60 61 61 61 60 62 62 62 63
39 39 37 51 64 65 64 65 63 63 65 64 64 64 65 65 67 67 65 66 67 66 66 66 65 65 64 63 61 61 62 62 62 62 61 60 60 61 61 62 63 61 61
47 47 40 48 62 64 63 61 61 61 62 63 63 64 65 65 65 66 66 66 66 65 65 66 65 64 64 64 63 63 63 63 63 62 62 61 61 61 62 61 63 64 63
47 48 49 52 56 63 63 60 60 60 61 61 62 63 64 65 66 65 66 65 65 65 65 65 65 63 64 64 61 61 59 58 62 62 62 61 61 61 61 62 62 62 64
46 48 48 52 59 63 65 63 61 61 62 62 62 62 63 64 65 67 66 66 65 65 64 65 64 63 62 63 64 58 56 53 54 59 61 61 61 62 61 61 62 61 63
43 45 49 52 55 63 65 64 64 62 62 63 63 63 63 65 64 65 66 65 65 65 64 63 63 64 63 61 62 61 59 56 52 51 58 60 61 61 61 61 60 61 62
42 42 45 50 53 57 63 62 66 64 63 64 64 65 66 65 65 64 65 66 66 65 65 65 64 64 64 63 61 60 61 60 59 54 51 56 58 59 59 60 60 61 62
42 42 43 45 47 51 55 56 60 64 65 64 65 65 65 65 66 66 66 67 66 66 65 66 65 65 64 64 61 59 58 58 58 58 56 55 54 56 58 59 61 61 63

GFSSE_sfc_dewp_129.txt.gz
Dewpoint
53 68 72 72 73 73 73 73 73 73 73 73 73 74 74 74 74 74 74 74 74 74 73 72 72 72 71 71 71 72 72 73 72 73 73 72 71 71 71 71 71 68 71
56 69 71 72 73 73 73 73 73 73 73 73 73 73 73 73 73 74 74 74 74 74 72 72 72 71 71 72 72 72 72 72 72 72 73 72 71 70 70 70 70 69 71
58 69 71 72 72 72 73 73 74 74 74 73 73 73 73 73 74 74 74 74 74 73 72 72 71 71 71 72 72 72 72 71 72 71 71 65 66 70 69 71 71 71 71
59 67 69 71 72 72 73 73 74 74 74 73 73 73 73 73 74 74 74 73 74 74 72 71 71 71 71 72 71 71 71 71 71 71 67 66 66 70 70 70 70 71 70
60 66 68 71 71 72 72 73 73 74 73 73 73 73 74 74 74 74 73 73 73 73 72 71 71 71 71 71 71 71 71 71 70 69 68 67 68 69 69 70 70 69 69
61 64 70 70 71 71 72 73 73 73 72 72 73 73 74 74 74 73 72 73 73 73 73 72 72 71 70 70 70 70 70 70 70 66 65 67 66 70 69 69 69 69 68
63 65 71 70 70 71 72 72 72 72 72 72 73 73 73 73 73 72 72 72 73 73 73 73 71 70 70 70 70 70 69 69 66 66 65 66 67 69 67 68 68 67 67
65 67 71 70 71 71 71 71 71 71 71 72 72 72 73 73 72 72 72 72 72 71 71 72 70 70 69 69 69 69 68 69 65 65 65 67 69 68 68 67 67 67 67
67 69 73 71 70 70 70 70 69 70 70 71 71 72 72 71 71 71 71 71 72 70 70 71 69 69 69 69 69 68 68 68 67 63 64 67 69 68 67 67 67 66 67
69 70 72 70 70 70 70 69 69 69 69 70 71 71 70 70 71 71 71 71 71 70 70 70 69 69 69 68 68 67 67 67 65 65 63 66 68 68 67 67 66 66 66
66 69 72 70 69 69 69 69 69 69 69 69 70 70 69 69 70 70 69 69 70 70 69 69 68 68 68 67 67 67 67 63 65 64 63 66 66 65 65 66 66 67 67
51 66 67 70 68 69 66 69 69 68 67 68 69 70 69 68 68 66 67 69 69 69 69 68 68 67 67 64 65 65 64 64 60 64 63 65 66 65 66 67 66 65 65
34 56 66 69 69 69 67 66 67 66 66 67 69 69 69 67 70 68 68 69 69 69 67 67 67 65 64 65 63 63 62 63 60 64 64 65 67 67 67 65 65 64 64
31 42 62 65 68 70 65 64 65 65 67 67 67 71 70 68 70 69 67 69 68 67 66 65 64 65 64 64 63 65 65 63 62 63 65 65 67 67 66 65 65 64 64
26 33 46 65 67 68 70 64 65 67 65 66 67 69 69 66 69 68 69 68 67 66 66 66 64 63 64 64 63 63 64 64 63 60 66 64 65 66 67 65 65 65 65
30 31 43 58 67 67 67 69 67 67 66 68 67 67 71 68 69 67 69 69 68 67 68 68 65 65 65 64 63 62 62 64 63 64 65 65 63 65 66 67 66 65 66
22 29 43 58 66 67 68 67 66 63 65 66 67 69 70 69 69 68 67 68 65 68 69 69 67 67 64 65 64 64 61 61 60 62 61 65 63 63 64 65 66 66 65
18 26 38 38 63 68 67 66 65 63 65 63 65 66 68 69 68 68 66 66 69 67 68 67 66 65 64 64 64 64 62 63 63 62 63 63 64 62 62 64 65 66 65
18 22 33 44 48 66 68 67 67 67 65 63 63 64 68 69 69 68 67 67 70 67 67 67 66 65 63 62 64 63 62 63 63 61 63 63 63 62 63 62 63 63 64
28 37 45 47 52 63 66 67 65 65 64 64 62 63 66 67 68 68 67 67 67 66 66 67 66 66 64 62 59 62 64 64 63 63 62 61 62 63 63 63 63 62 62
43 45 46 48 53 53 63 66 64 63 64 64 63 63 65 65 68 68 66 66 67 66 66 67 66 65 64 64 64 63 64 65 63 62 62 63 62 62 63 64 64 64 62
43 44 46 46 49 51 59 63 65 63 63 63 63 64 64 65 68 66 66 65 66 65 66 66 65 65 65 65 62 61 58 57 61 62 62 61 62 60 61 61 62 63 64
42 44 44 46 49 51 56 61 62 63 63 62 62 61 64 65 66 66 66 66 66 65 65 65 65 64 62 64 63 59 55 52 52 59 61 61 62 61 61 61 62 62 62
41 42 43 45 49 53 58 61 63 61 59 60 60 61 61 65 64 66 66 66 66 66 65 65 64 64 63 62 64 63 63 58 53 51 58 60 61 61 62 62 62 62 62
40 41 42 44 47 50 53 58 65 63 61 60 61 62 64 65 65 65 67 66 67 66 66 66 65 64 64 62 61 61 62 62 60 56 53 56 59 59 60 60 61 62 62
39 41 42 43 44 49 51 53 60 65 63 62 63 64 66 67 66 66 66 66 67 67 67 66 66 64 64 64 63 62 60 59 58 58 57 56 54 57 58 60 62 61 62

GFSSE_sfc_dewp_132.txt.gz
Dewpoint
66 69 72 73 73 74 74 73 73 73 73 73 74 74 74 74 74 74 74 74 74 74 74 73 73 72 71 71 72 73 73 72 72 73 73 72 71 71 71 71 71 69 72
67 68 71 72 73 73 74 73 73 73 73 73 74 73 73 74 74 74 74 74 74 74 73 72 73 72 72 73 72 72 72 72 72 72 73 71 71 70 70 70 70 69 71
68 69 69 72 73 73 74 74 73 73 73 73 73 73 73 73 74 74 74 74 74 74 72 72 72 71 73 72 71 72 72 72 72 71 72 68 68 71 70 71 70 70 71
65 69 68 72 72 73 73 73 73 73 73 73 73 73 73 73 74 74 73 73 73 73 72 71 71 71 72 71 71 71 71 71 71 70 69 68 66 70 69 70 70 70 70
62 68 70 71 71 73 73 73 73 73 73 73 73 73 74 74 74 74 73 73 73 73 73 71 72 71 71 71 70 71 71 70 70 69 67 64 68 70 70 70 70 70 69
62 67 70 70 71 72 73 73 73 73 72 72 73 73 73 74 74 73 72 73 73 73 73 73 72 71 70 70 70 70 70 70 70 67 67 67 68 70 69 70 69 69 68
69 70 70 70 70 71 73 73 73 72 72 72 73 73 73 73 73 73 72 72 73 73 73 73 71 70 70 70 70 69 69 69 67 66 66 68 68 70 68 69 68 68 68
71 72 70 70 70 71 72 72 71 71 72 72 72 73 73 73 73 72 72 72 72 72 72 71 70 70 69 70 69 69 68 68 66 67 67 68 69 69 68 68 68 67 67
71 73 72 70 70 70 70 70 70 70 71 71 71 72 72 72 71 71 71 72 72 71 71 70 69 69 69 69 69 68 67 68 67 68 67 66 69 68 68 67 67 66 66
71 72 72 71 70 70 70 69 69 70 70 70 71 71 71 71 71 71 71 71 71 70 70 70 69 68 68 68 68 67 67 67 66 65 67 67 69 68 67 67 66 66 67
69 71 71 70 70 70 69 69 69 70 70 70 70 70 69 71 71 70 70 69 70 70 70 69 68 68 68 67 67 67 66 65 64 64 67 67 69 68 68 66 66 67 67
48 64 71 71 69 69 66 69 69 69 69 70 71 71 71 70 70 68 68 69 70 69 69 68 68 67 67 66 66 66 65 65 64 65 67 66 67 66 67 66 66 67 67
38 43 68 71 70 69 67 69 68 68 68 68 69 70 70 69 69 68 68 69 70 69 68 67 67 67 66 65 65 65 64 65 64 64 66 66 66 66 66 67 66 65 65
31 39 39 70 69 71 68 68 68 67 68 68 68 70 69 69 69 68 69 69 70 69 68 66 66 66 66 65 65 65 65 65 65 68 65 65 67 67 67 66 65 65 65
25 33 46 55 69 68 68 68 68 67 68 68 68 69 69 68 68 68 68 69 68 68 67 66 65 65 65 65 64 64 64 62 63 65 65 64 66 67 67 66 65 65 64
28 29 37 46 59 68 68 68 68 69 69 68 68 68 69 68 68 68 68 68 67 67 67 67 65 65 65 63 64 63 64 63 61 65 66 65 64 66 66 67 66 65 64
26 27 36 42 50 68 68 67 66 69 66 68 68 70 69 69 68 68 68 68 68 67 67 67 67 66 65 66 64 64 63 63 63 62 65 65 63 63 64 66 66 66 66
39 38 38 35 44 53 67 68 66 66 66 66 67 68 69 69 68 68 68 67 68 68 67 66 65 64 64 64 63 64 63 62 62 61 63 66 64 62 62 64 65 66 66
40 43 44 48 50 53 56 65 66 67 66 65 67 67 68 68 69 69 66 68 68 67 67 66 66 65 64 64 63 64 63 63 63 62 62 63 64 64 63 62 63 64 64
40 44 45 47 49 52 51 56 66 67 66 66 64 65 67 68 67 68 67 68 69 66 66 67 66 66 64 63 62 62 63 63 64 64 62 62 62 62 63 64 62 62 62
39 41 44 46 47 47 48 52 58 64 65 66 63 64 66 67 67 67 68 67 66 67 66 66 66 64 64 64 62 62 63 63 63 63 63 62 62 62 62 63 63 62 62
38 39 41 43 44 45 47 51 56 61 65 65 64 63 64 68 67 66 68 66 65 64 66 65 65 64 64 64 61 60 57 60 62 63 62 62 62 62 62 62 62 63 63
35 38 39 41 42 44 47 50 55 59 63 64 64 62 64 65 68 67 66 66 65 65 63 64 64 63 62 63 64 59 56 54 55 61 61 62 61 61 61 62 62 62 63
33 36 38 40 42 44 47 49 52 54 57 62 63 63 62 64 66 67 66 65 66 64 63 63 65 63 62 60 63 63 62 61 55 54 61 61 61 61 61 62 61 62 62
32 34 37 39 42 43 45 49 52 54 59 62 62 62 62 63 64 66 65 65 66 64 64 65 65 64 63 61 61 61 61 61 61 58 54 58 60 60 61 62 62 61 62
34 35 35 37 41 42 43 49 51 53 58 62 61 63 62 64 64 65 65 65 65 65 65 64 65 64 63 62 62 60 60 59 59 59 56 55 57 59 59 60 61 61 61